<?xml version="1.0" encoding="UTF-8" standalone="no" ?>
<gpx xmlns="http://www.topografix.com/GPX/1/1" xmlns:xsi="http://www.w3.org/2001/XMLSchema-instance" xsi:schemaLocation="http://www.topografix.com/GPX/1/1 http://www.topografix.com/GPX/1/1/gpx.xsd" version="1.1" creator="VisuGPX - https://www.visugpx.com">
  <metadata>
    <name>2011-04-17 0951 - Circuit De Magagnosc</name>
    <desc><![CDATA[Quelques très beaux points de vues sur la baie de Cannes.]]></desc>
  </metadata>
  <trk>
    <name><![CDATA[2011-04-17 09:51 - Circuit De Magagnosc]]></name>
    <desc><![CDATA[]]></desc>
    <trkseg>
      <trkpt lat="43.66737" lon="6.93161">
        <ele>547</ele>
        <time>2011-04-17T07:52:12Z</time>
      </trkpt>
      <trkpt lat="43.66737" lon="6.93161">
        <ele>547</ele>
        <time>2011-04-17T07:52:12Z</time>
      </trkpt>
      <trkpt lat="43.66737" lon="6.93161">
        <ele>547</ele>
        <time>2011-04-17T07:52:44Z</time>
      </trkpt>
      <trkpt lat="43.6674" lon="6.93155">
        <ele>546</ele>
        <time>2011-04-17T07:52:56Z</time>
      </trkpt>
      <trkpt lat="43.6674" lon="6.93148">
        <ele>545</ele>
        <time>2011-04-17T07:54:36Z</time>
      </trkpt>
      <trkpt lat="43.66742" lon="6.93154">
        <ele>544</ele>
        <time>2011-04-17T07:56:41Z</time>
      </trkpt>
      <trkpt lat="43.66742" lon="6.93154">
        <ele>544</ele>
        <time>2011-04-17T07:56:41Z</time>
      </trkpt>
      <trkpt lat="43.66742" lon="6.93154">
        <ele>545</ele>
        <time>2011-04-17T07:59:02Z</time>
      </trkpt>
      <trkpt lat="43.66739" lon="6.93161">
        <ele>545</ele>
        <time>2011-04-17T07:59:06Z</time>
      </trkpt>
      <trkpt lat="43.66741" lon="6.93168">
        <ele>545</ele>
        <time>2011-04-17T07:59:12Z</time>
      </trkpt>
      <trkpt lat="43.66742" lon="6.93174">
        <ele>546</ele>
        <time>2011-04-17T07:59:16Z</time>
      </trkpt>
      <trkpt lat="43.66746" lon="6.93179">
        <ele>546</ele>
        <time>2011-04-17T07:59:20Z</time>
      </trkpt>
      <trkpt lat="43.66752" lon="6.9318">
        <ele>545</ele>
        <time>2011-04-17T07:59:30Z</time>
      </trkpt>
      <trkpt lat="43.66756" lon="6.93177">
        <ele>545</ele>
        <time>2011-04-17T07:59:36Z</time>
      </trkpt>
      <trkpt lat="43.66761" lon="6.93178">
        <ele>545</ele>
        <time>2011-04-17T07:59:43Z</time>
      </trkpt>
      <trkpt lat="43.66766" lon="6.93179">
        <ele>544</ele>
        <time>2011-04-17T07:59:47Z</time>
      </trkpt>
      <trkpt lat="43.6677" lon="6.93182">
        <ele>545</ele>
        <time>2011-04-17T07:59:52Z</time>
      </trkpt>
      <trkpt lat="43.66776" lon="6.93182">
        <ele>548</ele>
        <time>2011-04-17T08:00:12Z</time>
      </trkpt>
      <trkpt lat="43.6678" lon="6.93179">
        <ele>546</ele>
        <time>2011-04-17T08:00:16Z</time>
      </trkpt>
      <trkpt lat="43.66784" lon="6.93175">
        <ele>549</ele>
        <time>2011-04-17T08:00:23Z</time>
      </trkpt>
      <trkpt lat="43.66785" lon="6.93169">
        <ele>553</ele>
        <time>2011-04-17T08:00:30Z</time>
      </trkpt>
      <trkpt lat="43.6679" lon="6.93166">
        <ele>556</ele>
        <time>2011-04-17T08:01:00Z</time>
      </trkpt>
      <trkpt lat="43.66794" lon="6.93169">
        <ele>555</ele>
        <time>2011-04-17T08:01:07Z</time>
      </trkpt>
      <trkpt lat="43.66798" lon="6.93173">
        <ele>555</ele>
        <time>2011-04-17T08:01:10Z</time>
      </trkpt>
      <trkpt lat="43.66802" lon="6.93176">
        <ele>555</ele>
        <time>2011-04-17T08:01:14Z</time>
      </trkpt>
      <trkpt lat="43.66804" lon="6.93183">
        <ele>557</ele>
        <time>2011-04-17T08:01:20Z</time>
      </trkpt>
      <trkpt lat="43.66808" lon="6.93187">
        <ele>562</ele>
        <time>2011-04-17T08:01:26Z</time>
      </trkpt>
      <trkpt lat="43.66813" lon="6.93185">
        <ele>565</ele>
        <time>2011-04-17T08:01:44Z</time>
      </trkpt>
      <trkpt lat="43.66817" lon="6.93183">
        <ele>566</ele>
        <time>2011-04-17T08:01:52Z</time>
      </trkpt>
      <trkpt lat="43.66817" lon="6.93183">
        <ele>566</ele>
        <time>2011-04-17T08:01:52Z</time>
      </trkpt>
      <trkpt lat="43.66817" lon="6.93183">
        <ele>566</ele>
        <time>2011-04-17T08:01:54Z</time>
      </trkpt>
      <trkpt lat="43.66822" lon="6.93182">
        <ele>567</ele>
        <time>2011-04-17T08:01:58Z</time>
      </trkpt>
      <trkpt lat="43.66826" lon="6.93184">
        <ele>570</ele>
        <time>2011-04-17T08:02:02Z</time>
      </trkpt>
      <trkpt lat="43.66831" lon="6.93186">
        <ele>572</ele>
        <time>2011-04-17T08:02:08Z</time>
      </trkpt>
      <trkpt lat="43.66834" lon="6.93192">
        <ele>581</ele>
        <time>2011-04-17T08:03:07Z</time>
      </trkpt>
      <trkpt lat="43.66838" lon="6.93195">
        <ele>582</ele>
        <time>2011-04-17T08:03:14Z</time>
      </trkpt>
      <trkpt lat="43.66842" lon="6.93198">
        <ele>582</ele>
        <time>2011-04-17T08:03:18Z</time>
      </trkpt>
      <trkpt lat="43.66846" lon="6.93201">
        <ele>585</ele>
        <time>2011-04-17T08:03:24Z</time>
      </trkpt>
      <trkpt lat="43.66849" lon="6.93206">
        <ele>584</ele>
        <time>2011-04-17T08:03:30Z</time>
      </trkpt>
      <trkpt lat="43.66852" lon="6.93212">
        <ele>583</ele>
        <time>2011-04-17T08:03:35Z</time>
      </trkpt>
      <trkpt lat="43.66857" lon="6.93216">
        <ele>583</ele>
        <time>2011-04-17T08:03:45Z</time>
      </trkpt>
      <trkpt lat="43.66861" lon="6.93218">
        <ele>583</ele>
        <time>2011-04-17T08:03:56Z</time>
      </trkpt>
      <trkpt lat="43.66865" lon="6.93222">
        <ele>582</ele>
        <time>2011-04-17T08:04:01Z</time>
      </trkpt>
      <trkpt lat="43.66865" lon="6.93222">
        <ele>582</ele>
        <time>2011-04-17T08:04:01Z</time>
      </trkpt>
      <trkpt lat="43.66865" lon="6.93222">
        <ele>582</ele>
        <time>2011-04-17T08:04:03Z</time>
      </trkpt>
      <trkpt lat="43.66867" lon="6.93228">
        <ele>584</ele>
        <time>2011-04-17T08:04:23Z</time>
      </trkpt>
      <trkpt lat="43.66871" lon="6.93232">
        <ele>583</ele>
        <time>2011-04-17T08:04:29Z</time>
      </trkpt>
      <trkpt lat="43.66873" lon="6.93238">
        <ele>584</ele>
        <time>2011-04-17T08:04:34Z</time>
      </trkpt>
      <trkpt lat="43.66877" lon="6.93243">
        <ele>585</ele>
        <time>2011-04-17T08:04:41Z</time>
      </trkpt>
      <trkpt lat="43.66877" lon="6.93243">
        <ele>585</ele>
        <time>2011-04-17T08:04:41Z</time>
      </trkpt>
      <trkpt lat="43.66877" lon="6.93243">
        <ele>585</ele>
        <time>2011-04-17T08:04:42Z</time>
      </trkpt>
      <trkpt lat="43.66879" lon="6.9325">
        <ele>585</ele>
        <time>2011-04-17T08:04:48Z</time>
      </trkpt>
      <trkpt lat="43.66883" lon="6.93253">
        <ele>587</ele>
        <time>2011-04-17T08:04:54Z</time>
      </trkpt>
      <trkpt lat="43.66888" lon="6.93255">
        <ele>588</ele>
        <time>2011-04-17T08:05:00Z</time>
      </trkpt>
      <trkpt lat="43.66892" lon="6.93258">
        <ele>588</ele>
        <time>2011-04-17T08:05:06Z</time>
      </trkpt>
      <trkpt lat="43.66896" lon="6.93262">
        <ele>589</ele>
        <time>2011-04-17T08:05:12Z</time>
      </trkpt>
      <trkpt lat="43.669" lon="6.93265">
        <ele>590</ele>
        <time>2011-04-17T08:05:16Z</time>
      </trkpt>
      <trkpt lat="43.66905" lon="6.93268">
        <ele>590</ele>
        <time>2011-04-17T08:05:20Z</time>
      </trkpt>
      <trkpt lat="43.66909" lon="6.93272">
        <ele>590</ele>
        <time>2011-04-17T08:05:26Z</time>
      </trkpt>
      <trkpt lat="43.66912" lon="6.93277">
        <ele>592</ele>
        <time>2011-04-17T08:05:32Z</time>
      </trkpt>
      <trkpt lat="43.66917" lon="6.93281">
        <ele>591</ele>
        <time>2011-04-17T08:05:38Z</time>
      </trkpt>
      <trkpt lat="43.66922" lon="6.93282">
        <ele>592</ele>
        <time>2011-04-17T08:05:44Z</time>
      </trkpt>
      <trkpt lat="43.66925" lon="6.93287">
        <ele>592</ele>
        <time>2011-04-17T08:05:50Z</time>
      </trkpt>
      <trkpt lat="43.66925" lon="6.93294">
        <ele>592</ele>
        <time>2011-04-17T08:06:06Z</time>
      </trkpt>
      <trkpt lat="43.66928" lon="6.93298">
        <ele>592</ele>
        <time>2011-04-17T08:06:10Z</time>
      </trkpt>
      <trkpt lat="43.66932" lon="6.93302">
        <ele>591</ele>
        <time>2011-04-17T08:06:16Z</time>
      </trkpt>
      <trkpt lat="43.66932" lon="6.93308">
        <ele>593</ele>
        <time>2011-04-17T08:06:27Z</time>
      </trkpt>
      <trkpt lat="43.66932" lon="6.93308">
        <ele>593</ele>
        <time>2011-04-17T08:06:27Z</time>
      </trkpt>
      <trkpt lat="43.66932" lon="6.93308">
        <ele>591</ele>
        <time>2011-04-17T08:07:17Z</time>
      </trkpt>
      <trkpt lat="43.66934" lon="6.93302">
        <ele>593</ele>
        <time>2011-04-17T08:09:29Z</time>
      </trkpt>
      <trkpt lat="43.66938" lon="6.93296">
        <ele>593</ele>
        <time>2011-04-17T08:09:34Z</time>
      </trkpt>
      <trkpt lat="43.6694" lon="6.9329">
        <ele>593</ele>
        <time>2011-04-17T08:09:43Z</time>
      </trkpt>
      <trkpt lat="43.66945" lon="6.93286">
        <ele>594</ele>
        <time>2011-04-17T08:09:52Z</time>
      </trkpt>
      <trkpt lat="43.6695" lon="6.93282">
        <ele>595</ele>
        <time>2011-04-17T08:09:57Z</time>
      </trkpt>
      <trkpt lat="43.66954" lon="6.9328">
        <ele>594</ele>
        <time>2011-04-17T08:10:03Z</time>
      </trkpt>
      <trkpt lat="43.66959" lon="6.93279">
        <ele>595</ele>
        <time>2011-04-17T08:10:07Z</time>
      </trkpt>
      <trkpt lat="43.66964" lon="6.93278">
        <ele>595</ele>
        <time>2011-04-17T08:10:12Z</time>
      </trkpt>
      <trkpt lat="43.66968" lon="6.9328">
        <ele>594</ele>
        <time>2011-04-17T08:10:16Z</time>
      </trkpt>
      <trkpt lat="43.66973" lon="6.9328">
        <ele>596</ele>
        <time>2011-04-17T08:10:25Z</time>
      </trkpt>
      <trkpt lat="43.66978" lon="6.93279">
        <ele>596</ele>
        <time>2011-04-17T08:10:31Z</time>
      </trkpt>
      <trkpt lat="43.66983" lon="6.93277">
        <ele>594</ele>
        <time>2011-04-17T08:10:49Z</time>
      </trkpt>
      <trkpt lat="43.66988" lon="6.93273">
        <ele>597</ele>
        <time>2011-04-17T08:11:23Z</time>
      </trkpt>
      <trkpt lat="43.66992" lon="6.93271">
        <ele>601</ele>
        <time>2011-04-17T08:11:29Z</time>
      </trkpt>
      <trkpt lat="43.66997" lon="6.9327">
        <ele>599</ele>
        <time>2011-04-17T08:11:32Z</time>
      </trkpt>
      <trkpt lat="43.67002" lon="6.9327">
        <ele>600</ele>
        <time>2011-04-17T08:11:36Z</time>
      </trkpt>
      <trkpt lat="43.67007" lon="6.93272">
        <ele>600</ele>
        <time>2011-04-17T08:11:41Z</time>
      </trkpt>
      <trkpt lat="43.67012" lon="6.9327">
        <ele>600</ele>
        <time>2011-04-17T08:11:46Z</time>
      </trkpt>
      <trkpt lat="43.67017" lon="6.93268">
        <ele>601</ele>
        <time>2011-04-17T08:11:51Z</time>
      </trkpt>
      <trkpt lat="43.67022" lon="6.93267">
        <ele>602</ele>
        <time>2011-04-17T08:11:55Z</time>
      </trkpt>
      <trkpt lat="43.67027" lon="6.93263">
        <ele>604</ele>
        <time>2011-04-17T08:12:00Z</time>
      </trkpt>
      <trkpt lat="43.67032" lon="6.93264">
        <ele>605</ele>
        <time>2011-04-17T08:12:04Z</time>
      </trkpt>
      <trkpt lat="43.67038" lon="6.93263">
        <ele>605</ele>
        <time>2011-04-17T08:12:08Z</time>
      </trkpt>
      <trkpt lat="43.67043" lon="6.93262">
        <ele>605</ele>
        <time>2011-04-17T08:12:14Z</time>
      </trkpt>
      <trkpt lat="43.67048" lon="6.93262">
        <ele>605</ele>
        <time>2011-04-17T08:12:19Z</time>
      </trkpt>
      <trkpt lat="43.67052" lon="6.93259">
        <ele>604</ele>
        <time>2011-04-17T08:12:24Z</time>
      </trkpt>
      <trkpt lat="43.67056" lon="6.93255">
        <ele>606</ele>
        <time>2011-04-17T08:12:29Z</time>
      </trkpt>
      <trkpt lat="43.67057" lon="6.93249">
        <ele>604</ele>
        <time>2011-04-17T08:12:31Z</time>
      </trkpt>
      <trkpt lat="43.67059" lon="6.93242">
        <ele>603</ele>
        <time>2011-04-17T08:12:36Z</time>
      </trkpt>
      <trkpt lat="43.67057" lon="6.93236">
        <ele>603</ele>
        <time>2011-04-17T08:12:39Z</time>
      </trkpt>
      <trkpt lat="43.67057" lon="6.93229">
        <ele>605</ele>
        <time>2011-04-17T08:12:42Z</time>
      </trkpt>
      <trkpt lat="43.67057" lon="6.93222">
        <ele>605</ele>
        <time>2011-04-17T08:12:46Z</time>
      </trkpt>
      <trkpt lat="43.67058" lon="6.93215">
        <ele>605</ele>
        <time>2011-04-17T08:12:52Z</time>
      </trkpt>
      <trkpt lat="43.67055" lon="6.93209">
        <ele>604</ele>
        <time>2011-04-17T08:12:56Z</time>
      </trkpt>
      <trkpt lat="43.67051" lon="6.93206">
        <ele>606</ele>
        <time>2011-04-17T08:13:00Z</time>
      </trkpt>
      <trkpt lat="43.6705" lon="6.93198">
        <ele>606</ele>
        <time>2011-04-17T08:13:04Z</time>
      </trkpt>
      <trkpt lat="43.67054" lon="6.93192">
        <ele>604</ele>
        <time>2011-04-17T08:13:10Z</time>
      </trkpt>
      <trkpt lat="43.67058" lon="6.93187">
        <ele>605</ele>
        <time>2011-04-17T08:13:15Z</time>
      </trkpt>
      <trkpt lat="43.67057" lon="6.9318">
        <ele>605</ele>
        <time>2011-04-17T08:13:21Z</time>
      </trkpt>
      <trkpt lat="43.67061" lon="6.93176">
        <ele>608</ele>
        <time>2011-04-17T08:13:34Z</time>
      </trkpt>
      <trkpt lat="43.67064" lon="6.93171">
        <ele>608</ele>
        <time>2011-04-17T08:13:39Z</time>
      </trkpt>
      <trkpt lat="43.67064" lon="6.93171">
        <ele>608</ele>
        <time>2011-04-17T08:13:39Z</time>
      </trkpt>
      <trkpt lat="43.67064" lon="6.93171">
        <ele>608</ele>
        <time>2011-04-17T08:13:40Z</time>
      </trkpt>
      <trkpt lat="43.67065" lon="6.93164">
        <ele>609</ele>
        <time>2011-04-17T08:13:44Z</time>
      </trkpt>
      <trkpt lat="43.67068" lon="6.93157">
        <ele>610</ele>
        <time>2011-04-17T08:13:52Z</time>
      </trkpt>
      <trkpt lat="43.67073" lon="6.93153">
        <ele>612</ele>
        <time>2011-04-17T08:13:58Z</time>
      </trkpt>
      <trkpt lat="43.67079" lon="6.93153">
        <ele>612</ele>
        <time>2011-04-17T08:14:03Z</time>
      </trkpt>
      <trkpt lat="43.67084" lon="6.93153">
        <ele>612</ele>
        <time>2011-04-17T08:14:08Z</time>
      </trkpt>
      <trkpt lat="43.67089" lon="6.9315">
        <ele>612</ele>
        <time>2011-04-17T08:14:12Z</time>
      </trkpt>
      <trkpt lat="43.67093" lon="6.93146">
        <ele>613</ele>
        <time>2011-04-17T08:14:15Z</time>
      </trkpt>
      <trkpt lat="43.67097" lon="6.93148">
        <ele>615</ele>
        <time>2011-04-17T08:14:20Z</time>
      </trkpt>
      <trkpt lat="43.67102" lon="6.93147">
        <ele>614</ele>
        <time>2011-04-17T08:14:30Z</time>
      </trkpt>
      <trkpt lat="43.67106" lon="6.9315">
        <ele>615</ele>
        <time>2011-04-17T08:14:34Z</time>
      </trkpt>
      <trkpt lat="43.6711" lon="6.9315">
        <ele>615</ele>
        <time>2011-04-17T08:14:38Z</time>
      </trkpt>
      <trkpt lat="43.67116" lon="6.93148">
        <ele>614</ele>
        <time>2011-04-17T08:14:42Z</time>
      </trkpt>
      <trkpt lat="43.67121" lon="6.93147">
        <ele>614</ele>
        <time>2011-04-17T08:14:47Z</time>
      </trkpt>
      <trkpt lat="43.67126" lon="6.93146">
        <ele>614</ele>
        <time>2011-04-17T08:14:52Z</time>
      </trkpt>
      <trkpt lat="43.67131" lon="6.93148">
        <ele>617</ele>
        <time>2011-04-17T08:15:04Z</time>
      </trkpt>
      <trkpt lat="43.67131" lon="6.93148">
        <ele>617</ele>
        <time>2011-04-17T08:15:04Z</time>
      </trkpt>
      <trkpt lat="43.67131" lon="6.93148">
        <ele>617</ele>
        <time>2011-04-17T08:15:05Z</time>
      </trkpt>
      <trkpt lat="43.67136" lon="6.93144">
        <ele>615</ele>
        <time>2011-04-17T08:16:19Z</time>
      </trkpt>
      <trkpt lat="43.6714" lon="6.93144">
        <ele>613</ele>
        <time>2011-04-17T08:16:23Z</time>
      </trkpt>
      <trkpt lat="43.67144" lon="6.93139">
        <ele>612</ele>
        <time>2011-04-17T08:16:26Z</time>
      </trkpt>
      <trkpt lat="43.67149" lon="6.93138">
        <ele>612</ele>
        <time>2011-04-17T08:16:30Z</time>
      </trkpt>
      <trkpt lat="43.67154" lon="6.9314">
        <ele>614</ele>
        <time>2011-04-17T08:17:27Z</time>
      </trkpt>
      <trkpt lat="43.67159" lon="6.9314">
        <ele>615</ele>
        <time>2011-04-17T08:17:31Z</time>
      </trkpt>
      <trkpt lat="43.67159" lon="6.93133">
        <ele>616</ele>
        <time>2011-04-17T08:17:39Z</time>
      </trkpt>
      <trkpt lat="43.67159" lon="6.93127">
        <ele>617</ele>
        <time>2011-04-17T08:17:45Z</time>
      </trkpt>
      <trkpt lat="43.6716" lon="6.9312">
        <ele>619</ele>
        <time>2011-04-17T08:17:51Z</time>
      </trkpt>
      <trkpt lat="43.67162" lon="6.93113">
        <ele>622</ele>
        <time>2011-04-17T08:17:57Z</time>
      </trkpt>
      <trkpt lat="43.67166" lon="6.93107">
        <ele>623</ele>
        <time>2011-04-17T08:18:03Z</time>
      </trkpt>
      <trkpt lat="43.67169" lon="6.93102">
        <ele>623</ele>
        <time>2011-04-17T08:18:09Z</time>
      </trkpt>
      <trkpt lat="43.67172" lon="6.93096">
        <ele>625</ele>
        <time>2011-04-17T08:18:16Z</time>
      </trkpt>
      <trkpt lat="43.67173" lon="6.93088">
        <ele>627</ele>
        <time>2011-04-17T08:18:21Z</time>
      </trkpt>
      <trkpt lat="43.67177" lon="6.93084">
        <ele>626</ele>
        <time>2011-04-17T08:18:28Z</time>
      </trkpt>
      <trkpt lat="43.67182" lon="6.93082">
        <ele>627</ele>
        <time>2011-04-17T08:18:35Z</time>
      </trkpt>
      <trkpt lat="43.67182" lon="6.93082">
        <ele>627</ele>
        <time>2011-04-17T08:18:35Z</time>
      </trkpt>
      <trkpt lat="43.67182" lon="6.93082">
        <ele>627</ele>
        <time>2011-04-17T08:18:36Z</time>
      </trkpt>
      <trkpt lat="43.67187" lon="6.93078">
        <ele>627</ele>
        <time>2011-04-17T08:18:43Z</time>
      </trkpt>
      <trkpt lat="43.67191" lon="6.93075">
        <ele>628</ele>
        <time>2011-04-17T08:18:48Z</time>
      </trkpt>
      <trkpt lat="43.67196" lon="6.93074">
        <ele>631</ele>
        <time>2011-04-17T08:18:53Z</time>
      </trkpt>
      <trkpt lat="43.67201" lon="6.93073">
        <ele>634</ele>
        <time>2011-04-17T08:19:00Z</time>
      </trkpt>
      <trkpt lat="43.67206" lon="6.9307">
        <ele>634</ele>
        <time>2011-04-17T08:19:05Z</time>
      </trkpt>
      <trkpt lat="43.67209" lon="6.93065">
        <ele>635</ele>
        <time>2011-04-17T08:19:09Z</time>
      </trkpt>
      <trkpt lat="43.67214" lon="6.93062">
        <ele>635</ele>
        <time>2011-04-17T08:19:15Z</time>
      </trkpt>
      <trkpt lat="43.67219" lon="6.93061">
        <ele>636</ele>
        <time>2011-04-17T08:19:19Z</time>
      </trkpt>
      <trkpt lat="43.67225" lon="6.93061">
        <ele>636</ele>
        <time>2011-04-17T08:19:26Z</time>
      </trkpt>
      <trkpt lat="43.6723" lon="6.9306">
        <ele>639</ele>
        <time>2011-04-17T08:19:35Z</time>
      </trkpt>
      <trkpt lat="43.67234" lon="6.93058">
        <ele>640</ele>
        <time>2011-04-17T08:19:40Z</time>
      </trkpt>
      <trkpt lat="43.67238" lon="6.93054">
        <ele>639</ele>
        <time>2011-04-17T08:19:45Z</time>
      </trkpt>
      <trkpt lat="43.67244" lon="6.93053">
        <ele>640</ele>
        <time>2011-04-17T08:19:49Z</time>
      </trkpt>
      <trkpt lat="43.67248" lon="6.93054">
        <ele>640</ele>
        <time>2011-04-17T08:19:53Z</time>
      </trkpt>
      <trkpt lat="43.67253" lon="6.93052">
        <ele>641</ele>
        <time>2011-04-17T08:19:59Z</time>
      </trkpt>
      <trkpt lat="43.67258" lon="6.9305">
        <ele>640</ele>
        <time>2011-04-17T08:20:06Z</time>
      </trkpt>
      <trkpt lat="43.67263" lon="6.93046">
        <ele>642</ele>
        <time>2011-04-17T08:20:10Z</time>
      </trkpt>
      <trkpt lat="43.67268" lon="6.93041">
        <ele>641</ele>
        <time>2011-04-17T08:20:13Z</time>
      </trkpt>
      <trkpt lat="43.67272" lon="6.93037">
        <ele>640</ele>
        <time>2011-04-17T08:20:20Z</time>
      </trkpt>
      <trkpt lat="43.67278" lon="6.93033">
        <ele>640</ele>
        <time>2011-04-17T08:20:27Z</time>
      </trkpt>
      <trkpt lat="43.67282" lon="6.93036">
        <ele>642</ele>
        <time>2011-04-17T08:20:32Z</time>
      </trkpt>
      <trkpt lat="43.67286" lon="6.93032">
        <ele>642</ele>
        <time>2011-04-17T08:20:36Z</time>
      </trkpt>
      <trkpt lat="43.67291" lon="6.93032">
        <ele>643</ele>
        <time>2011-04-17T08:20:41Z</time>
      </trkpt>
      <trkpt lat="43.67296" lon="6.93031">
        <ele>643</ele>
        <time>2011-04-17T08:20:45Z</time>
      </trkpt>
      <trkpt lat="43.673" lon="6.9303">
        <ele>644</ele>
        <time>2011-04-17T08:20:52Z</time>
      </trkpt>
      <trkpt lat="43.67305" lon="6.93027">
        <ele>648</ele>
        <time>2011-04-17T08:20:58Z</time>
      </trkpt>
      <trkpt lat="43.6731" lon="6.93027">
        <ele>649</ele>
        <time>2011-04-17T08:21:03Z</time>
      </trkpt>
      <trkpt lat="43.67315" lon="6.93023">
        <ele>650</ele>
        <time>2011-04-17T08:21:08Z</time>
      </trkpt>
      <trkpt lat="43.67321" lon="6.93022">
        <ele>651</ele>
        <time>2011-04-17T08:21:13Z</time>
      </trkpt>
      <trkpt lat="43.67325" lon="6.93023">
        <ele>653</ele>
        <time>2011-04-17T08:21:19Z</time>
      </trkpt>
      <trkpt lat="43.6733" lon="6.93024">
        <ele>656</ele>
        <time>2011-04-17T08:21:23Z</time>
      </trkpt>
      <trkpt lat="43.67335" lon="6.93026">
        <ele>657</ele>
        <time>2011-04-17T08:21:27Z</time>
      </trkpt>
      <trkpt lat="43.6734" lon="6.9303">
        <ele>658</ele>
        <time>2011-04-17T08:21:32Z</time>
      </trkpt>
      <trkpt lat="43.67343" lon="6.93034">
        <ele>658</ele>
        <time>2011-04-17T08:21:35Z</time>
      </trkpt>
      <trkpt lat="43.67345" lon="6.93041">
        <ele>658</ele>
        <time>2011-04-17T08:21:40Z</time>
      </trkpt>
      <trkpt lat="43.67346" lon="6.93047">
        <ele>659</ele>
        <time>2011-04-17T08:21:45Z</time>
      </trkpt>
      <trkpt lat="43.67345" lon="6.93054">
        <ele>661</ele>
        <time>2011-04-17T08:21:49Z</time>
      </trkpt>
      <trkpt lat="43.67344" lon="6.9306">
        <ele>660</ele>
        <time>2011-04-17T08:21:53Z</time>
      </trkpt>
      <trkpt lat="43.67342" lon="6.93066">
        <ele>656</ele>
        <time>2011-04-17T08:21:58Z</time>
      </trkpt>
      <trkpt lat="43.6734" lon="6.93073">
        <ele>655</ele>
        <time>2011-04-17T08:22:03Z</time>
      </trkpt>
      <trkpt lat="43.67338" lon="6.93078">
        <ele>655</ele>
        <time>2011-04-17T08:22:07Z</time>
      </trkpt>
      <trkpt lat="43.67334" lon="6.93083">
        <ele>654</ele>
        <time>2011-04-17T08:22:12Z</time>
      </trkpt>
      <trkpt lat="43.6733" lon="6.93086">
        <ele>655</ele>
        <time>2011-04-17T08:22:16Z</time>
      </trkpt>
      <trkpt lat="43.67327" lon="6.93094">
        <ele>656</ele>
        <time>2011-04-17T08:22:21Z</time>
      </trkpt>
      <trkpt lat="43.67324" lon="6.93099">
        <ele>657</ele>
        <time>2011-04-17T08:22:25Z</time>
      </trkpt>
      <trkpt lat="43.67324" lon="6.93106">
        <ele>658</ele>
        <time>2011-04-17T08:22:30Z</time>
      </trkpt>
      <trkpt lat="43.67322" lon="6.93112">
        <ele>658</ele>
        <time>2011-04-17T08:22:35Z</time>
      </trkpt>
      <trkpt lat="43.6732" lon="6.93118">
        <ele>658</ele>
        <time>2011-04-17T08:22:39Z</time>
      </trkpt>
      <trkpt lat="43.67316" lon="6.93124">
        <ele>658</ele>
        <time>2011-04-17T08:22:44Z</time>
      </trkpt>
      <trkpt lat="43.67316" lon="6.93131">
        <ele>658</ele>
        <time>2011-04-17T08:22:48Z</time>
      </trkpt>
      <trkpt lat="43.67314" lon="6.93137">
        <ele>657</ele>
        <time>2011-04-17T08:22:52Z</time>
      </trkpt>
      <trkpt lat="43.67311" lon="6.93142">
        <ele>657</ele>
        <time>2011-04-17T08:22:56Z</time>
      </trkpt>
      <trkpt lat="43.6731" lon="6.93148">
        <ele>656</ele>
        <time>2011-04-17T08:22:59Z</time>
      </trkpt>
      <trkpt lat="43.67309" lon="6.93155">
        <ele>658</ele>
        <time>2011-04-17T08:23:03Z</time>
      </trkpt>
      <trkpt lat="43.67307" lon="6.93162">
        <ele>659</ele>
        <time>2011-04-17T08:23:06Z</time>
      </trkpt>
      <trkpt lat="43.67308" lon="6.93169">
        <ele>659</ele>
        <time>2011-04-17T08:23:10Z</time>
      </trkpt>
      <trkpt lat="43.67308" lon="6.93177">
        <ele>662</ele>
        <time>2011-04-17T08:23:16Z</time>
      </trkpt>
      <trkpt lat="43.67308" lon="6.93184">
        <ele>662</ele>
        <time>2011-04-17T08:23:20Z</time>
      </trkpt>
      <trkpt lat="43.67309" lon="6.93192">
        <ele>662</ele>
        <time>2011-04-17T08:23:24Z</time>
      </trkpt>
      <trkpt lat="43.6731" lon="6.93198">
        <ele>662</ele>
        <time>2011-04-17T08:23:28Z</time>
      </trkpt>
      <trkpt lat="43.6731" lon="6.93205">
        <ele>662</ele>
        <time>2011-04-17T08:23:32Z</time>
      </trkpt>
      <trkpt lat="43.67312" lon="6.93214">
        <ele>664</ele>
        <time>2011-04-17T08:23:37Z</time>
      </trkpt>
      <trkpt lat="43.67312" lon="6.93221">
        <ele>665</ele>
        <time>2011-04-17T08:23:40Z</time>
      </trkpt>
      <trkpt lat="43.67312" lon="6.93228">
        <ele>666</ele>
        <time>2011-04-17T08:23:45Z</time>
      </trkpt>
      <trkpt lat="43.67311" lon="6.93236">
        <ele>668</ele>
        <time>2011-04-17T08:23:50Z</time>
      </trkpt>
      <trkpt lat="43.67313" lon="6.93243">
        <ele>667</ele>
        <time>2011-04-17T08:23:54Z</time>
      </trkpt>
      <trkpt lat="43.67313" lon="6.9325">
        <ele>668</ele>
        <time>2011-04-17T08:23:58Z</time>
      </trkpt>
      <trkpt lat="43.67316" lon="6.93256">
        <ele>665</ele>
        <time>2011-04-17T08:24:13Z</time>
      </trkpt>
      <trkpt lat="43.67317" lon="6.93262">
        <ele>665</ele>
        <time>2011-04-17T08:24:24Z</time>
      </trkpt>
      <trkpt lat="43.67317" lon="6.93269">
        <ele>665</ele>
        <time>2011-04-17T08:24:29Z</time>
      </trkpt>
      <trkpt lat="43.67318" lon="6.93278">
        <ele>665</ele>
        <time>2011-04-17T08:24:34Z</time>
      </trkpt>
      <trkpt lat="43.67321" lon="6.93283">
        <ele>667</ele>
        <time>2011-04-17T08:24:39Z</time>
      </trkpt>
      <trkpt lat="43.67321" lon="6.9329">
        <ele>668</ele>
        <time>2011-04-17T08:24:44Z</time>
      </trkpt>
      <trkpt lat="43.67322" lon="6.93297">
        <ele>668</ele>
        <time>2011-04-17T08:24:48Z</time>
      </trkpt>
      <trkpt lat="43.67322" lon="6.93304">
        <ele>668</ele>
        <time>2011-04-17T08:24:52Z</time>
      </trkpt>
      <trkpt lat="43.67323" lon="6.93311">
        <ele>669</ele>
        <time>2011-04-17T08:24:56Z</time>
      </trkpt>
      <trkpt lat="43.67325" lon="6.93317">
        <ele>669</ele>
        <time>2011-04-17T08:25:00Z</time>
      </trkpt>
      <trkpt lat="43.67325" lon="6.93324">
        <ele>670</ele>
        <time>2011-04-17T08:25:04Z</time>
      </trkpt>
      <trkpt lat="43.67326" lon="6.9333">
        <ele>670</ele>
        <time>2011-04-17T08:25:08Z</time>
      </trkpt>
      <trkpt lat="43.67326" lon="6.93336">
        <ele>670</ele>
        <time>2011-04-17T08:25:12Z</time>
      </trkpt>
      <trkpt lat="43.67327" lon="6.93343">
        <ele>671</ele>
        <time>2011-04-17T08:25:16Z</time>
      </trkpt>
      <trkpt lat="43.67327" lon="6.9335">
        <ele>672</ele>
        <time>2011-04-17T08:25:20Z</time>
      </trkpt>
      <trkpt lat="43.67328" lon="6.93357">
        <ele>673</ele>
        <time>2011-04-17T08:25:24Z</time>
      </trkpt>
      <trkpt lat="43.67331" lon="6.93363">
        <ele>673</ele>
        <time>2011-04-17T08:25:29Z</time>
      </trkpt>
      <trkpt lat="43.67333" lon="6.93369">
        <ele>673</ele>
        <time>2011-04-17T08:25:33Z</time>
      </trkpt>
      <trkpt lat="43.67336" lon="6.93374">
        <ele>674</ele>
        <time>2011-04-17T08:25:37Z</time>
      </trkpt>
      <trkpt lat="43.6734" lon="6.93379">
        <ele>675</ele>
        <time>2011-04-17T08:25:42Z</time>
      </trkpt>
      <trkpt lat="43.67342" lon="6.93385">
        <ele>675</ele>
        <time>2011-04-17T08:25:45Z</time>
      </trkpt>
      <trkpt lat="43.67344" lon="6.93392">
        <ele>677</ele>
        <time>2011-04-17T08:25:50Z</time>
      </trkpt>
      <trkpt lat="43.67346" lon="6.93398">
        <ele>678</ele>
        <time>2011-04-17T08:25:54Z</time>
      </trkpt>
      <trkpt lat="43.6735" lon="6.93401">
        <ele>677</ele>
        <time>2011-04-17T08:25:58Z</time>
      </trkpt>
      <trkpt lat="43.67352" lon="6.93407">
        <ele>677</ele>
        <time>2011-04-17T08:26:02Z</time>
      </trkpt>
      <trkpt lat="43.67355" lon="6.93414">
        <ele>678</ele>
        <time>2011-04-17T08:26:07Z</time>
      </trkpt>
      <trkpt lat="43.67359" lon="6.93418">
        <ele>679</ele>
        <time>2011-04-17T08:26:11Z</time>
      </trkpt>
      <trkpt lat="43.67362" lon="6.93423">
        <ele>678</ele>
        <time>2011-04-17T08:26:16Z</time>
      </trkpt>
      <trkpt lat="43.67365" lon="6.93429">
        <ele>679</ele>
        <time>2011-04-17T08:26:21Z</time>
      </trkpt>
      <trkpt lat="43.6737" lon="6.93435">
        <ele>678</ele>
        <time>2011-04-17T08:26:26Z</time>
      </trkpt>
      <trkpt lat="43.67374" lon="6.93437">
        <ele>678</ele>
        <time>2011-04-17T08:26:30Z</time>
      </trkpt>
      <trkpt lat="43.67378" lon="6.93442">
        <ele>678</ele>
        <time>2011-04-17T08:26:34Z</time>
      </trkpt>
      <trkpt lat="43.67381" lon="6.93446">
        <ele>678</ele>
        <time>2011-04-17T08:26:38Z</time>
      </trkpt>
      <trkpt lat="43.67385" lon="6.9345">
        <ele>679</ele>
        <time>2011-04-17T08:26:43Z</time>
      </trkpt>
      <trkpt lat="43.6739" lon="6.93453">
        <ele>678</ele>
        <time>2011-04-17T08:26:47Z</time>
      </trkpt>
      <trkpt lat="43.67394" lon="6.93456">
        <ele>678</ele>
        <time>2011-04-17T08:26:50Z</time>
      </trkpt>
      <trkpt lat="43.67397" lon="6.93463">
        <ele>678</ele>
        <time>2011-04-17T08:26:55Z</time>
      </trkpt>
      <trkpt lat="43.67401" lon="6.93466">
        <ele>678</ele>
        <time>2011-04-17T08:27:02Z</time>
      </trkpt>
      <trkpt lat="43.67406" lon="6.9347">
        <ele>678</ele>
        <time>2011-04-17T08:27:06Z</time>
      </trkpt>
      <trkpt lat="43.6741" lon="6.93473">
        <ele>679</ele>
        <time>2011-04-17T08:27:11Z</time>
      </trkpt>
      <trkpt lat="43.67414" lon="6.93477">
        <ele>679</ele>
        <time>2011-04-17T08:27:15Z</time>
      </trkpt>
      <trkpt lat="43.67418" lon="6.93481">
        <ele>680</ele>
        <time>2011-04-17T08:27:20Z</time>
      </trkpt>
      <trkpt lat="43.67422" lon="6.93484">
        <ele>680</ele>
        <time>2011-04-17T08:27:24Z</time>
      </trkpt>
      <trkpt lat="43.67426" lon="6.93487">
        <ele>679</ele>
        <time>2011-04-17T08:27:28Z</time>
      </trkpt>
      <trkpt lat="43.6743" lon="6.9349">
        <ele>680</ele>
        <time>2011-04-17T08:27:32Z</time>
      </trkpt>
      <trkpt lat="43.67434" lon="6.93494">
        <ele>681</ele>
        <time>2011-04-17T08:27:36Z</time>
      </trkpt>
      <trkpt lat="43.67436" lon="6.93501">
        <ele>683</ele>
        <time>2011-04-17T08:27:40Z</time>
      </trkpt>
      <trkpt lat="43.6744" lon="6.93504">
        <ele>683</ele>
        <time>2011-04-17T08:27:45Z</time>
      </trkpt>
      <trkpt lat="43.67445" lon="6.93508">
        <ele>683</ele>
        <time>2011-04-17T08:27:49Z</time>
      </trkpt>
      <trkpt lat="43.67448" lon="6.93514">
        <ele>683</ele>
        <time>2011-04-17T08:27:53Z</time>
      </trkpt>
      <trkpt lat="43.67452" lon="6.93517">
        <ele>684</ele>
        <time>2011-04-17T08:27:56Z</time>
      </trkpt>
      <trkpt lat="43.67454" lon="6.93524">
        <ele>686</ele>
        <time>2011-04-17T08:28:01Z</time>
      </trkpt>
      <trkpt lat="43.67458" lon="6.93528">
        <ele>686</ele>
        <time>2011-04-17T08:28:06Z</time>
      </trkpt>
      <trkpt lat="43.67463" lon="6.93533">
        <ele>685</ele>
        <time>2011-04-17T08:28:11Z</time>
      </trkpt>
      <trkpt lat="43.67467" lon="6.93537">
        <ele>684</ele>
        <time>2011-04-17T08:28:15Z</time>
      </trkpt>
      <trkpt lat="43.67469" lon="6.93542">
        <ele>685</ele>
        <time>2011-04-17T08:28:20Z</time>
      </trkpt>
      <trkpt lat="43.67472" lon="6.93547">
        <ele>687</ele>
        <time>2011-04-17T08:28:24Z</time>
      </trkpt>
      <trkpt lat="43.67474" lon="6.93553">
        <ele>689</ele>
        <time>2011-04-17T08:28:28Z</time>
      </trkpt>
      <trkpt lat="43.67478" lon="6.93558">
        <ele>689</ele>
        <time>2011-04-17T08:28:32Z</time>
      </trkpt>
      <trkpt lat="43.67481" lon="6.93564">
        <ele>690</ele>
        <time>2011-04-17T08:28:36Z</time>
      </trkpt>
      <trkpt lat="43.67481" lon="6.9357">
        <ele>691</ele>
        <time>2011-04-17T08:28:40Z</time>
      </trkpt>
      <trkpt lat="43.67484" lon="6.93575">
        <ele>691</ele>
        <time>2011-04-17T08:28:44Z</time>
      </trkpt>
      <trkpt lat="43.67487" lon="6.93581">
        <ele>692</ele>
        <time>2011-04-17T08:28:48Z</time>
      </trkpt>
      <trkpt lat="43.6749" lon="6.93587">
        <ele>692</ele>
        <time>2011-04-17T08:28:52Z</time>
      </trkpt>
      <trkpt lat="43.67491" lon="6.93594">
        <ele>692</ele>
        <time>2011-04-17T08:28:56Z</time>
      </trkpt>
      <trkpt lat="43.67494" lon="6.93599">
        <ele>694</ele>
        <time>2011-04-17T08:29:01Z</time>
      </trkpt>
      <trkpt lat="43.67498" lon="6.93604">
        <ele>692</ele>
        <time>2011-04-17T08:29:05Z</time>
      </trkpt>
      <trkpt lat="43.675" lon="6.93611">
        <ele>692</ele>
        <time>2011-04-17T08:29:09Z</time>
      </trkpt>
      <trkpt lat="43.67504" lon="6.93616">
        <ele>693</ele>
        <time>2011-04-17T08:29:14Z</time>
      </trkpt>
      <trkpt lat="43.67505" lon="6.93623">
        <ele>692</ele>
        <time>2011-04-17T08:29:18Z</time>
      </trkpt>
      <trkpt lat="43.67506" lon="6.9363">
        <ele>692</ele>
        <time>2011-04-17T08:29:23Z</time>
      </trkpt>
      <trkpt lat="43.67507" lon="6.93638">
        <ele>693</ele>
        <time>2011-04-17T08:29:27Z</time>
      </trkpt>
      <trkpt lat="43.6751" lon="6.93644">
        <ele>693</ele>
        <time>2011-04-17T08:29:31Z</time>
      </trkpt>
      <trkpt lat="43.67511" lon="6.93652">
        <ele>693</ele>
        <time>2011-04-17T08:29:36Z</time>
      </trkpt>
      <trkpt lat="43.67513" lon="6.93659">
        <ele>691</ele>
        <time>2011-04-17T08:29:41Z</time>
      </trkpt>
      <trkpt lat="43.67514" lon="6.93667">
        <ele>693</ele>
        <time>2011-04-17T08:29:45Z</time>
      </trkpt>
      <trkpt lat="43.67516" lon="6.93673">
        <ele>694</ele>
        <time>2011-04-17T08:29:49Z</time>
      </trkpt>
      <trkpt lat="43.67518" lon="6.93679">
        <ele>695</ele>
        <time>2011-04-17T08:29:53Z</time>
      </trkpt>
      <trkpt lat="43.6752" lon="6.93685">
        <ele>694</ele>
        <time>2011-04-17T08:29:57Z</time>
      </trkpt>
      <trkpt lat="43.67522" lon="6.93692">
        <ele>696</ele>
        <time>2011-04-17T08:30:01Z</time>
      </trkpt>
      <trkpt lat="43.67524" lon="6.93698">
        <ele>696</ele>
        <time>2011-04-17T08:30:05Z</time>
      </trkpt>
      <trkpt lat="43.67527" lon="6.93703">
        <ele>694</ele>
        <time>2011-04-17T08:30:09Z</time>
      </trkpt>
      <trkpt lat="43.6753" lon="6.93708">
        <ele>695</ele>
        <time>2011-04-17T08:30:13Z</time>
      </trkpt>
      <trkpt lat="43.67533" lon="6.93715">
        <ele>695</ele>
        <time>2011-04-17T08:30:17Z</time>
      </trkpt>
      <trkpt lat="43.67535" lon="6.93721">
        <ele>695</ele>
        <time>2011-04-17T08:30:21Z</time>
      </trkpt>
      <trkpt lat="43.67537" lon="6.93728">
        <ele>695</ele>
        <time>2011-04-17T08:30:25Z</time>
      </trkpt>
      <trkpt lat="43.6754" lon="6.93732">
        <ele>696</ele>
        <time>2011-04-17T08:30:29Z</time>
      </trkpt>
      <trkpt lat="43.67542" lon="6.93738">
        <ele>696</ele>
        <time>2011-04-17T08:30:32Z</time>
      </trkpt>
      <trkpt lat="43.67546" lon="6.93743">
        <ele>697</ele>
        <time>2011-04-17T08:30:37Z</time>
      </trkpt>
      <trkpt lat="43.67549" lon="6.93747">
        <ele>697</ele>
        <time>2011-04-17T08:30:40Z</time>
      </trkpt>
      <trkpt lat="43.67554" lon="6.9375">
        <ele>696</ele>
        <time>2011-04-17T08:30:45Z</time>
      </trkpt>
      <trkpt lat="43.67557" lon="6.93756">
        <ele>696</ele>
        <time>2011-04-17T08:30:49Z</time>
      </trkpt>
      <trkpt lat="43.6756" lon="6.9376">
        <ele>695</ele>
        <time>2011-04-17T08:30:52Z</time>
      </trkpt>
      <trkpt lat="43.67565" lon="6.93764">
        <ele>693</ele>
        <time>2011-04-17T08:30:56Z</time>
      </trkpt>
      <trkpt lat="43.6757" lon="6.93767">
        <ele>693</ele>
        <time>2011-04-17T08:31:00Z</time>
      </trkpt>
      <trkpt lat="43.67575" lon="6.93769">
        <ele>691</ele>
        <time>2011-04-17T08:31:04Z</time>
      </trkpt>
      <trkpt lat="43.67578" lon="6.93775">
        <ele>691</ele>
        <time>2011-04-17T08:31:08Z</time>
      </trkpt>
      <trkpt lat="43.67583" lon="6.93776">
        <ele>690</ele>
        <time>2011-04-17T08:31:12Z</time>
      </trkpt>
      <trkpt lat="43.67588" lon="6.9378">
        <ele>691</ele>
        <time>2011-04-17T08:31:16Z</time>
      </trkpt>
      <trkpt lat="43.67593" lon="6.93783">
        <ele>691</ele>
        <time>2011-04-17T08:31:20Z</time>
      </trkpt>
      <trkpt lat="43.67598" lon="6.93786">
        <ele>692</ele>
        <time>2011-04-17T08:31:25Z</time>
      </trkpt>
      <trkpt lat="43.67604" lon="6.93787">
        <ele>692</ele>
        <time>2011-04-17T08:31:30Z</time>
      </trkpt>
      <trkpt lat="43.67609" lon="6.93788">
        <ele>692</ele>
        <time>2011-04-17T08:31:34Z</time>
      </trkpt>
      <trkpt lat="43.67614" lon="6.93786">
        <ele>692</ele>
        <time>2011-04-17T08:31:38Z</time>
      </trkpt>
      <trkpt lat="43.67619" lon="6.93787">
        <ele>693</ele>
        <time>2011-04-17T08:31:41Z</time>
      </trkpt>
      <trkpt lat="43.67624" lon="6.93789">
        <ele>692</ele>
        <time>2011-04-17T08:31:45Z</time>
      </trkpt>
      <trkpt lat="43.6763" lon="6.93788">
        <ele>692</ele>
        <time>2011-04-17T08:31:49Z</time>
      </trkpt>
      <trkpt lat="43.67634" lon="6.93786">
        <ele>691</ele>
        <time>2011-04-17T08:31:53Z</time>
      </trkpt>
      <trkpt lat="43.67639" lon="6.93784">
        <ele>690</ele>
        <time>2011-04-17T08:31:57Z</time>
      </trkpt>
      <trkpt lat="43.67644" lon="6.93783">
        <ele>691</ele>
        <time>2011-04-17T08:32:01Z</time>
      </trkpt>
      <trkpt lat="43.6765" lon="6.93781">
        <ele>690</ele>
        <time>2011-04-17T08:32:05Z</time>
      </trkpt>
      <trkpt lat="43.67656" lon="6.93781">
        <ele>689</ele>
        <time>2011-04-17T08:32:10Z</time>
      </trkpt>
      <trkpt lat="43.6766" lon="6.9378">
        <ele>690</ele>
        <time>2011-04-17T08:32:13Z</time>
      </trkpt>
      <trkpt lat="43.6766" lon="6.9378">
        <ele>690</ele>
        <time>2011-04-17T08:32:13Z</time>
      </trkpt>
      <trkpt lat="43.6766" lon="6.9378">
        <ele>690</ele>
        <time>2011-04-17T08:32:23Z</time>
      </trkpt>
      <trkpt lat="43.67661" lon="6.93787">
        <ele>691</ele>
        <time>2011-04-17T08:32:27Z</time>
      </trkpt>
      <trkpt lat="43.67661" lon="6.93787">
        <ele>691</ele>
        <time>2011-04-17T08:32:27Z</time>
      </trkpt>
      <trkpt lat="43.67661" lon="6.93787">
        <ele>691</ele>
        <time>2011-04-17T08:32:28Z</time>
      </trkpt>
      <trkpt lat="43.67661" lon="6.9378">
        <ele>689</ele>
        <time>2011-04-17T08:32:47Z</time>
      </trkpt>
      <trkpt lat="43.67665" lon="6.93776">
        <ele>688</ele>
        <time>2011-04-17T08:32:51Z</time>
      </trkpt>
      <trkpt lat="43.6767" lon="6.93778">
        <ele>690</ele>
        <time>2011-04-17T08:33:04Z</time>
      </trkpt>
      <trkpt lat="43.67675" lon="6.93775">
        <ele>693</ele>
        <time>2011-04-17T08:33:10Z</time>
      </trkpt>
      <trkpt lat="43.6768" lon="6.93775">
        <ele>692</ele>
        <time>2011-04-17T08:33:14Z</time>
      </trkpt>
      <trkpt lat="43.67684" lon="6.93774">
        <ele>693</ele>
        <time>2011-04-17T08:33:19Z</time>
      </trkpt>
      <trkpt lat="43.6769" lon="6.93772">
        <ele>694</ele>
        <time>2011-04-17T08:33:28Z</time>
      </trkpt>
      <trkpt lat="43.67695" lon="6.9377">
        <ele>694</ele>
        <time>2011-04-17T08:33:32Z</time>
      </trkpt>
      <trkpt lat="43.677" lon="6.93768">
        <ele>694</ele>
        <time>2011-04-17T08:33:40Z</time>
      </trkpt>
      <trkpt lat="43.67705" lon="6.93766">
        <ele>694</ele>
        <time>2011-04-17T08:33:44Z</time>
      </trkpt>
      <trkpt lat="43.6771" lon="6.93765">
        <ele>695</ele>
        <time>2011-04-17T08:33:48Z</time>
      </trkpt>
      <trkpt lat="43.67716" lon="6.93762">
        <ele>692</ele>
        <time>2011-04-17T08:33:53Z</time>
      </trkpt>
      <trkpt lat="43.67721" lon="6.9376">
        <ele>691</ele>
        <time>2011-04-17T08:33:56Z</time>
      </trkpt>
      <trkpt lat="43.67725" lon="6.93756">
        <ele>691</ele>
        <time>2011-04-17T08:33:59Z</time>
      </trkpt>
      <trkpt lat="43.6773" lon="6.93754">
        <ele>691</ele>
        <time>2011-04-17T08:34:04Z</time>
      </trkpt>
      <trkpt lat="43.67734" lon="6.9375">
        <ele>691</ele>
        <time>2011-04-17T08:34:09Z</time>
      </trkpt>
      <trkpt lat="43.67738" lon="6.93746">
        <ele>693</ele>
        <time>2011-04-17T08:34:14Z</time>
      </trkpt>
      <trkpt lat="43.67743" lon="6.93744">
        <ele>694</ele>
        <time>2011-04-17T08:34:18Z</time>
      </trkpt>
      <trkpt lat="43.67747" lon="6.9374">
        <ele>693</ele>
        <time>2011-04-17T08:34:22Z</time>
      </trkpt>
      <trkpt lat="43.67752" lon="6.93737">
        <ele>694</ele>
        <time>2011-04-17T08:34:27Z</time>
      </trkpt>
      <trkpt lat="43.67757" lon="6.93734">
        <ele>695</ele>
        <time>2011-04-17T08:34:31Z</time>
      </trkpt>
      <trkpt lat="43.67762" lon="6.9373">
        <ele>696</ele>
        <time>2011-04-17T08:34:35Z</time>
      </trkpt>
      <trkpt lat="43.67767" lon="6.93729">
        <ele>698</ele>
        <time>2011-04-17T08:34:40Z</time>
      </trkpt>
      <trkpt lat="43.67771" lon="6.93732">
        <ele>698</ele>
        <time>2011-04-17T08:34:44Z</time>
      </trkpt>
      <trkpt lat="43.67775" lon="6.93736">
        <ele>698</ele>
        <time>2011-04-17T08:34:48Z</time>
      </trkpt>
      <trkpt lat="43.67779" lon="6.93739">
        <ele>698</ele>
        <time>2011-04-17T08:34:51Z</time>
      </trkpt>
      <trkpt lat="43.6778" lon="6.93746">
        <ele>700</ele>
        <time>2011-04-17T08:34:55Z</time>
      </trkpt>
      <trkpt lat="43.67781" lon="6.93753">
        <ele>701</ele>
        <time>2011-04-17T08:34:59Z</time>
      </trkpt>
      <trkpt lat="43.67783" lon="6.93759">
        <ele>702</ele>
        <time>2011-04-17T08:35:03Z</time>
      </trkpt>
      <trkpt lat="43.67783" lon="6.93766">
        <ele>703</ele>
        <time>2011-04-17T08:35:07Z</time>
      </trkpt>
      <trkpt lat="43.67784" lon="6.93773">
        <ele>704</ele>
        <time>2011-04-17T08:35:11Z</time>
      </trkpt>
      <trkpt lat="43.67785" lon="6.9378">
        <ele>706</ele>
        <time>2011-04-17T08:35:15Z</time>
      </trkpt>
      <trkpt lat="43.67788" lon="6.93786">
        <ele>705</ele>
        <time>2011-04-17T08:35:18Z</time>
      </trkpt>
      <trkpt lat="43.6779" lon="6.93793">
        <ele>704</ele>
        <time>2011-04-17T08:35:23Z</time>
      </trkpt>
      <trkpt lat="43.67792" lon="6.938">
        <ele>704</ele>
        <time>2011-04-17T08:35:27Z</time>
      </trkpt>
      <trkpt lat="43.67795" lon="6.93806">
        <ele>704</ele>
        <time>2011-04-17T08:35:31Z</time>
      </trkpt>
      <trkpt lat="43.67798" lon="6.93811">
        <ele>705</ele>
        <time>2011-04-17T08:35:35Z</time>
      </trkpt>
      <trkpt lat="43.67799" lon="6.93817">
        <ele>705</ele>
        <time>2011-04-17T08:35:38Z</time>
      </trkpt>
      <trkpt lat="43.67801" lon="6.93823">
        <ele>705</ele>
        <time>2011-04-17T08:35:42Z</time>
      </trkpt>
      <trkpt lat="43.67803" lon="6.93829">
        <ele>706</ele>
        <time>2011-04-17T08:35:46Z</time>
      </trkpt>
      <trkpt lat="43.67805" lon="6.93836">
        <ele>707</ele>
        <time>2011-04-17T08:35:50Z</time>
      </trkpt>
      <trkpt lat="43.67808" lon="6.93842">
        <ele>707</ele>
        <time>2011-04-17T08:35:54Z</time>
      </trkpt>
      <trkpt lat="43.67812" lon="6.93847">
        <ele>708</ele>
        <time>2011-04-17T08:35:58Z</time>
      </trkpt>
      <trkpt lat="43.67815" lon="6.93853">
        <ele>708</ele>
        <time>2011-04-17T08:36:02Z</time>
      </trkpt>
      <trkpt lat="43.67817" lon="6.93859">
        <ele>707</ele>
        <time>2011-04-17T08:36:06Z</time>
      </trkpt>
      <trkpt lat="43.67818" lon="6.93866">
        <ele>707</ele>
        <time>2011-04-17T08:36:10Z</time>
      </trkpt>
      <trkpt lat="43.67821" lon="6.93872">
        <ele>707</ele>
        <time>2011-04-17T08:36:14Z</time>
      </trkpt>
      <trkpt lat="43.67824" lon="6.93878">
        <ele>705</ele>
        <time>2011-04-17T08:36:18Z</time>
      </trkpt>
      <trkpt lat="43.67828" lon="6.93882">
        <ele>706</ele>
        <time>2011-04-17T08:36:21Z</time>
      </trkpt>
      <trkpt lat="43.6783" lon="6.93888">
        <ele>708</ele>
        <time>2011-04-17T08:36:25Z</time>
      </trkpt>
      <trkpt lat="43.67834" lon="6.93895">
        <ele>707</ele>
        <time>2011-04-17T08:36:30Z</time>
      </trkpt>
      <trkpt lat="43.67836" lon="6.93901">
        <ele>708</ele>
        <time>2011-04-17T08:36:34Z</time>
      </trkpt>
      <trkpt lat="43.67839" lon="6.93906">
        <ele>707</ele>
        <time>2011-04-17T08:36:38Z</time>
      </trkpt>
      <trkpt lat="43.67842" lon="6.93911">
        <ele>709</ele>
        <time>2011-04-17T08:36:42Z</time>
      </trkpt>
      <trkpt lat="43.67845" lon="6.93916">
        <ele>710</ele>
        <time>2011-04-17T08:36:46Z</time>
      </trkpt>
      <trkpt lat="43.67849" lon="6.93922">
        <ele>710</ele>
        <time>2011-04-17T08:36:50Z</time>
      </trkpt>
      <trkpt lat="43.67853" lon="6.93926">
        <ele>710</ele>
        <time>2011-04-17T08:36:54Z</time>
      </trkpt>
      <trkpt lat="43.67857" lon="6.9393">
        <ele>710</ele>
        <time>2011-04-17T08:36:58Z</time>
      </trkpt>
      <trkpt lat="43.6786" lon="6.93935">
        <ele>710</ele>
        <time>2011-04-17T08:37:02Z</time>
      </trkpt>
      <trkpt lat="43.67862" lon="6.9394">
        <ele>711</ele>
        <time>2011-04-17T08:37:06Z</time>
      </trkpt>
      <trkpt lat="43.67866" lon="6.93945">
        <ele>711</ele>
        <time>2011-04-17T08:37:10Z</time>
      </trkpt>
      <trkpt lat="43.6787" lon="6.9395">
        <ele>711</ele>
        <time>2011-04-17T08:37:14Z</time>
      </trkpt>
      <trkpt lat="43.67874" lon="6.93953">
        <ele>713</ele>
        <time>2011-04-17T08:37:18Z</time>
      </trkpt>
      <trkpt lat="43.67878" lon="6.93958">
        <ele>713</ele>
        <time>2011-04-17T08:37:21Z</time>
      </trkpt>
      <trkpt lat="43.67881" lon="6.93962">
        <ele>713</ele>
        <time>2011-04-17T08:37:24Z</time>
      </trkpt>
      <trkpt lat="43.67886" lon="6.93966">
        <ele>712</ele>
        <time>2011-04-17T08:37:27Z</time>
      </trkpt>
      <trkpt lat="43.67888" lon="6.93971">
        <ele>711</ele>
        <time>2011-04-17T08:37:30Z</time>
      </trkpt>
      <trkpt lat="43.67892" lon="6.93973">
        <ele>711</ele>
        <time>2011-04-17T08:37:35Z</time>
      </trkpt>
      <trkpt lat="43.67897" lon="6.93975">
        <ele>712</ele>
        <time>2011-04-17T08:37:39Z</time>
      </trkpt>
      <trkpt lat="43.67901" lon="6.9398">
        <ele>712</ele>
        <time>2011-04-17T08:37:43Z</time>
      </trkpt>
      <trkpt lat="43.67905" lon="6.93981">
        <ele>711</ele>
        <time>2011-04-17T08:37:46Z</time>
      </trkpt>
      <trkpt lat="43.67909" lon="6.93986">
        <ele>711</ele>
        <time>2011-04-17T08:37:49Z</time>
      </trkpt>
      <trkpt lat="43.67913" lon="6.93988">
        <ele>711</ele>
        <time>2011-04-17T08:37:54Z</time>
      </trkpt>
      <trkpt lat="43.67918" lon="6.9399">
        <ele>710</ele>
        <time>2011-04-17T08:37:59Z</time>
      </trkpt>
      <trkpt lat="43.67923" lon="6.93992">
        <ele>709</ele>
        <time>2011-04-17T08:42:26Z</time>
      </trkpt>
      <trkpt lat="43.67929" lon="6.93994">
        <ele>711</ele>
        <time>2011-04-17T08:42:30Z</time>
      </trkpt>
      <trkpt lat="43.67934" lon="6.93995">
        <ele>710</ele>
        <time>2011-04-17T08:42:34Z</time>
      </trkpt>
      <trkpt lat="43.67939" lon="6.93996">
        <ele>712</ele>
        <time>2011-04-17T08:42:39Z</time>
      </trkpt>
      <trkpt lat="43.67945" lon="6.93998">
        <ele>712</ele>
        <time>2011-04-17T08:42:44Z</time>
      </trkpt>
      <trkpt lat="43.67949" lon="6.94001">
        <ele>713</ele>
        <time>2011-04-17T08:42:47Z</time>
      </trkpt>
      <trkpt lat="43.67954" lon="6.94001">
        <ele>712</ele>
        <time>2011-04-17T08:42:51Z</time>
      </trkpt>
      <trkpt lat="43.67959" lon="6.94001">
        <ele>711</ele>
        <time>2011-04-17T08:42:55Z</time>
      </trkpt>
      <trkpt lat="43.67964" lon="6.94002">
        <ele>709</ele>
        <time>2011-04-17T08:43:00Z</time>
      </trkpt>
      <trkpt lat="43.67968" lon="6.94003">
        <ele>709</ele>
        <time>2011-04-17T08:43:03Z</time>
      </trkpt>
      <trkpt lat="43.67972" lon="6.94006">
        <ele>711</ele>
        <time>2011-04-17T08:43:07Z</time>
      </trkpt>
      <trkpt lat="43.67977" lon="6.94009">
        <ele>712</ele>
        <time>2011-04-17T08:43:11Z</time>
      </trkpt>
      <trkpt lat="43.67982" lon="6.94012">
        <ele>713</ele>
        <time>2011-04-17T08:43:16Z</time>
      </trkpt>
      <trkpt lat="43.67988" lon="6.94014">
        <ele>713</ele>
        <time>2011-04-17T08:43:21Z</time>
      </trkpt>
      <trkpt lat="43.67992" lon="6.94017">
        <ele>712</ele>
        <time>2011-04-17T08:43:25Z</time>
      </trkpt>
      <trkpt lat="43.67998" lon="6.94017">
        <ele>713</ele>
        <time>2011-04-17T08:43:30Z</time>
      </trkpt>
      <trkpt lat="43.68" lon="6.94022">
        <ele>713</ele>
        <time>2011-04-17T08:43:33Z</time>
      </trkpt>
      <trkpt lat="43.68004" lon="6.94027">
        <ele>715</ele>
        <time>2011-04-17T08:43:37Z</time>
      </trkpt>
      <trkpt lat="43.68009" lon="6.94028">
        <ele>716</ele>
        <time>2011-04-17T08:43:41Z</time>
      </trkpt>
      <trkpt lat="43.68014" lon="6.9403">
        <ele>716</ele>
        <time>2011-04-17T08:43:45Z</time>
      </trkpt>
      <trkpt lat="43.68018" lon="6.94033">
        <ele>715</ele>
        <time>2011-04-17T08:43:50Z</time>
      </trkpt>
      <trkpt lat="43.68022" lon="6.94034">
        <ele>717</ele>
        <time>2011-04-17T08:43:53Z</time>
      </trkpt>
      <trkpt lat="43.68028" lon="6.94034">
        <ele>716</ele>
        <time>2011-04-17T08:43:57Z</time>
      </trkpt>
      <trkpt lat="43.68031" lon="6.94039">
        <ele>718</ele>
        <time>2011-04-17T08:44:00Z</time>
      </trkpt>
      <trkpt lat="43.68036" lon="6.94041">
        <ele>717</ele>
        <time>2011-04-17T08:44:04Z</time>
      </trkpt>
      <trkpt lat="43.68041" lon="6.94041">
        <ele>717</ele>
        <time>2011-04-17T08:44:08Z</time>
      </trkpt>
      <trkpt lat="43.68046" lon="6.94042">
        <ele>718</ele>
        <time>2011-04-17T08:44:13Z</time>
      </trkpt>
      <trkpt lat="43.6805" lon="6.94045">
        <ele>718</ele>
        <time>2011-04-17T08:44:17Z</time>
      </trkpt>
      <trkpt lat="43.68055" lon="6.94048">
        <ele>722</ele>
        <time>2011-04-17T08:44:21Z</time>
      </trkpt>
      <trkpt lat="43.6806" lon="6.94049">
        <ele>720</ele>
        <time>2011-04-17T08:44:25Z</time>
      </trkpt>
      <trkpt lat="43.68065" lon="6.94049">
        <ele>721</ele>
        <time>2011-04-17T08:44:30Z</time>
      </trkpt>
      <trkpt lat="43.6807" lon="6.94048">
        <ele>720</ele>
        <time>2011-04-17T08:44:38Z</time>
      </trkpt>
      <trkpt lat="43.68074" lon="6.94052">
        <ele>722</ele>
        <time>2011-04-17T08:44:41Z</time>
      </trkpt>
      <trkpt lat="43.68078" lon="6.94055">
        <ele>722</ele>
        <time>2011-04-17T08:44:45Z</time>
      </trkpt>
      <trkpt lat="43.68083" lon="6.94056">
        <ele>723</ele>
        <time>2011-04-17T08:44:50Z</time>
      </trkpt>
      <trkpt lat="43.68088" lon="6.94056">
        <ele>723</ele>
        <time>2011-04-17T08:44:53Z</time>
      </trkpt>
      <trkpt lat="43.68092" lon="6.9406">
        <ele>725</ele>
        <time>2011-04-17T08:44:57Z</time>
      </trkpt>
      <trkpt lat="43.68096" lon="6.9406">
        <ele>725</ele>
        <time>2011-04-17T08:45:02Z</time>
      </trkpt>
      <trkpt lat="43.68101" lon="6.94061">
        <ele>726</ele>
        <time>2011-04-17T08:45:06Z</time>
      </trkpt>
      <trkpt lat="43.68106" lon="6.94062">
        <ele>726</ele>
        <time>2011-04-17T08:45:11Z</time>
      </trkpt>
      <trkpt lat="43.68111" lon="6.94063">
        <ele>726</ele>
        <time>2011-04-17T08:45:14Z</time>
      </trkpt>
      <trkpt lat="43.68116" lon="6.94062">
        <ele>726</ele>
        <time>2011-04-17T08:45:20Z</time>
      </trkpt>
      <trkpt lat="43.68122" lon="6.94063">
        <ele>727</ele>
        <time>2011-04-17T08:45:25Z</time>
      </trkpt>
      <trkpt lat="43.68126" lon="6.94063">
        <ele>728</ele>
        <time>2011-04-17T08:45:30Z</time>
      </trkpt>
      <trkpt lat="43.68132" lon="6.94064">
        <ele>730</ele>
        <time>2011-04-17T08:45:35Z</time>
      </trkpt>
      <trkpt lat="43.68136" lon="6.94063">
        <ele>729</ele>
        <time>2011-04-17T08:45:39Z</time>
      </trkpt>
      <trkpt lat="43.68142" lon="6.94062">
        <ele>728</ele>
        <time>2011-04-17T08:45:43Z</time>
      </trkpt>
      <trkpt lat="43.68147" lon="6.94061">
        <ele>729</ele>
        <time>2011-04-17T08:45:47Z</time>
      </trkpt>
      <trkpt lat="43.68152" lon="6.94062">
        <ele>730</ele>
        <time>2011-04-17T08:45:52Z</time>
      </trkpt>
      <trkpt lat="43.68157" lon="6.94062">
        <ele>729</ele>
        <time>2011-04-17T08:45:56Z</time>
      </trkpt>
      <trkpt lat="43.68161" lon="6.94061">
        <ele>728</ele>
        <time>2011-04-17T08:45:59Z</time>
      </trkpt>
      <trkpt lat="43.68166" lon="6.94063">
        <ele>729</ele>
        <time>2011-04-17T08:46:03Z</time>
      </trkpt>
      <trkpt lat="43.68172" lon="6.94061">
        <ele>729</ele>
        <time>2011-04-17T08:46:07Z</time>
      </trkpt>
      <trkpt lat="43.68175" lon="6.94066">
        <ele>730</ele>
        <time>2011-04-17T08:46:11Z</time>
      </trkpt>
      <trkpt lat="43.68181" lon="6.94066">
        <ele>730</ele>
        <time>2011-04-17T08:46:16Z</time>
      </trkpt>
      <trkpt lat="43.68187" lon="6.94065">
        <ele>730</ele>
        <time>2011-04-17T08:46:20Z</time>
      </trkpt>
      <trkpt lat="43.68191" lon="6.9407">
        <ele>730</ele>
        <time>2011-04-17T08:46:24Z</time>
      </trkpt>
      <trkpt lat="43.68196" lon="6.94066">
        <ele>729</ele>
        <time>2011-04-17T08:46:27Z</time>
      </trkpt>
      <trkpt lat="43.682" lon="6.94068">
        <ele>729</ele>
        <time>2011-04-17T08:46:31Z</time>
      </trkpt>
      <trkpt lat="43.68206" lon="6.94068">
        <ele>730</ele>
        <time>2011-04-17T08:46:35Z</time>
      </trkpt>
      <trkpt lat="43.68211" lon="6.94066">
        <ele>728</ele>
        <time>2011-04-17T08:46:38Z</time>
      </trkpt>
      <trkpt lat="43.68215" lon="6.94071">
        <ele>729</ele>
        <time>2011-04-17T08:46:41Z</time>
      </trkpt>
      <trkpt lat="43.68219" lon="6.94076">
        <ele>731</ele>
        <time>2011-04-17T08:46:44Z</time>
      </trkpt>
      <trkpt lat="43.68225" lon="6.9408">
        <ele>732</ele>
        <time>2011-04-17T08:46:48Z</time>
      </trkpt>
      <trkpt lat="43.6823" lon="6.94082">
        <ele>732</ele>
        <time>2011-04-17T08:46:52Z</time>
      </trkpt>
      <trkpt lat="43.68234" lon="6.94086">
        <ele>732</ele>
        <time>2011-04-17T08:46:56Z</time>
      </trkpt>
      <trkpt lat="43.68238" lon="6.94091">
        <ele>731</ele>
        <time>2011-04-17T08:47:00Z</time>
      </trkpt>
      <trkpt lat="43.68241" lon="6.94096">
        <ele>731</ele>
        <time>2011-04-17T08:47:03Z</time>
      </trkpt>
      <trkpt lat="43.68246" lon="6.94097">
        <ele>730</ele>
        <time>2011-04-17T08:47:07Z</time>
      </trkpt>
      <trkpt lat="43.68247" lon="6.94105">
        <ele>731</ele>
        <time>2011-04-17T08:47:10Z</time>
      </trkpt>
      <trkpt lat="43.6825" lon="6.94109">
        <ele>732</ele>
        <time>2011-04-17T08:47:14Z</time>
      </trkpt>
      <trkpt lat="43.68257" lon="6.94111">
        <ele>730</ele>
        <time>2011-04-17T08:47:17Z</time>
      </trkpt>
      <trkpt lat="43.68261" lon="6.94115">
        <ele>731</ele>
        <time>2011-04-17T08:47:21Z</time>
      </trkpt>
      <trkpt lat="43.68264" lon="6.94121">
        <ele>731</ele>
        <time>2011-04-17T08:47:25Z</time>
      </trkpt>
      <trkpt lat="43.68268" lon="6.94124">
        <ele>731</ele>
        <time>2011-04-17T08:47:28Z</time>
      </trkpt>
      <trkpt lat="43.68272" lon="6.94129">
        <ele>730</ele>
        <time>2011-04-17T08:47:32Z</time>
      </trkpt>
      <trkpt lat="43.68276" lon="6.94133">
        <ele>730</ele>
        <time>2011-04-17T08:47:36Z</time>
      </trkpt>
      <trkpt lat="43.68282" lon="6.94136">
        <ele>730</ele>
        <time>2011-04-17T08:47:40Z</time>
      </trkpt>
      <trkpt lat="43.68286" lon="6.94141">
        <ele>730</ele>
        <time>2011-04-17T08:47:44Z</time>
      </trkpt>
      <trkpt lat="43.6829" lon="6.94146">
        <ele>730</ele>
        <time>2011-04-17T08:47:48Z</time>
      </trkpt>
      <trkpt lat="43.68295" lon="6.94147">
        <ele>729</ele>
        <time>2011-04-17T08:47:51Z</time>
      </trkpt>
      <trkpt lat="43.68299" lon="6.9415">
        <ele>728</ele>
        <time>2011-04-17T08:47:55Z</time>
      </trkpt>
      <trkpt lat="43.68305" lon="6.94153">
        <ele>728</ele>
        <time>2011-04-17T08:47:59Z</time>
      </trkpt>
      <trkpt lat="43.68309" lon="6.94155">
        <ele>728</ele>
        <time>2011-04-17T08:48:02Z</time>
      </trkpt>
      <trkpt lat="43.68314" lon="6.94158">
        <ele>730</ele>
        <time>2011-04-17T08:48:06Z</time>
      </trkpt>
      <trkpt lat="43.68318" lon="6.9416">
        <ele>729</ele>
        <time>2011-04-17T08:48:09Z</time>
      </trkpt>
      <trkpt lat="43.68323" lon="6.94162">
        <ele>728</ele>
        <time>2011-04-17T08:48:12Z</time>
      </trkpt>
      <trkpt lat="43.68327" lon="6.94166">
        <ele>726</ele>
        <time>2011-04-17T08:48:16Z</time>
      </trkpt>
      <trkpt lat="43.68331" lon="6.94167">
        <ele>725</ele>
        <time>2011-04-17T08:48:19Z</time>
      </trkpt>
      <trkpt lat="43.68336" lon="6.94169">
        <ele>725</ele>
        <time>2011-04-17T08:48:22Z</time>
      </trkpt>
      <trkpt lat="43.68341" lon="6.94172">
        <ele>724</ele>
        <time>2011-04-17T08:48:25Z</time>
      </trkpt>
      <trkpt lat="43.68344" lon="6.94177">
        <ele>725</ele>
        <time>2011-04-17T08:48:28Z</time>
      </trkpt>
      <trkpt lat="43.68349" lon="6.9418">
        <ele>723</ele>
        <time>2011-04-17T08:48:32Z</time>
      </trkpt>
      <trkpt lat="43.68353" lon="6.94183">
        <ele>723</ele>
        <time>2011-04-17T08:48:36Z</time>
      </trkpt>
      <trkpt lat="43.68355" lon="6.94177">
        <ele>722</ele>
        <time>2011-04-17T08:48:50Z</time>
      </trkpt>
      <trkpt lat="43.68359" lon="6.94183">
        <ele>721</ele>
        <time>2011-04-17T08:49:06Z</time>
      </trkpt>
      <trkpt lat="43.68364" lon="6.94187">
        <ele>722</ele>
        <time>2011-04-17T08:49:09Z</time>
      </trkpt>
      <trkpt lat="43.68367" lon="6.94192">
        <ele>722</ele>
        <time>2011-04-17T08:49:13Z</time>
      </trkpt>
      <trkpt lat="43.68371" lon="6.94196">
        <ele>723</ele>
        <time>2011-04-17T08:49:16Z</time>
      </trkpt>
      <trkpt lat="43.68375" lon="6.942">
        <ele>723</ele>
        <time>2011-04-17T08:49:20Z</time>
      </trkpt>
      <trkpt lat="43.68379" lon="6.94203">
        <ele>722</ele>
        <time>2011-04-17T08:49:23Z</time>
      </trkpt>
      <trkpt lat="43.68383" lon="6.94206">
        <ele>722</ele>
        <time>2011-04-17T08:49:26Z</time>
      </trkpt>
      <trkpt lat="43.68388" lon="6.94208">
        <ele>720</ele>
        <time>2011-04-17T08:49:30Z</time>
      </trkpt>
      <trkpt lat="43.68393" lon="6.94209">
        <ele>720</ele>
        <time>2011-04-17T08:49:34Z</time>
      </trkpt>
      <trkpt lat="43.68397" lon="6.94213">
        <ele>719</ele>
        <time>2011-04-17T08:49:37Z</time>
      </trkpt>
      <trkpt lat="43.68401" lon="6.94216">
        <ele>719</ele>
        <time>2011-04-17T08:49:41Z</time>
      </trkpt>
      <trkpt lat="43.68406" lon="6.94219">
        <ele>718</ele>
        <time>2011-04-17T08:49:44Z</time>
      </trkpt>
      <trkpt lat="43.6841" lon="6.94225">
        <ele>719</ele>
        <time>2011-04-17T08:49:48Z</time>
      </trkpt>
      <trkpt lat="43.68415" lon="6.94229">
        <ele>718</ele>
        <time>2011-04-17T08:49:52Z</time>
      </trkpt>
      <trkpt lat="43.68419" lon="6.94234">
        <ele>718</ele>
        <time>2011-04-17T08:49:55Z</time>
      </trkpt>
      <trkpt lat="43.68423" lon="6.94238">
        <ele>718</ele>
        <time>2011-04-17T08:49:59Z</time>
      </trkpt>
      <trkpt lat="43.68428" lon="6.94242">
        <ele>719</ele>
        <time>2011-04-17T08:50:03Z</time>
      </trkpt>
      <trkpt lat="43.68433" lon="6.94244">
        <ele>720</ele>
        <time>2011-04-17T08:50:07Z</time>
      </trkpt>
      <trkpt lat="43.68438" lon="6.94243">
        <ele>718</ele>
        <time>2011-04-17T08:50:10Z</time>
      </trkpt>
      <trkpt lat="43.68443" lon="6.94248">
        <ele>716</ele>
        <time>2011-04-17T08:50:14Z</time>
      </trkpt>
      <trkpt lat="43.68448" lon="6.94252">
        <ele>715</ele>
        <time>2011-04-17T08:50:18Z</time>
      </trkpt>
      <trkpt lat="43.68453" lon="6.94255">
        <ele>715</ele>
        <time>2011-04-17T08:50:22Z</time>
      </trkpt>
      <trkpt lat="43.68457" lon="6.94257">
        <ele>714</ele>
        <time>2011-04-17T08:50:26Z</time>
      </trkpt>
      <trkpt lat="43.68462" lon="6.9426">
        <ele>713</ele>
        <time>2011-04-17T08:50:29Z</time>
      </trkpt>
      <trkpt lat="43.68468" lon="6.94263">
        <ele>713</ele>
        <time>2011-04-17T08:50:33Z</time>
      </trkpt>
      <trkpt lat="43.68472" lon="6.94266">
        <ele>713</ele>
        <time>2011-04-17T08:50:36Z</time>
      </trkpt>
      <trkpt lat="43.68477" lon="6.94268">
        <ele>714</ele>
        <time>2011-04-17T08:50:40Z</time>
      </trkpt>
      <trkpt lat="43.68482" lon="6.9427">
        <ele>714</ele>
        <time>2011-04-17T08:50:44Z</time>
      </trkpt>
      <trkpt lat="43.68486" lon="6.94272">
        <ele>714</ele>
        <time>2011-04-17T08:50:47Z</time>
      </trkpt>
      <trkpt lat="43.68491" lon="6.94273">
        <ele>714</ele>
        <time>2011-04-17T08:50:51Z</time>
      </trkpt>
      <trkpt lat="43.68497" lon="6.94274">
        <ele>713</ele>
        <time>2011-04-17T08:50:55Z</time>
      </trkpt>
      <trkpt lat="43.68502" lon="6.94274">
        <ele>712</ele>
        <time>2011-04-17T08:50:59Z</time>
      </trkpt>
      <trkpt lat="43.68508" lon="6.94274">
        <ele>712</ele>
        <time>2011-04-17T08:51:03Z</time>
      </trkpt>
      <trkpt lat="43.68513" lon="6.94273">
        <ele>711</ele>
        <time>2011-04-17T08:51:07Z</time>
      </trkpt>
      <trkpt lat="43.68519" lon="6.9427">
        <ele>712</ele>
        <time>2011-04-17T08:51:11Z</time>
      </trkpt>
      <trkpt lat="43.68524" lon="6.9427">
        <ele>711</ele>
        <time>2011-04-17T08:51:15Z</time>
      </trkpt>
      <trkpt lat="43.68529" lon="6.94268">
        <ele>710</ele>
        <time>2011-04-17T08:51:19Z</time>
      </trkpt>
      <trkpt lat="43.68533" lon="6.94264">
        <ele>710</ele>
        <time>2011-04-17T08:51:22Z</time>
      </trkpt>
      <trkpt lat="43.68537" lon="6.94261">
        <ele>710</ele>
        <time>2011-04-17T08:51:25Z</time>
      </trkpt>
      <trkpt lat="43.68543" lon="6.94261">
        <ele>709</ele>
        <time>2011-04-17T08:51:30Z</time>
      </trkpt>
      <trkpt lat="43.68546" lon="6.94256">
        <ele>708</ele>
        <time>2011-04-17T08:51:33Z</time>
      </trkpt>
      <trkpt lat="43.68551" lon="6.94257">
        <ele>709</ele>
        <time>2011-04-17T08:51:37Z</time>
      </trkpt>
      <trkpt lat="43.68556" lon="6.94254">
        <ele>710</ele>
        <time>2011-04-17T08:51:40Z</time>
      </trkpt>
      <trkpt lat="43.6856" lon="6.94254">
        <ele>709</ele>
        <time>2011-04-17T08:51:43Z</time>
      </trkpt>
      <trkpt lat="43.68565" lon="6.94256">
        <ele>710</ele>
        <time>2011-04-17T08:51:47Z</time>
      </trkpt>
      <trkpt lat="43.68569" lon="6.94253">
        <ele>711</ele>
        <time>2011-04-17T08:51:50Z</time>
      </trkpt>
      <trkpt lat="43.68574" lon="6.9425">
        <ele>710</ele>
        <time>2011-04-17T08:51:54Z</time>
      </trkpt>
      <trkpt lat="43.6858" lon="6.94249">
        <ele>708</ele>
        <time>2011-04-17T08:51:58Z</time>
      </trkpt>
      <trkpt lat="43.68585" lon="6.94248">
        <ele>708</ele>
        <time>2011-04-17T08:52:02Z</time>
      </trkpt>
      <trkpt lat="43.68589" lon="6.94246">
        <ele>709</ele>
        <time>2011-04-17T08:52:06Z</time>
      </trkpt>
      <trkpt lat="43.68594" lon="6.94244">
        <ele>708</ele>
        <time>2011-04-17T08:52:09Z</time>
      </trkpt>
      <trkpt lat="43.68598" lon="6.94243">
        <ele>708</ele>
        <time>2011-04-17T08:52:12Z</time>
      </trkpt>
      <trkpt lat="43.68603" lon="6.94239">
        <ele>708</ele>
        <time>2011-04-17T08:52:16Z</time>
      </trkpt>
      <trkpt lat="43.68607" lon="6.94234">
        <ele>708</ele>
        <time>2011-04-17T08:52:19Z</time>
      </trkpt>
      <trkpt lat="43.68612" lon="6.94232">
        <ele>707</ele>
        <time>2011-04-17T08:52:23Z</time>
      </trkpt>
      <trkpt lat="43.68617" lon="6.94229">
        <ele>707</ele>
        <time>2011-04-17T08:52:27Z</time>
      </trkpt>
      <trkpt lat="43.6862" lon="6.94225">
        <ele>708</ele>
        <time>2011-04-17T08:52:31Z</time>
      </trkpt>
      <trkpt lat="43.68625" lon="6.94222">
        <ele>708</ele>
        <time>2011-04-17T08:52:34Z</time>
      </trkpt>
      <trkpt lat="43.68629" lon="6.94216">
        <ele>707</ele>
        <time>2011-04-17T08:52:38Z</time>
      </trkpt>
      <trkpt lat="43.68633" lon="6.94214">
        <ele>708</ele>
        <time>2011-04-17T08:52:43Z</time>
      </trkpt>
      <trkpt lat="43.68639" lon="6.94211">
        <ele>707</ele>
        <time>2011-04-17T08:52:46Z</time>
      </trkpt>
      <trkpt lat="43.68642" lon="6.94207">
        <ele>707</ele>
        <time>2011-04-17T08:52:50Z</time>
      </trkpt>
      <trkpt lat="43.68647" lon="6.94203">
        <ele>706</ele>
        <time>2011-04-17T08:52:53Z</time>
      </trkpt>
      <trkpt lat="43.68651" lon="6.94199">
        <ele>707</ele>
        <time>2011-04-17T08:52:57Z</time>
      </trkpt>
      <trkpt lat="43.68655" lon="6.94196">
        <ele>708</ele>
        <time>2011-04-17T08:53:01Z</time>
      </trkpt>
      <trkpt lat="43.68661" lon="6.94193">
        <ele>706</ele>
        <time>2011-04-17T08:53:05Z</time>
      </trkpt>
      <trkpt lat="43.68666" lon="6.9419">
        <ele>706</ele>
        <time>2011-04-17T08:53:09Z</time>
      </trkpt>
      <trkpt lat="43.6867" lon="6.94187">
        <ele>707</ele>
        <time>2011-04-17T08:53:12Z</time>
      </trkpt>
      <trkpt lat="43.68673" lon="6.94182">
        <ele>707</ele>
        <time>2011-04-17T08:53:16Z</time>
      </trkpt>
      <trkpt lat="43.68675" lon="6.94176">
        <ele>708</ele>
        <time>2011-04-17T08:53:20Z</time>
      </trkpt>
      <trkpt lat="43.68678" lon="6.9417">
        <ele>708</ele>
        <time>2011-04-17T08:53:24Z</time>
      </trkpt>
      <trkpt lat="43.68681" lon="6.94165">
        <ele>709</ele>
        <time>2011-04-17T08:53:28Z</time>
      </trkpt>
      <trkpt lat="43.68682" lon="6.94157">
        <ele>708</ele>
        <time>2011-04-17T08:53:32Z</time>
      </trkpt>
      <trkpt lat="43.68685" lon="6.94152">
        <ele>709</ele>
        <time>2011-04-17T08:53:35Z</time>
      </trkpt>
      <trkpt lat="43.68686" lon="6.94146">
        <ele>709</ele>
        <time>2011-04-17T08:53:38Z</time>
      </trkpt>
      <trkpt lat="43.68688" lon="6.94139">
        <ele>709</ele>
        <time>2011-04-17T08:53:42Z</time>
      </trkpt>
      <trkpt lat="43.68692" lon="6.94134">
        <ele>709</ele>
        <time>2011-04-17T08:53:46Z</time>
      </trkpt>
      <trkpt lat="43.68697" lon="6.94131">
        <ele>709</ele>
        <time>2011-04-17T08:53:49Z</time>
      </trkpt>
      <trkpt lat="43.68702" lon="6.94134">
        <ele>709</ele>
        <time>2011-04-17T08:53:53Z</time>
      </trkpt>
      <trkpt lat="43.68706" lon="6.94136">
        <ele>710</ele>
        <time>2011-04-17T08:53:57Z</time>
      </trkpt>
      <trkpt lat="43.6871" lon="6.9414">
        <ele>709</ele>
        <time>2011-04-17T08:54:01Z</time>
      </trkpt>
      <trkpt lat="43.68713" lon="6.94147">
        <ele>711</ele>
        <time>2011-04-17T08:54:05Z</time>
      </trkpt>
      <trkpt lat="43.68713" lon="6.94147">
        <ele>711</ele>
        <time>2011-04-17T08:54:05Z</time>
      </trkpt>
      <trkpt lat="43.68713" lon="6.94147">
        <ele>710</ele>
        <time>2011-04-17T08:54:06Z</time>
      </trkpt>
      <trkpt lat="43.68718" lon="6.94152">
        <ele>711</ele>
        <time>2011-04-17T08:54:10Z</time>
      </trkpt>
      <trkpt lat="43.68721" lon="6.94156">
        <ele>711</ele>
        <time>2011-04-17T08:54:13Z</time>
      </trkpt>
      <trkpt lat="43.68726" lon="6.94159">
        <ele>711</ele>
        <time>2011-04-17T08:54:16Z</time>
      </trkpt>
      <trkpt lat="43.6873" lon="6.94162">
        <ele>712</ele>
        <time>2011-04-17T08:54:19Z</time>
      </trkpt>
      <trkpt lat="43.68735" lon="6.94164">
        <ele>714</ele>
        <time>2011-04-17T08:54:24Z</time>
      </trkpt>
      <trkpt lat="43.6874" lon="6.94167">
        <ele>713</ele>
        <time>2011-04-17T08:54:28Z</time>
      </trkpt>
      <trkpt lat="43.68743" lon="6.94173">
        <ele>712</ele>
        <time>2011-04-17T08:54:32Z</time>
      </trkpt>
      <trkpt lat="43.68744" lon="6.9418">
        <ele>713</ele>
        <time>2011-04-17T08:54:36Z</time>
      </trkpt>
      <trkpt lat="43.68744" lon="6.94187">
        <ele>715</ele>
        <time>2011-04-17T08:54:40Z</time>
      </trkpt>
      <trkpt lat="43.68743" lon="6.94194">
        <ele>716</ele>
        <time>2011-04-17T08:54:44Z</time>
      </trkpt>
      <trkpt lat="43.68742" lon="6.94202">
        <ele>715</ele>
        <time>2011-04-17T08:54:48Z</time>
      </trkpt>
      <trkpt lat="43.68742" lon="6.94209">
        <ele>715</ele>
        <time>2011-04-17T08:54:52Z</time>
      </trkpt>
      <trkpt lat="43.68741" lon="6.94216">
        <ele>716</ele>
        <time>2011-04-17T08:54:56Z</time>
      </trkpt>
      <trkpt lat="43.68742" lon="6.94225">
        <ele>718</ele>
        <time>2011-04-17T08:55:00Z</time>
      </trkpt>
      <trkpt lat="43.68742" lon="6.94232">
        <ele>718</ele>
        <time>2011-04-17T08:55:04Z</time>
      </trkpt>
      <trkpt lat="43.68741" lon="6.94239">
        <ele>717</ele>
        <time>2011-04-17T08:55:08Z</time>
      </trkpt>
      <trkpt lat="43.68741" lon="6.94246">
        <ele>717</ele>
        <time>2011-04-17T08:55:12Z</time>
      </trkpt>
      <trkpt lat="43.68745" lon="6.94253">
        <ele>715</ele>
        <time>2011-04-17T08:55:16Z</time>
      </trkpt>
      <trkpt lat="43.6875" lon="6.94255">
        <ele>714</ele>
        <time>2011-04-17T08:55:20Z</time>
      </trkpt>
      <trkpt lat="43.68755" lon="6.94255">
        <ele>713</ele>
        <time>2011-04-17T08:55:23Z</time>
      </trkpt>
      <trkpt lat="43.68761" lon="6.94255">
        <ele>714</ele>
        <time>2011-04-17T08:55:27Z</time>
      </trkpt>
      <trkpt lat="43.68765" lon="6.94252">
        <ele>713</ele>
        <time>2011-04-17T08:55:30Z</time>
      </trkpt>
      <trkpt lat="43.68771" lon="6.94251">
        <ele>713</ele>
        <time>2011-04-17T08:55:34Z</time>
      </trkpt>
      <trkpt lat="43.68775" lon="6.9425">
        <ele>713</ele>
        <time>2011-04-17T08:55:37Z</time>
      </trkpt>
      <trkpt lat="43.68779" lon="6.94248">
        <ele>712</ele>
        <time>2011-04-17T08:55:41Z</time>
      </trkpt>
      <trkpt lat="43.68785" lon="6.94246">
        <ele>712</ele>
        <time>2011-04-17T08:55:45Z</time>
      </trkpt>
      <trkpt lat="43.68789" lon="6.94242">
        <ele>710</ele>
        <time>2011-04-17T08:55:48Z</time>
      </trkpt>
      <trkpt lat="43.68794" lon="6.94242">
        <ele>711</ele>
        <time>2011-04-17T08:55:52Z</time>
      </trkpt>
      <trkpt lat="43.68799" lon="6.9424">
        <ele>712</ele>
        <time>2011-04-17T08:55:56Z</time>
      </trkpt>
      <trkpt lat="43.68804" lon="6.94238">
        <ele>711</ele>
        <time>2011-04-17T08:56:00Z</time>
      </trkpt>
      <trkpt lat="43.68809" lon="6.94234">
        <ele>711</ele>
        <time>2011-04-17T08:56:03Z</time>
      </trkpt>
      <trkpt lat="43.68813" lon="6.9423">
        <ele>711</ele>
        <time>2011-04-17T08:56:07Z</time>
      </trkpt>
      <trkpt lat="43.68817" lon="6.94228">
        <ele>711</ele>
        <time>2011-04-17T08:56:10Z</time>
      </trkpt>
      <trkpt lat="43.68822" lon="6.94225">
        <ele>712</ele>
        <time>2011-04-17T08:56:13Z</time>
      </trkpt>
      <trkpt lat="43.68826" lon="6.94221">
        <ele>710</ele>
        <time>2011-04-17T08:56:17Z</time>
      </trkpt>
      <trkpt lat="43.68831" lon="6.94218">
        <ele>710</ele>
        <time>2011-04-17T08:56:21Z</time>
      </trkpt>
      <trkpt lat="43.68836" lon="6.94215">
        <ele>710</ele>
        <time>2011-04-17T08:56:25Z</time>
      </trkpt>
      <trkpt lat="43.68841" lon="6.94213">
        <ele>709</ele>
        <time>2011-04-17T08:56:28Z</time>
      </trkpt>
      <trkpt lat="43.68845" lon="6.94209">
        <ele>709</ele>
        <time>2011-04-17T08:56:32Z</time>
      </trkpt>
      <trkpt lat="43.6885" lon="6.94207">
        <ele>708</ele>
        <time>2011-04-17T08:56:36Z</time>
      </trkpt>
      <trkpt lat="43.68856" lon="6.94208">
        <ele>707</ele>
        <time>2011-04-17T08:56:40Z</time>
      </trkpt>
      <trkpt lat="43.6886" lon="6.94211">
        <ele>707</ele>
        <time>2011-04-17T08:56:43Z</time>
      </trkpt>
      <trkpt lat="43.68865" lon="6.94216">
        <ele>706</ele>
        <time>2011-04-17T08:56:47Z</time>
      </trkpt>
      <trkpt lat="43.68867" lon="6.94222">
        <ele>709</ele>
        <time>2011-04-17T08:56:51Z</time>
      </trkpt>
      <trkpt lat="43.68868" lon="6.9423">
        <ele>709</ele>
        <time>2011-04-17T08:56:55Z</time>
      </trkpt>
      <trkpt lat="43.68867" lon="6.94238">
        <ele>711</ele>
        <time>2011-04-17T08:57:00Z</time>
      </trkpt>
      <trkpt lat="43.68867" lon="6.94245">
        <ele>711</ele>
        <time>2011-04-17T08:57:04Z</time>
      </trkpt>
      <trkpt lat="43.68868" lon="6.94253">
        <ele>711</ele>
        <time>2011-04-17T08:57:08Z</time>
      </trkpt>
      <trkpt lat="43.6887" lon="6.9426">
        <ele>711</ele>
        <time>2011-04-17T08:57:13Z</time>
      </trkpt>
      <trkpt lat="43.68869" lon="6.94267">
        <ele>714</ele>
        <time>2011-04-17T08:57:17Z</time>
      </trkpt>
      <trkpt lat="43.68869" lon="6.94274">
        <ele>715</ele>
        <time>2011-04-17T08:57:21Z</time>
      </trkpt>
      <trkpt lat="43.68869" lon="6.94282">
        <ele>715</ele>
        <time>2011-04-17T08:57:25Z</time>
      </trkpt>
      <trkpt lat="43.68869" lon="6.9429">
        <ele>714</ele>
        <time>2011-04-17T08:57:29Z</time>
      </trkpt>
      <trkpt lat="43.68872" lon="6.94297">
        <ele>714</ele>
        <time>2011-04-17T08:57:33Z</time>
      </trkpt>
      <trkpt lat="43.68871" lon="6.94303">
        <ele>714</ele>
        <time>2011-04-17T08:57:37Z</time>
      </trkpt>
      <trkpt lat="43.68872" lon="6.9431">
        <ele>715</ele>
        <time>2011-04-17T08:57:41Z</time>
      </trkpt>
      <trkpt lat="43.68872" lon="6.94317">
        <ele>714</ele>
        <time>2011-04-17T08:57:54Z</time>
      </trkpt>
      <trkpt lat="43.6887" lon="6.94325">
        <ele>713</ele>
        <time>2011-04-17T08:57:58Z</time>
      </trkpt>
      <trkpt lat="43.68871" lon="6.94331">
        <ele>715</ele>
        <time>2011-04-17T08:58:02Z</time>
      </trkpt>
      <trkpt lat="43.68872" lon="6.94338">
        <ele>716</ele>
        <time>2011-04-17T08:58:05Z</time>
      </trkpt>
      <trkpt lat="43.6887" lon="6.94345">
        <ele>716</ele>
        <time>2011-04-17T08:58:08Z</time>
      </trkpt>
      <trkpt lat="43.68868" lon="6.94351">
        <ele>717</ele>
        <time>2011-04-17T08:58:12Z</time>
      </trkpt>
      <trkpt lat="43.68866" lon="6.94358">
        <ele>714</ele>
        <time>2011-04-17T08:58:17Z</time>
      </trkpt>
      <trkpt lat="43.68864" lon="6.94365">
        <ele>715</ele>
        <time>2011-04-17T08:58:21Z</time>
      </trkpt>
      <trkpt lat="43.6886" lon="6.94371">
        <ele>715</ele>
        <time>2011-04-17T08:58:25Z</time>
      </trkpt>
      <trkpt lat="43.68857" lon="6.94378">
        <ele>716</ele>
        <time>2011-04-17T08:58:29Z</time>
      </trkpt>
      <trkpt lat="43.68853" lon="6.94382">
        <ele>716</ele>
        <time>2011-04-17T08:58:31Z</time>
      </trkpt>
      <trkpt lat="43.6885" lon="6.94389">
        <ele>716</ele>
        <time>2011-04-17T08:58:35Z</time>
      </trkpt>
      <trkpt lat="43.68849" lon="6.94396">
        <ele>714</ele>
        <time>2011-04-17T08:58:41Z</time>
      </trkpt>
      <trkpt lat="43.68845" lon="6.94401">
        <ele>714</ele>
        <time>2011-04-17T08:58:45Z</time>
      </trkpt>
      <trkpt lat="43.6884" lon="6.94407">
        <ele>716</ele>
        <time>2011-04-17T08:58:49Z</time>
      </trkpt>
      <trkpt lat="43.68838" lon="6.94414">
        <ele>716</ele>
        <time>2011-04-17T08:58:53Z</time>
      </trkpt>
      <trkpt lat="43.68836" lon="6.9442">
        <ele>716</ele>
        <time>2011-04-17T08:58:56Z</time>
      </trkpt>
      <trkpt lat="43.68834" lon="6.94426">
        <ele>715</ele>
        <time>2011-04-17T08:58:59Z</time>
      </trkpt>
      <trkpt lat="43.68832" lon="6.94432">
        <ele>715</ele>
        <time>2011-04-17T08:59:03Z</time>
      </trkpt>
      <trkpt lat="43.6883" lon="6.94439">
        <ele>715</ele>
        <time>2011-04-17T08:59:07Z</time>
      </trkpt>
      <trkpt lat="43.68826" lon="6.94445">
        <ele>714</ele>
        <time>2011-04-17T08:59:10Z</time>
      </trkpt>
      <trkpt lat="43.68823" lon="6.94451">
        <ele>713</ele>
        <time>2011-04-17T08:59:14Z</time>
      </trkpt>
      <trkpt lat="43.68825" lon="6.94459">
        <ele>712</ele>
        <time>2011-04-17T08:59:18Z</time>
      </trkpt>
      <trkpt lat="43.68826" lon="6.94465">
        <ele>713</ele>
        <time>2011-04-17T08:59:21Z</time>
      </trkpt>
      <trkpt lat="43.68826" lon="6.94473">
        <ele>714</ele>
        <time>2011-04-17T08:59:25Z</time>
      </trkpt>
      <trkpt lat="43.68823" lon="6.9448">
        <ele>715</ele>
        <time>2011-04-17T08:59:28Z</time>
      </trkpt>
      <trkpt lat="43.68825" lon="6.94486">
        <ele>715</ele>
        <time>2011-04-17T08:59:31Z</time>
      </trkpt>
      <trkpt lat="43.68828" lon="6.94492">
        <ele>714</ele>
        <time>2011-04-17T08:59:35Z</time>
      </trkpt>
      <trkpt lat="43.68829" lon="6.94498">
        <ele>713</ele>
        <time>2011-04-17T08:59:38Z</time>
      </trkpt>
      <trkpt lat="43.68828" lon="6.94506">
        <ele>712</ele>
        <time>2011-04-17T08:59:42Z</time>
      </trkpt>
      <trkpt lat="43.68831" lon="6.94512">
        <ele>710</ele>
        <time>2011-04-17T08:59:45Z</time>
      </trkpt>
      <trkpt lat="43.68828" lon="6.94519">
        <ele>710</ele>
        <time>2011-04-17T08:59:49Z</time>
      </trkpt>
      <trkpt lat="43.68829" lon="6.94525">
        <ele>709</ele>
        <time>2011-04-17T08:59:52Z</time>
      </trkpt>
      <trkpt lat="43.6883" lon="6.94532">
        <ele>708</ele>
        <time>2011-04-17T08:59:55Z</time>
      </trkpt>
      <trkpt lat="43.6883" lon="6.9454">
        <ele>708</ele>
        <time>2011-04-17T08:59:59Z</time>
      </trkpt>
      <trkpt lat="43.6883" lon="6.94547">
        <ele>707</ele>
        <time>2011-04-17T09:00:03Z</time>
      </trkpt>
      <trkpt lat="43.68831" lon="6.94554">
        <ele>705</ele>
        <time>2011-04-17T09:00:06Z</time>
      </trkpt>
      <trkpt lat="43.68834" lon="6.9456">
        <ele>705</ele>
        <time>2011-04-17T09:00:10Z</time>
      </trkpt>
      <trkpt lat="43.68834" lon="6.94566">
        <ele>706</ele>
        <time>2011-04-17T09:00:14Z</time>
      </trkpt>
      <trkpt lat="43.68834" lon="6.94574">
        <ele>706</ele>
        <time>2011-04-17T09:00:18Z</time>
      </trkpt>
      <trkpt lat="43.68834" lon="6.9458">
        <ele>706</ele>
        <time>2011-04-17T09:00:21Z</time>
      </trkpt>
      <trkpt lat="43.68834" lon="6.94588">
        <ele>706</ele>
        <time>2011-04-17T09:00:24Z</time>
      </trkpt>
      <trkpt lat="43.68834" lon="6.94594">
        <ele>707</ele>
        <time>2011-04-17T09:00:28Z</time>
      </trkpt>
      <trkpt lat="43.68835" lon="6.94602">
        <ele>705</ele>
        <time>2011-04-17T09:00:32Z</time>
      </trkpt>
      <trkpt lat="43.68834" lon="6.94608">
        <ele>706</ele>
        <time>2011-04-17T09:00:36Z</time>
      </trkpt>
      <trkpt lat="43.68837" lon="6.94613">
        <ele>706</ele>
        <time>2011-04-17T09:00:39Z</time>
      </trkpt>
      <trkpt lat="43.68839" lon="6.9462">
        <ele>707</ele>
        <time>2011-04-17T09:00:42Z</time>
      </trkpt>
      <trkpt lat="43.68838" lon="6.94627">
        <ele>705</ele>
        <time>2011-04-17T09:00:45Z</time>
      </trkpt>
      <trkpt lat="43.68837" lon="6.94634">
        <ele>704</ele>
        <time>2011-04-17T09:00:49Z</time>
      </trkpt>
      <trkpt lat="43.68835" lon="6.9464">
        <ele>703</ele>
        <time>2011-04-17T09:00:53Z</time>
      </trkpt>
      <trkpt lat="43.6883" lon="6.94644">
        <ele>705</ele>
        <time>2011-04-17T09:00:58Z</time>
      </trkpt>
      <trkpt lat="43.68826" lon="6.94648">
        <ele>703</ele>
        <time>2011-04-17T09:01:01Z</time>
      </trkpt>
      <trkpt lat="43.68822" lon="6.94651">
        <ele>704</ele>
        <time>2011-04-17T09:01:05Z</time>
      </trkpt>
      <trkpt lat="43.68817" lon="6.94657">
        <ele>705</ele>
        <time>2011-04-17T09:01:10Z</time>
      </trkpt>
      <trkpt lat="43.68813" lon="6.94662">
        <ele>704</ele>
        <time>2011-04-17T09:01:13Z</time>
      </trkpt>
      <trkpt lat="43.68808" lon="6.94666">
        <ele>705</ele>
        <time>2011-04-17T09:01:17Z</time>
      </trkpt>
      <trkpt lat="43.68804" lon="6.94671">
        <ele>705</ele>
        <time>2011-04-17T09:01:21Z</time>
      </trkpt>
      <trkpt lat="43.68799" lon="6.94673">
        <ele>705</ele>
        <time>2011-04-17T09:01:24Z</time>
      </trkpt>
      <trkpt lat="43.68795" lon="6.94677">
        <ele>703</ele>
        <time>2011-04-17T09:01:27Z</time>
      </trkpt>
      <trkpt lat="43.68791" lon="6.94681">
        <ele>702</ele>
        <time>2011-04-17T09:01:30Z</time>
      </trkpt>
      <trkpt lat="43.68787" lon="6.94686">
        <ele>703</ele>
        <time>2011-04-17T09:01:37Z</time>
      </trkpt>
      <trkpt lat="43.68782" lon="6.94689">
        <ele>703</ele>
        <time>2011-04-17T09:01:40Z</time>
      </trkpt>
      <trkpt lat="43.68776" lon="6.94692">
        <ele>702</ele>
        <time>2011-04-17T09:01:44Z</time>
      </trkpt>
      <trkpt lat="43.68772" lon="6.94697">
        <ele>701</ele>
        <time>2011-04-17T09:01:48Z</time>
      </trkpt>
      <trkpt lat="43.68768" lon="6.94701">
        <ele>700</ele>
        <time>2011-04-17T09:01:51Z</time>
      </trkpt>
      <trkpt lat="43.68764" lon="6.94704">
        <ele>701</ele>
        <time>2011-04-17T09:01:56Z</time>
      </trkpt>
      <trkpt lat="43.6876" lon="6.94709">
        <ele>701</ele>
        <time>2011-04-17T09:01:59Z</time>
      </trkpt>
      <trkpt lat="43.68757" lon="6.94714">
        <ele>700</ele>
        <time>2011-04-17T09:02:03Z</time>
      </trkpt>
      <trkpt lat="43.68753" lon="6.94719">
        <ele>700</ele>
        <time>2011-04-17T09:02:06Z</time>
      </trkpt>
      <trkpt lat="43.68749" lon="6.94723">
        <ele>700</ele>
        <time>2011-04-17T09:02:09Z</time>
      </trkpt>
      <trkpt lat="43.68745" lon="6.94727">
        <ele>700</ele>
        <time>2011-04-17T09:02:12Z</time>
      </trkpt>
      <trkpt lat="43.68741" lon="6.94731">
        <ele>700</ele>
        <time>2011-04-17T09:02:16Z</time>
      </trkpt>
      <trkpt lat="43.68736" lon="6.94736">
        <ele>700</ele>
        <time>2011-04-17T09:02:20Z</time>
      </trkpt>
      <trkpt lat="43.68732" lon="6.94739">
        <ele>698</ele>
        <time>2011-04-17T09:02:24Z</time>
      </trkpt>
      <trkpt lat="43.68729" lon="6.94745">
        <ele>698</ele>
        <time>2011-04-17T09:02:28Z</time>
      </trkpt>
      <trkpt lat="43.68725" lon="6.9475">
        <ele>699</ele>
        <time>2011-04-17T09:02:32Z</time>
      </trkpt>
      <trkpt lat="43.6872" lon="6.94753">
        <ele>697</ele>
        <time>2011-04-17T09:02:35Z</time>
      </trkpt>
      <trkpt lat="43.68717" lon="6.94759">
        <ele>696</ele>
        <time>2011-04-17T09:02:39Z</time>
      </trkpt>
      <trkpt lat="43.68713" lon="6.94763">
        <ele>695</ele>
        <time>2011-04-17T09:02:42Z</time>
      </trkpt>
      <trkpt lat="43.68708" lon="6.94769">
        <ele>694</ele>
        <time>2011-04-17T09:02:46Z</time>
      </trkpt>
      <trkpt lat="43.68706" lon="6.94776">
        <ele>694</ele>
        <time>2011-04-17T09:02:51Z</time>
      </trkpt>
      <trkpt lat="43.68703" lon="6.94781">
        <ele>694</ele>
        <time>2011-04-17T09:02:55Z</time>
      </trkpt>
      <trkpt lat="43.68699" lon="6.94786">
        <ele>693</ele>
        <time>2011-04-17T09:02:58Z</time>
      </trkpt>
      <trkpt lat="43.68695" lon="6.94791">
        <ele>693</ele>
        <time>2011-04-17T09:03:01Z</time>
      </trkpt>
      <trkpt lat="43.68694" lon="6.94797">
        <ele>693</ele>
        <time>2011-04-17T09:03:04Z</time>
      </trkpt>
      <trkpt lat="43.68691" lon="6.94803">
        <ele>693</ele>
        <time>2011-04-17T09:03:07Z</time>
      </trkpt>
      <trkpt lat="43.68689" lon="6.9481">
        <ele>694</ele>
        <time>2011-04-17T09:03:12Z</time>
      </trkpt>
      <trkpt lat="43.68688" lon="6.94816">
        <ele>692</ele>
        <time>2011-04-17T09:03:16Z</time>
      </trkpt>
      <trkpt lat="43.68686" lon="6.94824">
        <ele>693</ele>
        <time>2011-04-17T09:03:20Z</time>
      </trkpt>
      <trkpt lat="43.68684" lon="6.9483">
        <ele>693</ele>
        <time>2011-04-17T09:03:24Z</time>
      </trkpt>
      <trkpt lat="43.68682" lon="6.94838">
        <ele>691</ele>
        <time>2011-04-17T09:03:29Z</time>
      </trkpt>
      <trkpt lat="43.68679" lon="6.94846">
        <ele>691</ele>
        <time>2011-04-17T09:03:33Z</time>
      </trkpt>
      <trkpt lat="43.68675" lon="6.94851">
        <ele>691</ele>
        <time>2011-04-17T09:03:36Z</time>
      </trkpt>
      <trkpt lat="43.68675" lon="6.94858">
        <ele>690</ele>
        <time>2011-04-17T09:03:40Z</time>
      </trkpt>
      <trkpt lat="43.68673" lon="6.94864">
        <ele>690</ele>
        <time>2011-04-17T09:03:43Z</time>
      </trkpt>
      <trkpt lat="43.6867" lon="6.94871">
        <ele>689</ele>
        <time>2011-04-17T09:03:48Z</time>
      </trkpt>
      <trkpt lat="43.6867" lon="6.94878">
        <ele>690</ele>
        <time>2011-04-17T09:03:51Z</time>
      </trkpt>
      <trkpt lat="43.68669" lon="6.94884">
        <ele>690</ele>
        <time>2011-04-17T09:03:55Z</time>
      </trkpt>
      <trkpt lat="43.68669" lon="6.94892">
        <ele>689</ele>
        <time>2011-04-17T09:03:59Z</time>
      </trkpt>
      <trkpt lat="43.68667" lon="6.94897">
        <ele>690</ele>
        <time>2011-04-17T09:04:02Z</time>
      </trkpt>
      <trkpt lat="43.68666" lon="6.94903">
        <ele>689</ele>
        <time>2011-04-17T09:04:05Z</time>
      </trkpt>
      <trkpt lat="43.68666" lon="6.94911">
        <ele>689</ele>
        <time>2011-04-17T09:04:09Z</time>
      </trkpt>
      <trkpt lat="43.68668" lon="6.94917">
        <ele>688</ele>
        <time>2011-04-17T09:04:12Z</time>
      </trkpt>
      <trkpt lat="43.68667" lon="6.94923">
        <ele>688</ele>
        <time>2011-04-17T09:04:15Z</time>
      </trkpt>
      <trkpt lat="43.68664" lon="6.9493">
        <ele>688</ele>
        <time>2011-04-17T09:04:19Z</time>
      </trkpt>
      <trkpt lat="43.68667" lon="6.94938">
        <ele>688</ele>
        <time>2011-04-17T09:04:23Z</time>
      </trkpt>
      <trkpt lat="43.68669" lon="6.94945">
        <ele>687</ele>
        <time>2011-04-17T09:04:27Z</time>
      </trkpt>
      <trkpt lat="43.6867" lon="6.94952">
        <ele>686</ele>
        <time>2011-04-17T09:04:31Z</time>
      </trkpt>
      <trkpt lat="43.68672" lon="6.9496">
        <ele>686</ele>
        <time>2011-04-17T09:04:35Z</time>
      </trkpt>
      <trkpt lat="43.68672" lon="6.94968">
        <ele>687</ele>
        <time>2011-04-17T09:04:39Z</time>
      </trkpt>
      <trkpt lat="43.68672" lon="6.94975">
        <ele>687</ele>
        <time>2011-04-17T09:04:43Z</time>
      </trkpt>
      <trkpt lat="43.68672" lon="6.94983">
        <ele>687</ele>
        <time>2011-04-17T09:04:47Z</time>
      </trkpt>
      <trkpt lat="43.68672" lon="6.9499">
        <ele>686</ele>
        <time>2011-04-17T09:04:51Z</time>
      </trkpt>
      <trkpt lat="43.68672" lon="6.94997">
        <ele>684</ele>
        <time>2011-04-17T09:04:55Z</time>
      </trkpt>
      <trkpt lat="43.68672" lon="6.95004">
        <ele>684</ele>
        <time>2011-04-17T09:04:58Z</time>
      </trkpt>
      <trkpt lat="43.6867" lon="6.9501">
        <ele>684</ele>
        <time>2011-04-17T09:05:02Z</time>
      </trkpt>
      <trkpt lat="43.68668" lon="6.95016">
        <ele>684</ele>
        <time>2011-04-17T09:05:06Z</time>
      </trkpt>
      <trkpt lat="43.68667" lon="6.95022">
        <ele>683</ele>
        <time>2011-04-17T09:05:09Z</time>
      </trkpt>
      <trkpt lat="43.68666" lon="6.95028">
        <ele>683</ele>
        <time>2011-04-17T09:05:13Z</time>
      </trkpt>
      <trkpt lat="43.68663" lon="6.95034">
        <ele>683</ele>
        <time>2011-04-17T09:05:16Z</time>
      </trkpt>
      <trkpt lat="43.68665" lon="6.95042">
        <ele>682</ele>
        <time>2011-04-17T09:05:20Z</time>
      </trkpt>
      <trkpt lat="43.68667" lon="6.95049">
        <ele>681</ele>
        <time>2011-04-17T09:05:24Z</time>
      </trkpt>
      <trkpt lat="43.68667" lon="6.95056">
        <ele>681</ele>
        <time>2011-04-17T09:05:28Z</time>
      </trkpt>
      <trkpt lat="43.68667" lon="6.95063">
        <ele>681</ele>
        <time>2011-04-17T09:05:31Z</time>
      </trkpt>
      <trkpt lat="43.68668" lon="6.95071">
        <ele>680</ele>
        <time>2011-04-17T09:05:35Z</time>
      </trkpt>
      <trkpt lat="43.68669" lon="6.95078">
        <ele>680</ele>
        <time>2011-04-17T09:05:39Z</time>
      </trkpt>
      <trkpt lat="43.6867" lon="6.95086">
        <ele>680</ele>
        <time>2011-04-17T09:05:43Z</time>
      </trkpt>
      <trkpt lat="43.68672" lon="6.95093">
        <ele>681</ele>
        <time>2011-04-17T09:05:47Z</time>
      </trkpt>
      <trkpt lat="43.68674" lon="6.951">
        <ele>679</ele>
        <time>2011-04-17T09:05:51Z</time>
      </trkpt>
      <trkpt lat="43.68676" lon="6.95107">
        <ele>681</ele>
        <time>2011-04-17T09:05:55Z</time>
      </trkpt>
      <trkpt lat="43.68678" lon="6.95113">
        <ele>680</ele>
        <time>2011-04-17T09:05:59Z</time>
      </trkpt>
      <trkpt lat="43.68681" lon="6.95119">
        <ele>679</ele>
        <time>2011-04-17T09:06:02Z</time>
      </trkpt>
      <trkpt lat="43.68682" lon="6.95126">
        <ele>679</ele>
        <time>2011-04-17T09:06:06Z</time>
      </trkpt>
      <trkpt lat="43.68686" lon="6.95133">
        <ele>679</ele>
        <time>2011-04-17T09:06:10Z</time>
      </trkpt>
      <trkpt lat="43.68687" lon="6.95141">
        <ele>681</ele>
        <time>2011-04-17T09:06:14Z</time>
      </trkpt>
      <trkpt lat="43.6869" lon="6.95148">
        <ele>681</ele>
        <time>2011-04-17T09:06:18Z</time>
      </trkpt>
      <trkpt lat="43.68692" lon="6.95155">
        <ele>679</ele>
        <time>2011-04-17T09:06:22Z</time>
      </trkpt>
      <trkpt lat="43.68694" lon="6.9516">
        <ele>679</ele>
        <time>2011-04-17T09:06:25Z</time>
      </trkpt>
      <trkpt lat="43.68698" lon="6.95166">
        <ele>678</ele>
        <time>2011-04-17T09:06:29Z</time>
      </trkpt>
      <trkpt lat="43.68701" lon="6.95173">
        <ele>678</ele>
        <time>2011-04-17T09:06:33Z</time>
      </trkpt>
      <trkpt lat="43.68705" lon="6.95179">
        <ele>677</ele>
        <time>2011-04-17T09:06:37Z</time>
      </trkpt>
      <trkpt lat="43.68707" lon="6.95185">
        <ele>677</ele>
        <time>2011-04-17T09:06:41Z</time>
      </trkpt>
      <trkpt lat="43.68706" lon="6.95192">
        <ele>677</ele>
        <time>2011-04-17T09:06:44Z</time>
      </trkpt>
      <trkpt lat="43.68707" lon="6.95199">
        <ele>678</ele>
        <time>2011-04-17T09:06:48Z</time>
      </trkpt>
      <trkpt lat="43.68706" lon="6.95206">
        <ele>678</ele>
        <time>2011-04-17T09:06:52Z</time>
      </trkpt>
      <trkpt lat="43.68706" lon="6.95212">
        <ele>680</ele>
        <time>2011-04-17T09:06:56Z</time>
      </trkpt>
      <trkpt lat="43.68706" lon="6.95219">
        <ele>679</ele>
        <time>2011-04-17T09:06:59Z</time>
      </trkpt>
      <trkpt lat="43.68706" lon="6.95226">
        <ele>678</ele>
        <time>2011-04-17T09:07:03Z</time>
      </trkpt>
      <trkpt lat="43.68704" lon="6.95233">
        <ele>678</ele>
        <time>2011-04-17T09:07:06Z</time>
      </trkpt>
      <trkpt lat="43.68703" lon="6.9524">
        <ele>679</ele>
        <time>2011-04-17T09:07:10Z</time>
      </trkpt>
      <trkpt lat="43.68702" lon="6.95248">
        <ele>677</ele>
        <time>2011-04-17T09:07:14Z</time>
      </trkpt>
      <trkpt lat="43.68701" lon="6.95256">
        <ele>675</ele>
        <time>2011-04-17T09:07:18Z</time>
      </trkpt>
      <trkpt lat="43.687" lon="6.95263">
        <ele>674</ele>
        <time>2011-04-17T09:07:22Z</time>
      </trkpt>
      <trkpt lat="43.68699" lon="6.95272">
        <ele>673</ele>
        <time>2011-04-17T09:07:27Z</time>
      </trkpt>
      <trkpt lat="43.68698" lon="6.95278">
        <ele>673</ele>
        <time>2011-04-17T09:07:30Z</time>
      </trkpt>
      <trkpt lat="43.68696" lon="6.95285">
        <ele>672</ele>
        <time>2011-04-17T09:07:34Z</time>
      </trkpt>
      <trkpt lat="43.68695" lon="6.95291">
        <ele>671</ele>
        <time>2011-04-17T09:07:38Z</time>
      </trkpt>
      <trkpt lat="43.68693" lon="6.95297">
        <ele>671</ele>
        <time>2011-04-17T09:07:42Z</time>
      </trkpt>
      <trkpt lat="43.68692" lon="6.95304">
        <ele>672</ele>
        <time>2011-04-17T09:07:45Z</time>
      </trkpt>
      <trkpt lat="43.68691" lon="6.9531">
        <ele>672</ele>
        <time>2011-04-17T09:07:48Z</time>
      </trkpt>
      <trkpt lat="43.6869" lon="6.95316">
        <ele>670</ele>
        <time>2011-04-17T09:07:51Z</time>
      </trkpt>
      <trkpt lat="43.68689" lon="6.95323">
        <ele>671</ele>
        <time>2011-04-17T09:07:54Z</time>
      </trkpt>
      <trkpt lat="43.68689" lon="6.9533">
        <ele>671</ele>
        <time>2011-04-17T09:07:58Z</time>
      </trkpt>
      <trkpt lat="43.68689" lon="6.95337">
        <ele>672</ele>
        <time>2011-04-17T09:08:01Z</time>
      </trkpt>
      <trkpt lat="43.68689" lon="6.95344">
        <ele>672</ele>
        <time>2011-04-17T09:08:05Z</time>
      </trkpt>
      <trkpt lat="43.6869" lon="6.95351">
        <ele>673</ele>
        <time>2011-04-17T09:08:09Z</time>
      </trkpt>
      <trkpt lat="43.68691" lon="6.95357">
        <ele>672</ele>
        <time>2011-04-17T09:08:12Z</time>
      </trkpt>
      <trkpt lat="43.68695" lon="6.95364">
        <ele>670</ele>
        <time>2011-04-17T09:08:16Z</time>
      </trkpt>
      <trkpt lat="43.68698" lon="6.95371">
        <ele>671</ele>
        <time>2011-04-17T09:08:20Z</time>
      </trkpt>
      <trkpt lat="43.68701" lon="6.95377">
        <ele>671</ele>
        <time>2011-04-17T09:08:24Z</time>
      </trkpt>
      <trkpt lat="43.68703" lon="6.95384">
        <ele>668</ele>
        <time>2011-04-17T09:08:29Z</time>
      </trkpt>
      <trkpt lat="43.68707" lon="6.9539">
        <ele>669</ele>
        <time>2011-04-17T09:08:33Z</time>
      </trkpt>
      <trkpt lat="43.68711" lon="6.95396">
        <ele>666</ele>
        <time>2011-04-17T09:08:37Z</time>
      </trkpt>
      <trkpt lat="43.68714" lon="6.95403">
        <ele>666</ele>
        <time>2011-04-17T09:08:40Z</time>
      </trkpt>
      <trkpt lat="43.68716" lon="6.95409">
        <ele>667</ele>
        <time>2011-04-17T09:08:44Z</time>
      </trkpt>
      <trkpt lat="43.68719" lon="6.95417">
        <ele>668</ele>
        <time>2011-04-17T09:08:49Z</time>
      </trkpt>
      <trkpt lat="43.68719" lon="6.95417">
        <ele>668</ele>
        <time>2011-04-17T09:08:49Z</time>
      </trkpt>
      <trkpt lat="43.68719" lon="6.95417">
        <ele>669</ele>
        <time>2011-04-17T09:08:50Z</time>
      </trkpt>
      <trkpt lat="43.6872" lon="6.95423">
        <ele>670</ele>
        <time>2011-04-17T09:08:55Z</time>
      </trkpt>
      <trkpt lat="43.68721" lon="6.9543">
        <ele>671</ele>
        <time>2011-04-17T09:08:59Z</time>
      </trkpt>
      <trkpt lat="43.68723" lon="6.95436">
        <ele>674</ele>
        <time>2011-04-17T09:09:38Z</time>
      </trkpt>
      <trkpt lat="43.68725" lon="6.95443">
        <ele>673</ele>
        <time>2011-04-17T09:09:42Z</time>
      </trkpt>
      <trkpt lat="43.68724" lon="6.9545">
        <ele>672</ele>
        <time>2011-04-17T09:09:45Z</time>
      </trkpt>
      <trkpt lat="43.68724" lon="6.95456">
        <ele>673</ele>
        <time>2011-04-17T09:09:48Z</time>
      </trkpt>
      <trkpt lat="43.68726" lon="6.95464">
        <ele>673</ele>
        <time>2011-04-17T09:09:51Z</time>
      </trkpt>
      <trkpt lat="43.68731" lon="6.95466">
        <ele>671</ele>
        <time>2011-04-17T09:09:54Z</time>
      </trkpt>
      <trkpt lat="43.68734" lon="6.95472">
        <ele>669</ele>
        <time>2011-04-17T09:09:58Z</time>
      </trkpt>
      <trkpt lat="43.68735" lon="6.95478">
        <ele>669</ele>
        <time>2011-04-17T09:10:01Z</time>
      </trkpt>
      <trkpt lat="43.68738" lon="6.95484">
        <ele>668</ele>
        <time>2011-04-17T09:10:04Z</time>
      </trkpt>
      <trkpt lat="43.68742" lon="6.9549">
        <ele>668</ele>
        <time>2011-04-17T09:10:08Z</time>
      </trkpt>
      <trkpt lat="43.68745" lon="6.95496">
        <ele>667</ele>
        <time>2011-04-17T09:10:11Z</time>
      </trkpt>
      <trkpt lat="43.68747" lon="6.95502">
        <ele>666</ele>
        <time>2011-04-17T09:10:15Z</time>
      </trkpt>
      <trkpt lat="43.6875" lon="6.95506">
        <ele>666</ele>
        <time>2011-04-17T09:10:18Z</time>
      </trkpt>
      <trkpt lat="43.68755" lon="6.95512">
        <ele>665</ele>
        <time>2011-04-17T09:10:22Z</time>
      </trkpt>
      <trkpt lat="43.68757" lon="6.95518">
        <ele>665</ele>
        <time>2011-04-17T09:10:26Z</time>
      </trkpt>
      <trkpt lat="43.6876" lon="6.95522">
        <ele>665</ele>
        <time>2011-04-17T09:10:29Z</time>
      </trkpt>
      <trkpt lat="43.68765" lon="6.95527">
        <ele>665</ele>
        <time>2011-04-17T09:10:33Z</time>
      </trkpt>
      <trkpt lat="43.6877" lon="6.9553">
        <ele>664</ele>
        <time>2011-04-17T09:10:36Z</time>
      </trkpt>
      <trkpt lat="43.68775" lon="6.95534">
        <ele>664</ele>
        <time>2011-04-17T09:10:40Z</time>
      </trkpt>
      <trkpt lat="43.68779" lon="6.95538">
        <ele>663</ele>
        <time>2011-04-17T09:10:43Z</time>
      </trkpt>
      <trkpt lat="43.68782" lon="6.95544">
        <ele>664</ele>
        <time>2011-04-17T09:10:47Z</time>
      </trkpt>
      <trkpt lat="43.6878" lon="6.95552">
        <ele>665</ele>
        <time>2011-04-17T09:10:51Z</time>
      </trkpt>
      <trkpt lat="43.68778" lon="6.95559">
        <ele>664</ele>
        <time>2011-04-17T09:10:56Z</time>
      </trkpt>
      <trkpt lat="43.68774" lon="6.95564">
        <ele>662</ele>
        <time>2011-04-17T09:10:59Z</time>
      </trkpt>
      <trkpt lat="43.68771" lon="6.9557">
        <ele>659</ele>
        <time>2011-04-17T09:11:03Z</time>
      </trkpt>
      <trkpt lat="43.68771" lon="6.95577">
        <ele>658</ele>
        <time>2011-04-17T09:11:07Z</time>
      </trkpt>
      <trkpt lat="43.68769" lon="6.95583">
        <ele>656</ele>
        <time>2011-04-17T09:11:10Z</time>
      </trkpt>
      <trkpt lat="43.68768" lon="6.95591">
        <ele>657</ele>
        <time>2011-04-17T09:11:15Z</time>
      </trkpt>
      <trkpt lat="43.68768" lon="6.95599">
        <ele>658</ele>
        <time>2011-04-17T09:11:20Z</time>
      </trkpt>
      <trkpt lat="43.68768" lon="6.95606">
        <ele>658</ele>
        <time>2011-04-17T09:11:24Z</time>
      </trkpt>
      <trkpt lat="43.68768" lon="6.95614">
        <ele>658</ele>
        <time>2011-04-17T09:11:28Z</time>
      </trkpt>
      <trkpt lat="43.6877" lon="6.9562">
        <ele>660</ele>
        <time>2011-04-17T09:11:33Z</time>
      </trkpt>
      <trkpt lat="43.68772" lon="6.95627">
        <ele>661</ele>
        <time>2011-04-17T09:11:37Z</time>
      </trkpt>
      <trkpt lat="43.68772" lon="6.95633">
        <ele>661</ele>
        <time>2011-04-17T09:11:41Z</time>
      </trkpt>
      <trkpt lat="43.68776" lon="6.95637">
        <ele>661</ele>
        <time>2011-04-17T09:11:44Z</time>
      </trkpt>
      <trkpt lat="43.68779" lon="6.95645">
        <ele>661</ele>
        <time>2011-04-17T09:11:48Z</time>
      </trkpt>
      <trkpt lat="43.68779" lon="6.95651">
        <ele>661</ele>
        <time>2011-04-17T09:11:52Z</time>
      </trkpt>
      <trkpt lat="43.68779" lon="6.95658">
        <ele>661</ele>
        <time>2011-04-17T09:11:56Z</time>
      </trkpt>
      <trkpt lat="43.68785" lon="6.95661">
        <ele>663</ele>
        <time>2011-04-17T09:12:00Z</time>
      </trkpt>
      <trkpt lat="43.68785" lon="6.95661">
        <ele>663</ele>
        <time>2011-04-17T09:12:00Z</time>
      </trkpt>
      <trkpt lat="43.68785" lon="6.95661">
        <ele>664</ele>
        <time>2011-04-17T09:12:05Z</time>
      </trkpt>
      <trkpt lat="43.68783" lon="6.95668">
        <ele>663</ele>
        <time>2011-04-17T09:12:22Z</time>
      </trkpt>
      <trkpt lat="43.68784" lon="6.95674">
        <ele>663</ele>
        <time>2011-04-17T09:12:26Z</time>
      </trkpt>
      <trkpt lat="43.68782" lon="6.9568">
        <ele>663</ele>
        <time>2011-04-17T09:12:29Z</time>
      </trkpt>
      <trkpt lat="43.68784" lon="6.95687">
        <ele>660</ele>
        <time>2011-04-17T09:12:34Z</time>
      </trkpt>
      <trkpt lat="43.68782" lon="6.95695">
        <ele>660</ele>
        <time>2011-04-17T09:12:38Z</time>
      </trkpt>
      <trkpt lat="43.68784" lon="6.95701">
        <ele>660</ele>
        <time>2011-04-17T09:12:41Z</time>
      </trkpt>
      <trkpt lat="43.68783" lon="6.95708">
        <ele>660</ele>
        <time>2011-04-17T09:12:45Z</time>
      </trkpt>
      <trkpt lat="43.68784" lon="6.95716">
        <ele>659</ele>
        <time>2011-04-17T09:12:49Z</time>
      </trkpt>
      <trkpt lat="43.68787" lon="6.95724">
        <ele>659</ele>
        <time>2011-04-17T09:12:54Z</time>
      </trkpt>
      <trkpt lat="43.68789" lon="6.9573">
        <ele>659</ele>
        <time>2011-04-17T09:12:58Z</time>
      </trkpt>
      <trkpt lat="43.68789" lon="6.95736">
        <ele>658</ele>
        <time>2011-04-17T09:13:01Z</time>
      </trkpt>
      <trkpt lat="43.68789" lon="6.95742">
        <ele>659</ele>
        <time>2011-04-17T09:13:05Z</time>
      </trkpt>
      <trkpt lat="43.6879" lon="6.9575">
        <ele>661</ele>
        <time>2011-04-17T09:13:09Z</time>
      </trkpt>
      <trkpt lat="43.6879" lon="6.95757">
        <ele>659</ele>
        <time>2011-04-17T09:13:13Z</time>
      </trkpt>
      <trkpt lat="43.68792" lon="6.95763">
        <ele>656</ele>
        <time>2011-04-17T09:13:18Z</time>
      </trkpt>
      <trkpt lat="43.68791" lon="6.9577">
        <ele>656</ele>
        <time>2011-04-17T09:13:22Z</time>
      </trkpt>
      <trkpt lat="43.68787" lon="6.95775">
        <ele>654</ele>
        <time>2011-04-17T09:13:40Z</time>
      </trkpt>
      <trkpt lat="43.68786" lon="6.95782">
        <ele>654</ele>
        <time>2011-04-17T09:13:45Z</time>
      </trkpt>
      <trkpt lat="43.68785" lon="6.95789">
        <ele>653</ele>
        <time>2011-04-17T09:14:07Z</time>
      </trkpt>
      <trkpt lat="43.68784" lon="6.95796">
        <ele>653</ele>
        <time>2011-04-17T09:14:10Z</time>
      </trkpt>
      <trkpt lat="43.68785" lon="6.95802">
        <ele>652</ele>
        <time>2011-04-17T09:14:13Z</time>
      </trkpt>
      <trkpt lat="43.68784" lon="6.95809">
        <ele>654</ele>
        <time>2011-04-17T09:14:17Z</time>
      </trkpt>
      <trkpt lat="43.68782" lon="6.95817">
        <ele>655</ele>
        <time>2011-04-17T09:14:23Z</time>
      </trkpt>
      <trkpt lat="43.6878" lon="6.95823">
        <ele>656</ele>
        <time>2011-04-17T09:14:27Z</time>
      </trkpt>
      <trkpt lat="43.68777" lon="6.95829">
        <ele>655</ele>
        <time>2011-04-17T09:14:33Z</time>
      </trkpt>
      <trkpt lat="43.68777" lon="6.95836">
        <ele>656</ele>
        <time>2011-04-17T09:14:37Z</time>
      </trkpt>
      <trkpt lat="43.68776" lon="6.95843">
        <ele>654</ele>
        <time>2011-04-17T09:14:41Z</time>
      </trkpt>
      <trkpt lat="43.68774" lon="6.95852">
        <ele>653</ele>
        <time>2011-04-17T09:14:45Z</time>
      </trkpt>
      <trkpt lat="43.6877" lon="6.95857">
        <ele>653</ele>
        <time>2011-04-17T09:14:49Z</time>
      </trkpt>
      <trkpt lat="43.68766" lon="6.95863">
        <ele>654</ele>
        <time>2011-04-17T09:14:55Z</time>
      </trkpt>
      <trkpt lat="43.68764" lon="6.9587">
        <ele>655</ele>
        <time>2011-04-17T09:15:01Z</time>
      </trkpt>
      <trkpt lat="43.68762" lon="6.95876">
        <ele>654</ele>
        <time>2011-04-17T09:15:04Z</time>
      </trkpt>
      <trkpt lat="43.68762" lon="6.95882">
        <ele>653</ele>
        <time>2011-04-17T09:15:08Z</time>
      </trkpt>
      <trkpt lat="43.68757" lon="6.95887">
        <ele>653</ele>
        <time>2011-04-17T09:15:12Z</time>
      </trkpt>
      <trkpt lat="43.68753" lon="6.95893">
        <ele>652</ele>
        <time>2011-04-17T09:15:16Z</time>
      </trkpt>
      <trkpt lat="43.68749" lon="6.95898">
        <ele>650</ele>
        <time>2011-04-17T09:15:23Z</time>
      </trkpt>
      <trkpt lat="43.68746" lon="6.95904">
        <ele>651</ele>
        <time>2011-04-17T09:15:27Z</time>
      </trkpt>
      <trkpt lat="43.68742" lon="6.95909">
        <ele>650</ele>
        <time>2011-04-17T09:15:30Z</time>
      </trkpt>
      <trkpt lat="43.68738" lon="6.95915">
        <ele>648</ele>
        <time>2011-04-17T09:15:34Z</time>
      </trkpt>
      <trkpt lat="43.68736" lon="6.95922">
        <ele>649</ele>
        <time>2011-04-17T09:15:38Z</time>
      </trkpt>
      <trkpt lat="43.68733" lon="6.95926">
        <ele>649</ele>
        <time>2011-04-17T09:15:42Z</time>
      </trkpt>
      <trkpt lat="43.68732" lon="6.95932">
        <ele>649</ele>
        <time>2011-04-17T09:15:45Z</time>
      </trkpt>
      <trkpt lat="43.68732" lon="6.95939">
        <ele>648</ele>
        <time>2011-04-17T09:15:48Z</time>
      </trkpt>
      <trkpt lat="43.68727" lon="6.95942">
        <ele>647</ele>
        <time>2011-04-17T09:15:54Z</time>
      </trkpt>
      <trkpt lat="43.68722" lon="6.95944">
        <ele>647</ele>
        <time>2011-04-17T09:15:58Z</time>
      </trkpt>
      <trkpt lat="43.68716" lon="6.95945">
        <ele>646</ele>
        <time>2011-04-17T09:16:04Z</time>
      </trkpt>
      <trkpt lat="43.6871" lon="6.95945">
        <ele>645</ele>
        <time>2011-04-17T09:16:06Z</time>
      </trkpt>
      <trkpt lat="43.68705" lon="6.95946">
        <ele>645</ele>
        <time>2011-04-17T09:16:10Z</time>
      </trkpt>
      <trkpt lat="43.687" lon="6.9595">
        <ele>645</ele>
        <time>2011-04-17T09:16:15Z</time>
      </trkpt>
      <trkpt lat="43.68695" lon="6.95952">
        <ele>645</ele>
        <time>2011-04-17T09:16:19Z</time>
      </trkpt>
      <trkpt lat="43.68689" lon="6.95954">
        <ele>645</ele>
        <time>2011-04-17T09:16:23Z</time>
      </trkpt>
      <trkpt lat="43.68685" lon="6.95956">
        <ele>644</ele>
        <time>2011-04-17T09:16:27Z</time>
      </trkpt>
      <trkpt lat="43.68681" lon="6.9596">
        <ele>643</ele>
        <time>2011-04-17T09:16:31Z</time>
      </trkpt>
      <trkpt lat="43.68676" lon="6.95963">
        <ele>645</ele>
        <time>2011-04-17T09:16:35Z</time>
      </trkpt>
      <trkpt lat="43.68672" lon="6.95967">
        <ele>644</ele>
        <time>2011-04-17T09:16:39Z</time>
      </trkpt>
      <trkpt lat="43.68666" lon="6.95968">
        <ele>644</ele>
        <time>2011-04-17T09:16:44Z</time>
      </trkpt>
      <trkpt lat="43.6866" lon="6.95967">
        <ele>644</ele>
        <time>2011-04-17T09:16:53Z</time>
      </trkpt>
      <trkpt lat="43.68655" lon="6.95967">
        <ele>643</ele>
        <time>2011-04-17T09:16:56Z</time>
      </trkpt>
      <trkpt lat="43.6865" lon="6.95966">
        <ele>643</ele>
        <time>2011-04-17T09:17:00Z</time>
      </trkpt>
      <trkpt lat="43.68645" lon="6.95964">
        <ele>643</ele>
        <time>2011-04-17T09:17:04Z</time>
      </trkpt>
      <trkpt lat="43.6864" lon="6.95962">
        <ele>644</ele>
        <time>2011-04-17T09:17:09Z</time>
      </trkpt>
      <trkpt lat="43.68633" lon="6.95959">
        <ele>643</ele>
        <time>2011-04-17T09:17:13Z</time>
      </trkpt>
      <trkpt lat="43.68629" lon="6.95958">
        <ele>644</ele>
        <time>2011-04-17T09:17:16Z</time>
      </trkpt>
      <trkpt lat="43.68623" lon="6.95957">
        <ele>644</ele>
        <time>2011-04-17T09:17:21Z</time>
      </trkpt>
      <trkpt lat="43.68618" lon="6.95958">
        <ele>644</ele>
        <time>2011-04-17T09:17:23Z</time>
      </trkpt>
      <trkpt lat="43.68613" lon="6.9596">
        <ele>644</ele>
        <time>2011-04-17T09:17:26Z</time>
      </trkpt>
      <trkpt lat="43.68609" lon="6.95956">
        <ele>644</ele>
        <time>2011-04-17T09:17:29Z</time>
      </trkpt>
      <trkpt lat="43.68605" lon="6.95953">
        <ele>645</ele>
        <time>2011-04-17T09:17:31Z</time>
      </trkpt>
      <trkpt lat="43.686" lon="6.95948">
        <ele>646</ele>
        <time>2011-04-17T09:17:34Z</time>
      </trkpt>
      <trkpt lat="43.68598" lon="6.95942">
        <ele>644</ele>
        <time>2011-04-17T09:17:39Z</time>
      </trkpt>
      <trkpt lat="43.68597" lon="6.95935">
        <ele>644</ele>
        <time>2011-04-17T09:17:44Z</time>
      </trkpt>
      <trkpt lat="43.68595" lon="6.95928">
        <ele>644</ele>
        <time>2011-04-17T09:17:50Z</time>
      </trkpt>
      <trkpt lat="43.68591" lon="6.95922">
        <ele>644</ele>
        <time>2011-04-17T09:17:55Z</time>
      </trkpt>
      <trkpt lat="43.68593" lon="6.95916">
        <ele>642</ele>
        <time>2011-04-17T09:18:00Z</time>
      </trkpt>
      <trkpt lat="43.68588" lon="6.95917">
        <ele>637</ele>
        <time>2011-04-17T09:18:09Z</time>
      </trkpt>
      <trkpt lat="43.68585" lon="6.95923">
        <ele>636</ele>
        <time>2011-04-17T09:18:13Z</time>
      </trkpt>
      <trkpt lat="43.68582" lon="6.95928">
        <ele>635</ele>
        <time>2011-04-17T09:18:21Z</time>
      </trkpt>
      <trkpt lat="43.68585" lon="6.95934">
        <ele>635</ele>
        <time>2011-04-17T09:18:25Z</time>
      </trkpt>
      <trkpt lat="43.68583" lon="6.95928">
        <ele>635</ele>
        <time>2011-04-17T09:18:33Z</time>
      </trkpt>
      <trkpt lat="43.68582" lon="6.95921">
        <ele>634</ele>
        <time>2011-04-17T09:18:38Z</time>
      </trkpt>
      <trkpt lat="43.68582" lon="6.95914">
        <ele>633</ele>
        <time>2011-04-17T09:18:43Z</time>
      </trkpt>
      <trkpt lat="43.68581" lon="6.95908">
        <ele>632</ele>
        <time>2011-04-17T09:18:47Z</time>
      </trkpt>
      <trkpt lat="43.68579" lon="6.95901">
        <ele>631</ele>
        <time>2011-04-17T09:18:56Z</time>
      </trkpt>
      <trkpt lat="43.68582" lon="6.95895">
        <ele>631</ele>
        <time>2011-04-17T09:19:02Z</time>
      </trkpt>
      <trkpt lat="43.68585" lon="6.95888">
        <ele>629</ele>
        <time>2011-04-17T09:19:06Z</time>
      </trkpt>
      <trkpt lat="43.68588" lon="6.95881">
        <ele>628</ele>
        <time>2011-04-17T09:19:10Z</time>
      </trkpt>
      <trkpt lat="43.68589" lon="6.95876">
        <ele>626</ele>
        <time>2011-04-17T09:19:16Z</time>
      </trkpt>
      <trkpt lat="43.68592" lon="6.9587">
        <ele>626</ele>
        <time>2011-04-17T09:19:21Z</time>
      </trkpt>
      <trkpt lat="43.68591" lon="6.95863">
        <ele>625</ele>
        <time>2011-04-17T09:19:25Z</time>
      </trkpt>
      <trkpt lat="43.68594" lon="6.95857">
        <ele>626</ele>
        <time>2011-04-17T09:19:31Z</time>
      </trkpt>
      <trkpt lat="43.68592" lon="6.95851">
        <ele>625</ele>
        <time>2011-04-17T09:19:35Z</time>
      </trkpt>
      <trkpt lat="43.68594" lon="6.95844">
        <ele>624</ele>
        <time>2011-04-17T09:19:39Z</time>
      </trkpt>
      <trkpt lat="43.68595" lon="6.95838">
        <ele>623</ele>
        <time>2011-04-17T09:19:44Z</time>
      </trkpt>
      <trkpt lat="43.68598" lon="6.95831">
        <ele>621</ele>
        <time>2011-04-17T09:19:51Z</time>
      </trkpt>
      <trkpt lat="43.686" lon="6.95824">
        <ele>619</ele>
        <time>2011-04-17T09:19:55Z</time>
      </trkpt>
      <trkpt lat="43.68599" lon="6.95818">
        <ele>620</ele>
        <time>2011-04-17T09:19:59Z</time>
      </trkpt>
      <trkpt lat="43.68601" lon="6.95812">
        <ele>620</ele>
        <time>2011-04-17T09:20:05Z</time>
      </trkpt>
      <trkpt lat="43.68604" lon="6.95806">
        <ele>620</ele>
        <time>2011-04-17T09:20:09Z</time>
      </trkpt>
      <trkpt lat="43.68607" lon="6.958">
        <ele>619</ele>
        <time>2011-04-17T09:20:13Z</time>
      </trkpt>
      <trkpt lat="43.68612" lon="6.95799">
        <ele>616</ele>
        <time>2011-04-17T09:20:17Z</time>
      </trkpt>
      <trkpt lat="43.68615" lon="6.95793">
        <ele>616</ele>
        <time>2011-04-17T09:20:22Z</time>
      </trkpt>
      <trkpt lat="43.68616" lon="6.95785">
        <ele>616</ele>
        <time>2011-04-17T09:20:27Z</time>
      </trkpt>
      <trkpt lat="43.68619" lon="6.9578">
        <ele>616</ele>
        <time>2011-04-17T09:20:30Z</time>
      </trkpt>
      <trkpt lat="43.68622" lon="6.95774">
        <ele>616</ele>
        <time>2011-04-17T09:20:35Z</time>
      </trkpt>
      <trkpt lat="43.68623" lon="6.95766">
        <ele>615</ele>
        <time>2011-04-17T09:20:40Z</time>
      </trkpt>
      <trkpt lat="43.68625" lon="6.95758">
        <ele>614</ele>
        <time>2011-04-17T09:20:45Z</time>
      </trkpt>
      <trkpt lat="43.68628" lon="6.95752">
        <ele>615</ele>
        <time>2011-04-17T09:20:51Z</time>
      </trkpt>
      <trkpt lat="43.68628" lon="6.95745">
        <ele>614</ele>
        <time>2011-04-17T09:20:55Z</time>
      </trkpt>
      <trkpt lat="43.6863" lon="6.95739">
        <ele>609</ele>
        <time>2011-04-17T09:21:00Z</time>
      </trkpt>
      <trkpt lat="43.68629" lon="6.95733">
        <ele>609</ele>
        <time>2011-04-17T09:21:03Z</time>
      </trkpt>
      <trkpt lat="43.68631" lon="6.95727">
        <ele>609</ele>
        <time>2011-04-17T09:21:06Z</time>
      </trkpt>
      <trkpt lat="43.68632" lon="6.95722">
        <ele>609</ele>
        <time>2011-04-17T09:21:11Z</time>
      </trkpt>
      <trkpt lat="43.68634" lon="6.95715">
        <ele>608</ele>
        <time>2011-04-17T09:21:16Z</time>
      </trkpt>
      <trkpt lat="43.68635" lon="6.95708">
        <ele>608</ele>
        <time>2011-04-17T09:21:21Z</time>
      </trkpt>
      <trkpt lat="43.68633" lon="6.957">
        <ele>608</ele>
        <time>2011-04-17T09:21:25Z</time>
      </trkpt>
      <trkpt lat="43.68636" lon="6.95694">
        <ele>606</ele>
        <time>2011-04-17T09:21:31Z</time>
      </trkpt>
      <trkpt lat="43.68634" lon="6.95687">
        <ele>605</ele>
        <time>2011-04-17T09:21:35Z</time>
      </trkpt>
      <trkpt lat="43.6863" lon="6.95681">
        <ele>604</ele>
        <time>2011-04-17T09:21:40Z</time>
      </trkpt>
      <trkpt lat="43.68625" lon="6.95676">
        <ele>604</ele>
        <time>2011-04-17T09:21:45Z</time>
      </trkpt>
      <trkpt lat="43.68622" lon="6.95668">
        <ele>603</ele>
        <time>2011-04-17T09:21:50Z</time>
      </trkpt>
      <trkpt lat="43.68619" lon="6.95662">
        <ele>603</ele>
        <time>2011-04-17T09:21:57Z</time>
      </trkpt>
      <trkpt lat="43.68614" lon="6.95661">
        <ele>603</ele>
        <time>2011-04-17T09:22:03Z</time>
      </trkpt>
      <trkpt lat="43.68609" lon="6.95658">
        <ele>602</ele>
        <time>2011-04-17T09:22:08Z</time>
      </trkpt>
      <trkpt lat="43.68604" lon="6.95658">
        <ele>600</ele>
        <time>2011-04-17T09:22:12Z</time>
      </trkpt>
      <trkpt lat="43.686" lon="6.95654">
        <ele>597</ele>
        <time>2011-04-17T09:22:16Z</time>
      </trkpt>
      <trkpt lat="43.68595" lon="6.95648">
        <ele>594</ele>
        <time>2011-04-17T09:22:21Z</time>
      </trkpt>
      <trkpt lat="43.68594" lon="6.95642">
        <ele>593</ele>
        <time>2011-04-17T09:22:25Z</time>
      </trkpt>
      <trkpt lat="43.6859" lon="6.95637">
        <ele>593</ele>
        <time>2011-04-17T09:22:29Z</time>
      </trkpt>
      <trkpt lat="43.68588" lon="6.95631">
        <ele>592</ele>
        <time>2011-04-17T09:22:33Z</time>
      </trkpt>
      <trkpt lat="43.68587" lon="6.95625">
        <ele>593</ele>
        <time>2011-04-17T09:22:36Z</time>
      </trkpt>
      <trkpt lat="43.68582" lon="6.9562">
        <ele>592</ele>
        <time>2011-04-17T09:22:40Z</time>
      </trkpt>
      <trkpt lat="43.6858" lon="6.95614">
        <ele>591</ele>
        <time>2011-04-17T09:22:45Z</time>
      </trkpt>
      <trkpt lat="43.68575" lon="6.95613">
        <ele>590</ele>
        <time>2011-04-17T09:22:50Z</time>
      </trkpt>
      <trkpt lat="43.68571" lon="6.95609">
        <ele>589</ele>
        <time>2011-04-17T09:22:55Z</time>
      </trkpt>
      <trkpt lat="43.68565" lon="6.95605">
        <ele>588</ele>
        <time>2011-04-17T09:22:59Z</time>
      </trkpt>
      <trkpt lat="43.68562" lon="6.95601">
        <ele>587</ele>
        <time>2011-04-17T09:23:02Z</time>
      </trkpt>
      <trkpt lat="43.68558" lon="6.95595">
        <ele>587</ele>
        <time>2011-04-17T09:23:06Z</time>
      </trkpt>
      <trkpt lat="43.68558" lon="6.95595">
        <ele>587</ele>
        <time>2011-04-17T09:23:06Z</time>
      </trkpt>
      <trkpt lat="43.68558" lon="6.95595">
        <ele>584</ele>
        <time>2011-04-17T09:23:25Z</time>
      </trkpt>
      <trkpt lat="43.68554" lon="6.95592">
        <ele>585</ele>
        <time>2011-04-17T09:23:49Z</time>
      </trkpt>
      <trkpt lat="43.68552" lon="6.95586">
        <ele>584</ele>
        <time>2011-04-17T09:23:54Z</time>
      </trkpt>
      <trkpt lat="43.68549" lon="6.9558">
        <ele>582</ele>
        <time>2011-04-17T09:23:59Z</time>
      </trkpt>
      <trkpt lat="43.68545" lon="6.95574">
        <ele>582</ele>
        <time>2011-04-17T09:24:03Z</time>
      </trkpt>
      <trkpt lat="43.6854" lon="6.9557">
        <ele>582</ele>
        <time>2011-04-17T09:24:07Z</time>
      </trkpt>
      <trkpt lat="43.68537" lon="6.95564">
        <ele>580</ele>
        <time>2011-04-17T09:24:10Z</time>
      </trkpt>
      <trkpt lat="43.68534" lon="6.95557">
        <ele>580</ele>
        <time>2011-04-17T09:24:13Z</time>
      </trkpt>
      <trkpt lat="43.68532" lon="6.9555">
        <ele>578</ele>
        <time>2011-04-17T09:24:18Z</time>
      </trkpt>
      <trkpt lat="43.68531" lon="6.95544">
        <ele>576</ele>
        <time>2011-04-17T09:24:24Z</time>
      </trkpt>
      <trkpt lat="43.68527" lon="6.95538">
        <ele>576</ele>
        <time>2011-04-17T09:24:29Z</time>
      </trkpt>
      <trkpt lat="43.68522" lon="6.95535">
        <ele>574</ele>
        <time>2011-04-17T09:24:32Z</time>
      </trkpt>
      <trkpt lat="43.68518" lon="6.95529">
        <ele>573</ele>
        <time>2011-04-17T09:24:35Z</time>
      </trkpt>
      <trkpt lat="43.68515" lon="6.95522">
        <ele>572</ele>
        <time>2011-04-17T09:24:39Z</time>
      </trkpt>
      <trkpt lat="43.68512" lon="6.95516">
        <ele>571</ele>
        <time>2011-04-17T09:24:44Z</time>
      </trkpt>
      <trkpt lat="43.68508" lon="6.95511">
        <ele>571</ele>
        <time>2011-04-17T09:24:46Z</time>
      </trkpt>
      <trkpt lat="43.68505" lon="6.95505">
        <ele>571</ele>
        <time>2011-04-17T09:24:50Z</time>
      </trkpt>
      <trkpt lat="43.68506" lon="6.95498">
        <ele>569</ele>
        <time>2011-04-17T09:24:54Z</time>
      </trkpt>
      <trkpt lat="43.68503" lon="6.95492">
        <ele>568</ele>
        <time>2011-04-17T09:24:57Z</time>
      </trkpt>
      <trkpt lat="43.685" lon="6.95486">
        <ele>567</ele>
        <time>2011-04-17T09:25:07Z</time>
      </trkpt>
      <trkpt lat="43.685" lon="6.95478">
        <ele>567</ele>
        <time>2011-04-17T09:25:11Z</time>
      </trkpt>
      <trkpt lat="43.68497" lon="6.95473">
        <ele>566</ele>
        <time>2011-04-17T09:25:14Z</time>
      </trkpt>
      <trkpt lat="43.68493" lon="6.95468">
        <ele>565</ele>
        <time>2011-04-17T09:25:17Z</time>
      </trkpt>
      <trkpt lat="43.6849" lon="6.95462">
        <ele>564</ele>
        <time>2011-04-17T09:25:21Z</time>
      </trkpt>
      <trkpt lat="43.68485" lon="6.95459">
        <ele>563</ele>
        <time>2011-04-17T09:25:26Z</time>
      </trkpt>
      <trkpt lat="43.6848" lon="6.95455">
        <ele>562</ele>
        <time>2011-04-17T09:25:29Z</time>
      </trkpt>
      <trkpt lat="43.68476" lon="6.95451">
        <ele>561</ele>
        <time>2011-04-17T09:25:34Z</time>
      </trkpt>
      <trkpt lat="43.68472" lon="6.95447">
        <ele>559</ele>
        <time>2011-04-17T09:25:37Z</time>
      </trkpt>
      <trkpt lat="43.6847" lon="6.95441">
        <ele>558</ele>
        <time>2011-04-17T09:25:40Z</time>
      </trkpt>
      <trkpt lat="43.68467" lon="6.95434">
        <ele>557</ele>
        <time>2011-04-17T09:25:44Z</time>
      </trkpt>
      <trkpt lat="43.68462" lon="6.95428">
        <ele>555</ele>
        <time>2011-04-17T09:25:49Z</time>
      </trkpt>
      <trkpt lat="43.6846" lon="6.95421">
        <ele>554</ele>
        <time>2011-04-17T09:25:53Z</time>
      </trkpt>
      <trkpt lat="43.68458" lon="6.95414">
        <ele>554</ele>
        <time>2011-04-17T09:25:57Z</time>
      </trkpt>
      <trkpt lat="43.68454" lon="6.95409">
        <ele>552</ele>
        <time>2011-04-17T09:26:00Z</time>
      </trkpt>
      <trkpt lat="43.68451" lon="6.95404">
        <ele>551</ele>
        <time>2011-04-17T09:26:04Z</time>
      </trkpt>
      <trkpt lat="43.68448" lon="6.95399">
        <ele>550</ele>
        <time>2011-04-17T09:26:08Z</time>
      </trkpt>
      <trkpt lat="43.68446" lon="6.95392">
        <ele>548</ele>
        <time>2011-04-17T09:26:12Z</time>
      </trkpt>
      <trkpt lat="43.68442" lon="6.95387">
        <ele>548</ele>
        <time>2011-04-17T09:26:15Z</time>
      </trkpt>
      <trkpt lat="43.68438" lon="6.9538">
        <ele>549</ele>
        <time>2011-04-17T09:26:19Z</time>
      </trkpt>
      <trkpt lat="43.68436" lon="6.95373">
        <ele>547</ele>
        <time>2011-04-17T09:26:23Z</time>
      </trkpt>
      <trkpt lat="43.68434" lon="6.95365">
        <ele>546</ele>
        <time>2011-04-17T09:26:27Z</time>
      </trkpt>
      <trkpt lat="43.68436" lon="6.95359">
        <ele>544</ele>
        <time>2011-04-17T09:26:32Z</time>
      </trkpt>
      <trkpt lat="43.68438" lon="6.95351">
        <ele>543</ele>
        <time>2011-04-17T09:26:37Z</time>
      </trkpt>
      <trkpt lat="43.68441" lon="6.95346">
        <ele>542</ele>
        <time>2011-04-17T09:26:41Z</time>
      </trkpt>
      <trkpt lat="43.68441" lon="6.95346">
        <ele>542</ele>
        <time>2011-04-17T09:26:41Z</time>
      </trkpt>
      <trkpt lat="43.68441" lon="6.95346">
        <ele>542</ele>
        <time>2011-04-17T09:26:48Z</time>
      </trkpt>
      <trkpt lat="43.68436" lon="6.95343">
        <ele>543</ele>
        <time>2011-04-17T09:38:15Z</time>
      </trkpt>
      <trkpt lat="43.68431" lon="6.9534">
        <ele>545</ele>
        <time>2011-04-17T09:38:21Z</time>
      </trkpt>
      <trkpt lat="43.68427" lon="6.95338">
        <ele>544</ele>
        <time>2011-04-17T09:38:28Z</time>
      </trkpt>
      <trkpt lat="43.68427" lon="6.95332">
        <ele>542</ele>
        <time>2011-04-17T09:39:03Z</time>
      </trkpt>
      <trkpt lat="43.68424" lon="6.95326">
        <ele>542</ele>
        <time>2011-04-17T09:39:07Z</time>
      </trkpt>
      <trkpt lat="43.68422" lon="6.9532">
        <ele>543</ele>
        <time>2011-04-17T09:39:13Z</time>
      </trkpt>
      <trkpt lat="43.68419" lon="6.95315">
        <ele>542</ele>
        <time>2011-04-17T09:39:17Z</time>
      </trkpt>
      <trkpt lat="43.68418" lon="6.95308">
        <ele>543</ele>
        <time>2011-04-17T09:39:23Z</time>
      </trkpt>
      <trkpt lat="43.68414" lon="6.95303">
        <ele>545</ele>
        <time>2011-04-17T09:39:27Z</time>
      </trkpt>
      <trkpt lat="43.68411" lon="6.95299">
        <ele>546</ele>
        <time>2011-04-17T09:39:30Z</time>
      </trkpt>
      <trkpt lat="43.68405" lon="6.95298">
        <ele>545</ele>
        <time>2011-04-17T09:39:32Z</time>
      </trkpt>
      <trkpt lat="43.68401" lon="6.95295">
        <ele>545</ele>
        <time>2011-04-17T09:39:35Z</time>
      </trkpt>
      <trkpt lat="43.68397" lon="6.95291">
        <ele>545</ele>
        <time>2011-04-17T09:39:45Z</time>
      </trkpt>
      <trkpt lat="43.68394" lon="6.95285">
        <ele>545</ele>
        <time>2011-04-17T09:39:50Z</time>
      </trkpt>
      <trkpt lat="43.6839" lon="6.95281">
        <ele>544</ele>
        <time>2011-04-17T09:39:53Z</time>
      </trkpt>
      <trkpt lat="43.68388" lon="6.95275">
        <ele>544</ele>
        <time>2011-04-17T09:39:57Z</time>
      </trkpt>
      <trkpt lat="43.68387" lon="6.95268">
        <ele>543</ele>
        <time>2011-04-17T09:40:01Z</time>
      </trkpt>
      <trkpt lat="43.68387" lon="6.95268">
        <ele>543</ele>
        <time>2011-04-17T09:40:01Z</time>
      </trkpt>
      <trkpt lat="43.68387" lon="6.95268">
        <ele>544</ele>
        <time>2011-04-17T09:40:02Z</time>
      </trkpt>
      <trkpt lat="43.68386" lon="6.95262">
        <ele>544</ele>
        <time>2011-04-17T09:40:06Z</time>
      </trkpt>
      <trkpt lat="43.68382" lon="6.95258">
        <ele>544</ele>
        <time>2011-04-17T09:40:09Z</time>
      </trkpt>
      <trkpt lat="43.6838" lon="6.95252">
        <ele>542</ele>
        <time>2011-04-17T09:40:18Z</time>
      </trkpt>
      <trkpt lat="43.68376" lon="6.95246">
        <ele>542</ele>
        <time>2011-04-17T09:40:26Z</time>
      </trkpt>
      <trkpt lat="43.68373" lon="6.9524">
        <ele>542</ele>
        <time>2011-04-17T09:40:29Z</time>
      </trkpt>
      <trkpt lat="43.68373" lon="6.95233">
        <ele>541</ele>
        <time>2011-04-17T09:40:36Z</time>
      </trkpt>
      <trkpt lat="43.68373" lon="6.95226">
        <ele>540</ele>
        <time>2011-04-17T09:40:44Z</time>
      </trkpt>
      <trkpt lat="43.68369" lon="6.95223">
        <ele>540</ele>
        <time>2011-04-17T09:40:48Z</time>
      </trkpt>
      <trkpt lat="43.68366" lon="6.95216">
        <ele>539</ele>
        <time>2011-04-17T09:40:53Z</time>
      </trkpt>
      <trkpt lat="43.68366" lon="6.95216">
        <ele>539</ele>
        <time>2011-04-17T09:40:53Z</time>
      </trkpt>
      <trkpt lat="43.68366" lon="6.95216">
        <ele>539</ele>
        <time>2011-04-17T09:40:54Z</time>
      </trkpt>
      <trkpt lat="43.68365" lon="6.9521">
        <ele>540</ele>
        <time>2011-04-17T09:40:57Z</time>
      </trkpt>
      <trkpt lat="43.68358" lon="6.95206">
        <ele>541</ele>
        <time>2011-04-17T09:41:02Z</time>
      </trkpt>
      <trkpt lat="43.68358" lon="6.95199">
        <ele>541</ele>
        <time>2011-04-17T09:41:08Z</time>
      </trkpt>
      <trkpt lat="43.68354" lon="6.95193">
        <ele>543</ele>
        <time>2011-04-17T09:41:13Z</time>
      </trkpt>
      <trkpt lat="43.6835" lon="6.95189">
        <ele>542</ele>
        <time>2011-04-17T09:41:15Z</time>
      </trkpt>
      <trkpt lat="43.68347" lon="6.95183">
        <ele>543</ele>
        <time>2011-04-17T09:41:19Z</time>
      </trkpt>
      <trkpt lat="43.68344" lon="6.95178">
        <ele>542</ele>
        <time>2011-04-17T09:41:22Z</time>
      </trkpt>
      <trkpt lat="43.68342" lon="6.95171">
        <ele>543</ele>
        <time>2011-04-17T09:41:26Z</time>
      </trkpt>
      <trkpt lat="43.68338" lon="6.95166">
        <ele>545</ele>
        <time>2011-04-17T09:41:30Z</time>
      </trkpt>
      <trkpt lat="43.68337" lon="6.9516">
        <ele>544</ele>
        <time>2011-04-17T09:41:34Z</time>
      </trkpt>
      <trkpt lat="43.68334" lon="6.95154">
        <ele>543</ele>
        <time>2011-04-17T09:41:39Z</time>
      </trkpt>
      <trkpt lat="43.68335" lon="6.95148">
        <ele>543</ele>
        <time>2011-04-17T09:41:43Z</time>
      </trkpt>
      <trkpt lat="43.6833" lon="6.95145">
        <ele>542</ele>
        <time>2011-04-17T09:41:45Z</time>
      </trkpt>
      <trkpt lat="43.68327" lon="6.9514">
        <ele>541</ele>
        <time>2011-04-17T09:41:49Z</time>
      </trkpt>
      <trkpt lat="43.68329" lon="6.95134">
        <ele>542</ele>
        <time>2011-04-17T09:42:00Z</time>
      </trkpt>
      <trkpt lat="43.68329" lon="6.95134">
        <ele>542</ele>
        <time>2011-04-17T09:42:00Z</time>
      </trkpt>
      <trkpt lat="43.68329" lon="6.95134">
        <ele>541</ele>
        <time>2011-04-17T09:42:03Z</time>
      </trkpt>
      <trkpt lat="43.68329" lon="6.95125">
        <ele>543</ele>
        <time>2011-04-17T09:42:15Z</time>
      </trkpt>
      <trkpt lat="43.68331" lon="6.95118">
        <ele>539</ele>
        <time>2011-04-17T09:42:21Z</time>
      </trkpt>
      <trkpt lat="43.68332" lon="6.95111">
        <ele>539</ele>
        <time>2011-04-17T09:42:25Z</time>
      </trkpt>
      <trkpt lat="43.68331" lon="6.95105">
        <ele>541</ele>
        <time>2011-04-17T09:42:33Z</time>
      </trkpt>
      <trkpt lat="43.68328" lon="6.95099">
        <ele>541</ele>
        <time>2011-04-17T09:42:36Z</time>
      </trkpt>
      <trkpt lat="43.68327" lon="6.95092">
        <ele>541</ele>
        <time>2011-04-17T09:42:40Z</time>
      </trkpt>
      <trkpt lat="43.68324" lon="6.95086">
        <ele>541</ele>
        <time>2011-04-17T09:42:44Z</time>
      </trkpt>
      <trkpt lat="43.68323" lon="6.95079">
        <ele>542</ele>
        <time>2011-04-17T09:42:48Z</time>
      </trkpt>
      <trkpt lat="43.68323" lon="6.95073">
        <ele>540</ele>
        <time>2011-04-17T09:42:54Z</time>
      </trkpt>
      <trkpt lat="43.68321" lon="6.95067">
        <ele>540</ele>
        <time>2011-04-17T09:42:57Z</time>
      </trkpt>
      <trkpt lat="43.68319" lon="6.95061">
        <ele>540</ele>
        <time>2011-04-17T09:43:01Z</time>
      </trkpt>
      <trkpt lat="43.68316" lon="6.95054">
        <ele>541</ele>
        <time>2011-04-17T09:43:05Z</time>
      </trkpt>
      <trkpt lat="43.68314" lon="6.95047">
        <ele>541</ele>
        <time>2011-04-17T09:43:09Z</time>
      </trkpt>
      <trkpt lat="43.68313" lon="6.95041">
        <ele>541</ele>
        <time>2011-04-17T09:43:14Z</time>
      </trkpt>
      <trkpt lat="43.68309" lon="6.95035">
        <ele>541</ele>
        <time>2011-04-17T09:43:18Z</time>
      </trkpt>
      <trkpt lat="43.68305" lon="6.95031">
        <ele>541</ele>
        <time>2011-04-17T09:43:21Z</time>
      </trkpt>
      <trkpt lat="43.68301" lon="6.95026">
        <ele>540</ele>
        <time>2011-04-17T09:43:26Z</time>
      </trkpt>
      <trkpt lat="43.68299" lon="6.95019">
        <ele>541</ele>
        <time>2011-04-17T09:43:30Z</time>
      </trkpt>
      <trkpt lat="43.68296" lon="6.95012">
        <ele>541</ele>
        <time>2011-04-17T09:43:35Z</time>
      </trkpt>
      <trkpt lat="43.68294" lon="6.95006">
        <ele>542</ele>
        <time>2011-04-17T09:43:39Z</time>
      </trkpt>
      <trkpt lat="43.68291" lon="6.95">
        <ele>539</ele>
        <time>2011-04-17T09:43:45Z</time>
      </trkpt>
      <trkpt lat="43.68286" lon="6.95">
        <ele>540</ele>
        <time>2011-04-17T09:43:48Z</time>
      </trkpt>
      <trkpt lat="43.68286" lon="6.95">
        <ele>540</ele>
        <time>2011-04-17T09:43:48Z</time>
      </trkpt>
      <trkpt lat="43.68286" lon="6.95">
        <ele>540</ele>
        <time>2011-04-17T09:43:49Z</time>
      </trkpt>
      <trkpt lat="43.68281" lon="6.95">
        <ele>541</ele>
        <time>2011-04-17T09:43:54Z</time>
      </trkpt>
      <trkpt lat="43.68276" lon="6.94998">
        <ele>540</ele>
        <time>2011-04-17T09:43:58Z</time>
      </trkpt>
      <trkpt lat="43.68271" lon="6.94991">
        <ele>540</ele>
        <time>2011-04-17T09:44:03Z</time>
      </trkpt>
      <trkpt lat="43.68266" lon="6.94986">
        <ele>541</ele>
        <time>2011-04-17T09:44:08Z</time>
      </trkpt>
      <trkpt lat="43.68264" lon="6.9498">
        <ele>543</ele>
        <time>2011-04-17T09:44:11Z</time>
      </trkpt>
      <trkpt lat="43.68262" lon="6.94973">
        <ele>543</ele>
        <time>2011-04-17T09:44:15Z</time>
      </trkpt>
      <trkpt lat="43.6826" lon="6.94967">
        <ele>543</ele>
        <time>2011-04-17T09:44:19Z</time>
      </trkpt>
      <trkpt lat="43.68258" lon="6.94959">
        <ele>542</ele>
        <time>2011-04-17T09:44:23Z</time>
      </trkpt>
      <trkpt lat="43.68257" lon="6.94952">
        <ele>544</ele>
        <time>2011-04-17T09:44:27Z</time>
      </trkpt>
      <trkpt lat="43.68255" lon="6.94946">
        <ele>544</ele>
        <time>2011-04-17T09:44:31Z</time>
      </trkpt>
      <trkpt lat="43.68252" lon="6.94938">
        <ele>545</ele>
        <time>2011-04-17T09:44:35Z</time>
      </trkpt>
      <trkpt lat="43.6825" lon="6.94931">
        <ele>545</ele>
        <time>2011-04-17T09:44:38Z</time>
      </trkpt>
      <trkpt lat="43.68249" lon="6.94925">
        <ele>545</ele>
        <time>2011-04-17T09:44:42Z</time>
      </trkpt>
      <trkpt lat="43.68247" lon="6.94918">
        <ele>545</ele>
        <time>2011-04-17T09:44:47Z</time>
      </trkpt>
      <trkpt lat="43.68245" lon="6.94912">
        <ele>545</ele>
        <time>2011-04-17T09:44:50Z</time>
      </trkpt>
      <trkpt lat="43.68243" lon="6.94906">
        <ele>543</ele>
        <time>2011-04-17T09:44:55Z</time>
      </trkpt>
      <trkpt lat="43.68239" lon="6.949">
        <ele>542</ele>
        <time>2011-04-17T09:44:59Z</time>
      </trkpt>
      <trkpt lat="43.68238" lon="6.94893">
        <ele>541</ele>
        <time>2011-04-17T09:45:04Z</time>
      </trkpt>
      <trkpt lat="43.68237" lon="6.94886">
        <ele>541</ele>
        <time>2011-04-17T09:45:08Z</time>
      </trkpt>
      <trkpt lat="43.68233" lon="6.94881">
        <ele>540</ele>
        <time>2011-04-17T09:45:11Z</time>
      </trkpt>
      <trkpt lat="43.68235" lon="6.94875">
        <ele>542</ele>
        <time>2011-04-17T09:45:20Z</time>
      </trkpt>
      <trkpt lat="43.68235" lon="6.94868">
        <ele>544</ele>
        <time>2011-04-17T09:45:47Z</time>
      </trkpt>
      <trkpt lat="43.68233" lon="6.94862">
        <ele>544</ele>
        <time>2011-04-17T09:45:51Z</time>
      </trkpt>
      <trkpt lat="43.68231" lon="6.94856">
        <ele>545</ele>
        <time>2011-04-17T09:45:55Z</time>
      </trkpt>
      <trkpt lat="43.68229" lon="6.9485">
        <ele>542</ele>
        <time>2011-04-17T09:45:58Z</time>
      </trkpt>
      <trkpt lat="43.68225" lon="6.94844">
        <ele>542</ele>
        <time>2011-04-17T09:46:03Z</time>
      </trkpt>
      <trkpt lat="43.68222" lon="6.94838">
        <ele>541</ele>
        <time>2011-04-17T09:46:07Z</time>
      </trkpt>
      <trkpt lat="43.68219" lon="6.94833">
        <ele>538</ele>
        <time>2011-04-17T09:46:13Z</time>
      </trkpt>
      <trkpt lat="43.68217" lon="6.94826">
        <ele>538</ele>
        <time>2011-04-17T09:46:18Z</time>
      </trkpt>
      <trkpt lat="43.68215" lon="6.9482">
        <ele>536</ele>
        <time>2011-04-17T09:46:36Z</time>
      </trkpt>
      <trkpt lat="43.68213" lon="6.94813">
        <ele>532</ele>
        <time>2011-04-17T09:46:41Z</time>
      </trkpt>
      <trkpt lat="43.6821" lon="6.94809">
        <ele>532</ele>
        <time>2011-04-17T09:46:44Z</time>
      </trkpt>
      <trkpt lat="43.68206" lon="6.94803">
        <ele>531</ele>
        <time>2011-04-17T09:46:49Z</time>
      </trkpt>
      <trkpt lat="43.68202" lon="6.94798">
        <ele>532</ele>
        <time>2011-04-17T09:46:53Z</time>
      </trkpt>
      <trkpt lat="43.682" lon="6.94791">
        <ele>531</ele>
        <time>2011-04-17T09:46:59Z</time>
      </trkpt>
      <trkpt lat="43.68199" lon="6.94784">
        <ele>528</ele>
        <time>2011-04-17T09:47:06Z</time>
      </trkpt>
      <trkpt lat="43.68195" lon="6.9478">
        <ele>528</ele>
        <time>2011-04-17T09:47:08Z</time>
      </trkpt>
      <trkpt lat="43.68191" lon="6.94774">
        <ele>526</ele>
        <time>2011-04-17T09:47:12Z</time>
      </trkpt>
      <trkpt lat="43.68188" lon="6.94768">
        <ele>526</ele>
        <time>2011-04-17T09:47:20Z</time>
      </trkpt>
      <trkpt lat="43.68186" lon="6.94762">
        <ele>523</ele>
        <time>2011-04-17T09:47:24Z</time>
      </trkpt>
      <trkpt lat="43.68182" lon="6.94756">
        <ele>519</ele>
        <time>2011-04-17T09:47:29Z</time>
      </trkpt>
      <trkpt lat="43.6818" lon="6.94751">
        <ele>517</ele>
        <time>2011-04-17T09:47:33Z</time>
      </trkpt>
      <trkpt lat="43.68176" lon="6.94745">
        <ele>514</ele>
        <time>2011-04-17T09:47:38Z</time>
      </trkpt>
      <trkpt lat="43.68175" lon="6.94739">
        <ele>511</ele>
        <time>2011-04-17T09:47:44Z</time>
      </trkpt>
      <trkpt lat="43.68171" lon="6.94734">
        <ele>509</ele>
        <time>2011-04-17T09:47:48Z</time>
      </trkpt>
      <trkpt lat="43.68171" lon="6.94734">
        <ele>509</ele>
        <time>2011-04-17T09:47:48Z</time>
      </trkpt>
      <trkpt lat="43.68171" lon="6.94734">
        <ele>508</ele>
        <time>2011-04-17T09:47:49Z</time>
      </trkpt>
      <trkpt lat="43.68168" lon="6.94728">
        <ele>507</ele>
        <time>2011-04-17T09:47:56Z</time>
      </trkpt>
      <trkpt lat="43.68167" lon="6.9472">
        <ele>505</ele>
        <time>2011-04-17T09:48:03Z</time>
      </trkpt>
      <trkpt lat="43.68163" lon="6.94716">
        <ele>504</ele>
        <time>2011-04-17T09:48:07Z</time>
      </trkpt>
      <trkpt lat="43.68162" lon="6.9471">
        <ele>501</ele>
        <time>2011-04-17T09:48:13Z</time>
      </trkpt>
      <trkpt lat="43.6816" lon="6.94704">
        <ele>500</ele>
        <time>2011-04-17T09:48:20Z</time>
      </trkpt>
      <trkpt lat="43.68158" lon="6.94697">
        <ele>499</ele>
        <time>2011-04-17T09:48:26Z</time>
      </trkpt>
      <trkpt lat="43.68153" lon="6.94696">
        <ele>499</ele>
        <time>2011-04-17T09:50:45Z</time>
      </trkpt>
      <trkpt lat="43.68153" lon="6.94696">
        <ele>499</ele>
        <time>2011-04-17T09:50:45Z</time>
      </trkpt>
      <trkpt lat="43.68153" lon="6.94696">
        <ele>499</ele>
        <time>2011-04-17T09:51:56Z</time>
      </trkpt>
      <trkpt lat="43.6815" lon="6.9469">
        <ele>497</ele>
        <time>2011-04-17T09:52:05Z</time>
      </trkpt>
      <trkpt lat="43.68146" lon="6.94686">
        <ele>496</ele>
        <time>2011-04-17T09:52:09Z</time>
      </trkpt>
      <trkpt lat="43.68142" lon="6.94681">
        <ele>494</ele>
        <time>2011-04-17T09:52:16Z</time>
      </trkpt>
      <trkpt lat="43.68137" lon="6.94676">
        <ele>493</ele>
        <time>2011-04-17T09:52:23Z</time>
      </trkpt>
      <trkpt lat="43.68136" lon="6.94667">
        <ele>490</ele>
        <time>2011-04-17T09:52:36Z</time>
      </trkpt>
      <trkpt lat="43.68131" lon="6.94663">
        <ele>489</ele>
        <time>2011-04-17T09:52:41Z</time>
      </trkpt>
      <trkpt lat="43.68129" lon="6.94657">
        <ele>489</ele>
        <time>2011-04-17T09:52:48Z</time>
      </trkpt>
      <trkpt lat="43.68124" lon="6.94656">
        <ele>487</ele>
        <time>2011-04-17T09:52:56Z</time>
      </trkpt>
      <trkpt lat="43.6812" lon="6.94653">
        <ele>486</ele>
        <time>2011-04-17T09:53:02Z</time>
      </trkpt>
      <trkpt lat="43.68117" lon="6.94647">
        <ele>485</ele>
        <time>2011-04-17T09:53:08Z</time>
      </trkpt>
      <trkpt lat="43.68116" lon="6.9464">
        <ele>483</ele>
        <time>2011-04-17T09:53:13Z</time>
      </trkpt>
      <trkpt lat="43.68116" lon="6.9464">
        <ele>483</ele>
        <time>2011-04-17T09:53:13Z</time>
      </trkpt>
      <trkpt lat="43.68116" lon="6.9464">
        <ele>482</ele>
        <time>2011-04-17T09:53:18Z</time>
      </trkpt>
      <trkpt lat="43.68114" lon="6.94632">
        <ele>482</ele>
        <time>2011-04-17T09:54:04Z</time>
      </trkpt>
      <trkpt lat="43.6811" lon="6.94626">
        <ele>483</ele>
        <time>2011-04-17T09:54:10Z</time>
      </trkpt>
      <trkpt lat="43.68106" lon="6.94626">
        <ele>484</ele>
        <time>2011-04-17T09:54:19Z</time>
      </trkpt>
      <trkpt lat="43.681" lon="6.94621">
        <ele>484</ele>
        <time>2011-04-17T09:54:30Z</time>
      </trkpt>
      <trkpt lat="43.68094" lon="6.94617">
        <ele>487</ele>
        <time>2011-04-17T09:54:33Z</time>
      </trkpt>
      <trkpt lat="43.68089" lon="6.9461">
        <ele>486</ele>
        <time>2011-04-17T09:54:39Z</time>
      </trkpt>
      <trkpt lat="43.68087" lon="6.94604">
        <ele>488</ele>
        <time>2011-04-17T09:54:42Z</time>
      </trkpt>
      <trkpt lat="43.68086" lon="6.94596">
        <ele>488</ele>
        <time>2011-04-17T09:54:48Z</time>
      </trkpt>
      <trkpt lat="43.68081" lon="6.94593">
        <ele>488</ele>
        <time>2011-04-17T09:54:51Z</time>
      </trkpt>
      <trkpt lat="43.68078" lon="6.94588">
        <ele>491</ele>
        <time>2011-04-17T09:54:57Z</time>
      </trkpt>
      <trkpt lat="43.68074" lon="6.94583">
        <ele>490</ele>
        <time>2011-04-17T09:55:00Z</time>
      </trkpt>
      <trkpt lat="43.68072" lon="6.94577">
        <ele>491</ele>
        <time>2011-04-17T09:55:05Z</time>
      </trkpt>
      <trkpt lat="43.68068" lon="6.94574">
        <ele>492</ele>
        <time>2011-04-17T09:55:09Z</time>
      </trkpt>
      <trkpt lat="43.68063" lon="6.94568">
        <ele>497</ele>
        <time>2011-04-17T09:55:17Z</time>
      </trkpt>
      <trkpt lat="43.68061" lon="6.94562">
        <ele>497</ele>
        <time>2011-04-17T09:55:21Z</time>
      </trkpt>
      <trkpt lat="43.68058" lon="6.94557">
        <ele>499</ele>
        <time>2011-04-17T09:55:27Z</time>
      </trkpt>
      <trkpt lat="43.68054" lon="6.94554">
        <ele>500</ele>
        <time>2011-04-17T09:55:31Z</time>
      </trkpt>
      <trkpt lat="43.68051" lon="6.94547">
        <ele>500</ele>
        <time>2011-04-17T09:55:34Z</time>
      </trkpt>
      <trkpt lat="43.68047" lon="6.94544">
        <ele>498</ele>
        <time>2011-04-17T09:55:51Z</time>
      </trkpt>
      <trkpt lat="43.68047" lon="6.94544">
        <ele>498</ele>
        <time>2011-04-17T09:55:51Z</time>
      </trkpt>
      <trkpt lat="43.68047" lon="6.94544">
        <ele>498</ele>
        <time>2011-04-17T09:55:52Z</time>
      </trkpt>
      <trkpt lat="43.68043" lon="6.94538">
        <ele>498</ele>
        <time>2011-04-17T09:55:55Z</time>
      </trkpt>
      <trkpt lat="43.68046" lon="6.94533">
        <ele>494</ele>
        <time>2011-04-17T09:55:58Z</time>
      </trkpt>
      <trkpt lat="43.68046" lon="6.94533">
        <ele>494</ele>
        <time>2011-04-17T09:55:58Z</time>
      </trkpt>
      <trkpt lat="43.68046" lon="6.94533">
        <ele>494</ele>
        <time>2011-04-17T09:56:04Z</time>
      </trkpt>
      <trkpt lat="43.68041" lon="6.94529">
        <ele>497</ele>
        <time>2011-04-17T09:57:55Z</time>
      </trkpt>
      <trkpt lat="43.68036" lon="6.94532">
        <ele>498</ele>
        <time>2011-04-17T09:58:20Z</time>
      </trkpt>
      <trkpt lat="43.68033" lon="6.94541">
        <ele>498</ele>
        <time>2011-04-17T09:58:26Z</time>
      </trkpt>
      <trkpt lat="43.6803" lon="6.94548">
        <ele>499</ele>
        <time>2011-04-17T09:58:29Z</time>
      </trkpt>
      <trkpt lat="43.6803" lon="6.94548">
        <ele>499</ele>
        <time>2011-04-17T09:58:29Z</time>
      </trkpt>
      <trkpt lat="43.6803" lon="6.94548">
        <ele>499</ele>
        <time>2011-04-17T09:58:30Z</time>
      </trkpt>
      <trkpt lat="43.68026" lon="6.94552">
        <ele>500</ele>
        <time>2011-04-17T09:58:34Z</time>
      </trkpt>
      <trkpt lat="43.68021" lon="6.94555">
        <ele>501</ele>
        <time>2011-04-17T09:58:37Z</time>
      </trkpt>
      <trkpt lat="43.68016" lon="6.94558">
        <ele>501</ele>
        <time>2011-04-17T09:58:40Z</time>
      </trkpt>
      <trkpt lat="43.68014" lon="6.94563">
        <ele>499</ele>
        <time>2011-04-17T09:58:44Z</time>
      </trkpt>
      <trkpt lat="43.6801" lon="6.94569">
        <ele>497</ele>
        <time>2011-04-17T09:58:49Z</time>
      </trkpt>
      <trkpt lat="43.68006" lon="6.94573">
        <ele>497</ele>
        <time>2011-04-17T09:58:53Z</time>
      </trkpt>
      <trkpt lat="43.67999" lon="6.94572">
        <ele>495</ele>
        <time>2011-04-17T09:58:56Z</time>
      </trkpt>
      <trkpt lat="43.67991" lon="6.94571">
        <ele>494</ele>
        <time>2011-04-17T09:58:58Z</time>
      </trkpt>
      <trkpt lat="43.67986" lon="6.94568">
        <ele>496</ele>
        <time>2011-04-17T09:59:03Z</time>
      </trkpt>
      <trkpt lat="43.67984" lon="6.94561">
        <ele>498</ele>
        <time>2011-04-17T09:59:08Z</time>
      </trkpt>
      <trkpt lat="43.67983" lon="6.94554">
        <ele>501</ele>
        <time>2011-04-17T09:59:20Z</time>
      </trkpt>
      <trkpt lat="43.67985" lon="6.94548">
        <ele>501</ele>
        <time>2011-04-17T09:59:29Z</time>
      </trkpt>
      <trkpt lat="43.6798" lon="6.94543">
        <ele>502</ele>
        <time>2011-04-17T09:59:37Z</time>
      </trkpt>
      <trkpt lat="43.67975" lon="6.9454">
        <ele>502</ele>
        <time>2011-04-17T09:59:41Z</time>
      </trkpt>
      <trkpt lat="43.6797" lon="6.94534">
        <ele>502</ele>
        <time>2011-04-17T09:59:46Z</time>
      </trkpt>
      <trkpt lat="43.67969" lon="6.94526">
        <ele>505</ele>
        <time>2011-04-17T09:59:54Z</time>
      </trkpt>
      <trkpt lat="43.67967" lon="6.94518">
        <ele>506</ele>
        <time>2011-04-17T09:59:59Z</time>
      </trkpt>
      <trkpt lat="43.67967" lon="6.94512">
        <ele>506</ele>
        <time>2011-04-17T10:00:04Z</time>
      </trkpt>
      <trkpt lat="43.67967" lon="6.94505">
        <ele>506</ele>
        <time>2011-04-17T10:00:08Z</time>
      </trkpt>
      <trkpt lat="43.67968" lon="6.94499">
        <ele>509</ele>
        <time>2011-04-17T10:00:15Z</time>
      </trkpt>
      <trkpt lat="43.67966" lon="6.94493">
        <ele>511</ele>
        <time>2011-04-17T10:00:20Z</time>
      </trkpt>
      <trkpt lat="43.67966" lon="6.94486">
        <ele>512</ele>
        <time>2011-04-17T10:00:26Z</time>
      </trkpt>
      <trkpt lat="43.67963" lon="6.94481">
        <ele>514</ele>
        <time>2011-04-17T10:00:33Z</time>
      </trkpt>
      <trkpt lat="43.67959" lon="6.94476">
        <ele>516</ele>
        <time>2011-04-17T10:00:42Z</time>
      </trkpt>
      <trkpt lat="43.67954" lon="6.94475">
        <ele>518</ele>
        <time>2011-04-17T10:00:47Z</time>
      </trkpt>
      <trkpt lat="43.67949" lon="6.94476">
        <ele>519</ele>
        <time>2011-04-17T10:00:53Z</time>
      </trkpt>
      <trkpt lat="43.67945" lon="6.94478">
        <ele>523</ele>
        <time>2011-04-17T10:01:07Z</time>
      </trkpt>
      <trkpt lat="43.67939" lon="6.94477">
        <ele>522</ele>
        <time>2011-04-17T10:01:10Z</time>
      </trkpt>
      <trkpt lat="43.67934" lon="6.94475">
        <ele>524</ele>
        <time>2011-04-17T10:01:13Z</time>
      </trkpt>
      <trkpt lat="43.67929" lon="6.94472">
        <ele>524</ele>
        <time>2011-04-17T10:01:20Z</time>
      </trkpt>
      <trkpt lat="43.67924" lon="6.9447">
        <ele>524</ele>
        <time>2011-04-17T10:01:26Z</time>
      </trkpt>
      <trkpt lat="43.67919" lon="6.9447">
        <ele>525</ele>
        <time>2011-04-17T10:01:28Z</time>
      </trkpt>
      <trkpt lat="43.67914" lon="6.94468">
        <ele>526</ele>
        <time>2011-04-17T10:01:30Z</time>
      </trkpt>
      <trkpt lat="43.67909" lon="6.94467">
        <ele>526</ele>
        <time>2011-04-17T10:01:33Z</time>
      </trkpt>
      <trkpt lat="43.67909" lon="6.94467">
        <ele>526</ele>
        <time>2011-04-17T10:01:33Z</time>
      </trkpt>
      <trkpt lat="43.67909" lon="6.94467">
        <ele>527</ele>
        <time>2011-04-17T10:01:34Z</time>
      </trkpt>
      <trkpt lat="43.67904" lon="6.94465">
        <ele>526</ele>
        <time>2011-04-17T10:01:37Z</time>
      </trkpt>
      <trkpt lat="43.67903" lon="6.94459">
        <ele>525</ele>
        <time>2011-04-17T10:01:48Z</time>
      </trkpt>
      <trkpt lat="43.67903" lon="6.94459">
        <ele>525</ele>
        <time>2011-04-17T10:01:48Z</time>
      </trkpt>
      <trkpt lat="43.67903" lon="6.94459">
        <ele>525</ele>
        <time>2011-04-17T10:02:14Z</time>
      </trkpt>
      <trkpt lat="43.67897" lon="6.94458">
        <ele>524</ele>
        <time>2011-04-17T10:02:19Z</time>
      </trkpt>
      <trkpt lat="43.67892" lon="6.94459">
        <ele>524</ele>
        <time>2011-04-17T10:02:24Z</time>
      </trkpt>
      <trkpt lat="43.67887" lon="6.94459">
        <ele>523</ele>
        <time>2011-04-17T10:02:28Z</time>
      </trkpt>
      <trkpt lat="43.67883" lon="6.94456">
        <ele>524</ele>
        <time>2011-04-17T10:02:33Z</time>
      </trkpt>
      <trkpt lat="43.67883" lon="6.94456">
        <ele>524</ele>
        <time>2011-04-17T10:02:33Z</time>
      </trkpt>
      <trkpt lat="43.67883" lon="6.94456">
        <ele>524</ele>
        <time>2011-04-17T10:02:34Z</time>
      </trkpt>
      <trkpt lat="43.67877" lon="6.94453">
        <ele>524</ele>
        <time>2011-04-17T10:02:36Z</time>
      </trkpt>
      <trkpt lat="43.67872" lon="6.94451">
        <ele>524</ele>
        <time>2011-04-17T10:02:39Z</time>
      </trkpt>
      <trkpt lat="43.67866" lon="6.9445">
        <ele>523</ele>
        <time>2011-04-17T10:02:44Z</time>
      </trkpt>
      <trkpt lat="43.67866" lon="6.9445">
        <ele>523</ele>
        <time>2011-04-17T10:02:44Z</time>
      </trkpt>
      <trkpt lat="43.67866" lon="6.9445">
        <ele>523</ele>
        <time>2011-04-17T10:02:45Z</time>
      </trkpt>
      <trkpt lat="43.67861" lon="6.94447">
        <ele>523</ele>
        <time>2011-04-17T10:02:51Z</time>
      </trkpt>
      <trkpt lat="43.67856" lon="6.94445">
        <ele>522</ele>
        <time>2011-04-17T10:02:53Z</time>
      </trkpt>
      <trkpt lat="43.6785" lon="6.94444">
        <ele>522</ele>
        <time>2011-04-17T10:02:56Z</time>
      </trkpt>
      <trkpt lat="43.67844" lon="6.94443">
        <ele>522</ele>
        <time>2011-04-17T10:03:00Z</time>
      </trkpt>
      <trkpt lat="43.67839" lon="6.94442">
        <ele>523</ele>
        <time>2011-04-17T10:03:05Z</time>
      </trkpt>
      <trkpt lat="43.67832" lon="6.9444">
        <ele>523</ele>
        <time>2011-04-17T10:03:09Z</time>
      </trkpt>
      <trkpt lat="43.67827" lon="6.94437">
        <ele>523</ele>
        <time>2011-04-17T10:03:12Z</time>
      </trkpt>
      <trkpt lat="43.67822" lon="6.94432">
        <ele>523</ele>
        <time>2011-04-17T10:03:14Z</time>
      </trkpt>
      <trkpt lat="43.67818" lon="6.94426">
        <ele>523</ele>
        <time>2011-04-17T10:03:17Z</time>
      </trkpt>
      <trkpt lat="43.67813" lon="6.94422">
        <ele>523</ele>
        <time>2011-04-17T10:03:20Z</time>
      </trkpt>
      <trkpt lat="43.67809" lon="6.94418">
        <ele>522</ele>
        <time>2011-04-17T10:03:26Z</time>
      </trkpt>
      <trkpt lat="43.67804" lon="6.94416">
        <ele>523</ele>
        <time>2011-04-17T10:03:29Z</time>
      </trkpt>
      <trkpt lat="43.67799" lon="6.94412">
        <ele>526</ele>
        <time>2011-04-17T10:03:39Z</time>
      </trkpt>
      <trkpt lat="43.67799" lon="6.94412">
        <ele>526</ele>
        <time>2011-04-17T10:03:39Z</time>
      </trkpt>
      <trkpt lat="43.67799" lon="6.94412">
        <ele>527</ele>
        <time>2011-04-17T10:03:40Z</time>
      </trkpt>
      <trkpt lat="43.67794" lon="6.94414">
        <ele>524</ele>
        <time>2011-04-17T10:03:45Z</time>
      </trkpt>
      <trkpt lat="43.67788" lon="6.94413">
        <ele>522</ele>
        <time>2011-04-17T10:03:49Z</time>
      </trkpt>
      <trkpt lat="43.67784" lon="6.94413">
        <ele>523</ele>
        <time>2011-04-17T10:03:51Z</time>
      </trkpt>
      <trkpt lat="43.67779" lon="6.94413">
        <ele>523</ele>
        <time>2011-04-17T10:03:54Z</time>
      </trkpt>
      <trkpt lat="43.67774" lon="6.94412">
        <ele>523</ele>
        <time>2011-04-17T10:03:58Z</time>
      </trkpt>
      <trkpt lat="43.67768" lon="6.94412">
        <ele>522</ele>
        <time>2011-04-17T10:04:02Z</time>
      </trkpt>
      <trkpt lat="43.67764" lon="6.94417">
        <ele>521</ele>
        <time>2011-04-17T10:04:08Z</time>
      </trkpt>
      <trkpt lat="43.6776" lon="6.9442">
        <ele>521</ele>
        <time>2011-04-17T10:04:11Z</time>
      </trkpt>
      <trkpt lat="43.67756" lon="6.94423">
        <ele>521</ele>
        <time>2011-04-17T10:04:14Z</time>
      </trkpt>
      <trkpt lat="43.6775" lon="6.94422">
        <ele>520</ele>
        <time>2011-04-17T10:04:17Z</time>
      </trkpt>
      <trkpt lat="43.67745" lon="6.94417">
        <ele>518</ele>
        <time>2011-04-17T10:04:21Z</time>
      </trkpt>
      <trkpt lat="43.67741" lon="6.94415">
        <ele>517</ele>
        <time>2011-04-17T10:04:24Z</time>
      </trkpt>
      <trkpt lat="43.67736" lon="6.94412">
        <ele>516</ele>
        <time>2011-04-17T10:04:27Z</time>
      </trkpt>
      <trkpt lat="43.67732" lon="6.94408">
        <ele>514</ele>
        <time>2011-04-17T10:04:32Z</time>
      </trkpt>
      <trkpt lat="43.67727" lon="6.94402">
        <ele>513</ele>
        <time>2011-04-17T10:04:37Z</time>
      </trkpt>
      <trkpt lat="43.67722" lon="6.944">
        <ele>511</ele>
        <time>2011-04-17T10:04:41Z</time>
      </trkpt>
      <trkpt lat="43.67717" lon="6.94396">
        <ele>510</ele>
        <time>2011-04-17T10:04:45Z</time>
      </trkpt>
      <trkpt lat="43.67711" lon="6.94396">
        <ele>509</ele>
        <time>2011-04-17T10:04:49Z</time>
      </trkpt>
      <trkpt lat="43.67706" lon="6.94394">
        <ele>510</ele>
        <time>2011-04-17T10:04:53Z</time>
      </trkpt>
      <trkpt lat="43.67703" lon="6.94388">
        <ele>510</ele>
        <time>2011-04-17T10:05:26Z</time>
      </trkpt>
      <trkpt lat="43.67701" lon="6.94382">
        <ele>512</ele>
        <time>2011-04-17T10:05:57Z</time>
      </trkpt>
      <trkpt lat="43.67696" lon="6.94382">
        <ele>514</ele>
        <time>2011-04-17T10:06:24Z</time>
      </trkpt>
      <trkpt lat="43.67692" lon="6.94377">
        <ele>516</ele>
        <time>2011-04-17T10:06:40Z</time>
      </trkpt>
      <trkpt lat="43.67692" lon="6.94377">
        <ele>516</ele>
        <time>2011-04-17T10:06:40Z</time>
      </trkpt>
      <trkpt lat="43.67692" lon="6.94377">
        <ele>517</ele>
        <time>2011-04-17T10:06:41Z</time>
      </trkpt>
      <trkpt lat="43.67691" lon="6.9437">
        <ele>517</ele>
        <time>2011-04-17T10:06:48Z</time>
      </trkpt>
      <trkpt lat="43.67691" lon="6.94361">
        <ele>517</ele>
        <time>2011-04-17T10:07:02Z</time>
      </trkpt>
      <trkpt lat="43.67694" lon="6.94355">
        <ele>517</ele>
        <time>2011-04-17T10:07:07Z</time>
      </trkpt>
      <trkpt lat="43.67689" lon="6.94356">
        <ele>522</ele>
        <time>2011-04-17T10:07:21Z</time>
      </trkpt>
      <trkpt lat="43.67689" lon="6.94356">
        <ele>522</ele>
        <time>2011-04-17T10:07:21Z</time>
      </trkpt>
      <trkpt lat="43.67689" lon="6.94356">
        <ele>523</ele>
        <time>2011-04-17T10:07:23Z</time>
      </trkpt>
      <trkpt lat="43.67687" lon="6.94347">
        <ele>525</ele>
        <time>2011-04-17T10:07:36Z</time>
      </trkpt>
      <trkpt lat="43.67687" lon="6.94347">
        <ele>525</ele>
        <time>2011-04-17T10:07:36Z</time>
      </trkpt>
      <trkpt lat="43.67687" lon="6.94347">
        <ele>525</ele>
        <time>2011-04-17T10:07:37Z</time>
      </trkpt>
      <trkpt lat="43.6769" lon="6.94342">
        <ele>526</ele>
        <time>2011-04-17T10:07:42Z</time>
      </trkpt>
      <trkpt lat="43.67694" lon="6.94338">
        <ele>531</ele>
        <time>2011-04-17T10:07:59Z</time>
      </trkpt>
      <trkpt lat="43.67689" lon="6.9434">
        <ele>531</ele>
        <time>2011-04-17T10:08:10Z</time>
      </trkpt>
      <trkpt lat="43.67692" lon="6.94344">
        <ele>534</ele>
        <time>2011-04-17T10:09:07Z</time>
      </trkpt>
      <trkpt lat="43.67689" lon="6.94348">
        <ele>537</ele>
        <time>2011-04-17T10:29:31Z</time>
      </trkpt>
      <trkpt lat="43.67681" lon="6.9435">
        <ele>535</ele>
        <time>2011-04-17T10:29:46Z</time>
      </trkpt>
      <trkpt lat="43.67674" lon="6.94351">
        <ele>534</ele>
        <time>2011-04-17T10:29:48Z</time>
      </trkpt>
      <trkpt lat="43.67667" lon="6.94352">
        <ele>534</ele>
        <time>2011-04-17T10:29:51Z</time>
      </trkpt>
      <trkpt lat="43.67663" lon="6.94355">
        <ele>535</ele>
        <time>2011-04-17T10:29:54Z</time>
      </trkpt>
      <trkpt lat="43.67658" lon="6.94354">
        <ele>534</ele>
        <time>2011-04-17T10:29:58Z</time>
      </trkpt>
      <trkpt lat="43.67655" lon="6.94348">
        <ele>532</ele>
        <time>2011-04-17T10:31:30Z</time>
      </trkpt>
      <trkpt lat="43.6765" lon="6.94348">
        <ele>534</ele>
        <time>2011-04-17T10:31:34Z</time>
      </trkpt>
      <trkpt lat="43.67645" lon="6.94345">
        <ele>535</ele>
        <time>2011-04-17T10:31:43Z</time>
      </trkpt>
      <trkpt lat="43.67645" lon="6.94345">
        <ele>535</ele>
        <time>2011-04-17T10:31:43Z</time>
      </trkpt>
      <trkpt lat="43.67645" lon="6.94345">
        <ele>535</ele>
        <time>2011-04-17T10:31:45Z</time>
      </trkpt>
      <trkpt lat="43.67639" lon="6.94343">
        <ele>536</ele>
        <time>2011-04-17T10:31:55Z</time>
      </trkpt>
      <trkpt lat="43.67634" lon="6.94339">
        <ele>537</ele>
        <time>2011-04-17T10:32:00Z</time>
      </trkpt>
      <trkpt lat="43.6763" lon="6.94338">
        <ele>538</ele>
        <time>2011-04-17T10:32:05Z</time>
      </trkpt>
      <trkpt lat="43.67625" lon="6.94338">
        <ele>535</ele>
        <time>2011-04-17T10:32:10Z</time>
      </trkpt>
      <trkpt lat="43.67621" lon="6.94332">
        <ele>535</ele>
        <time>2011-04-17T10:32:15Z</time>
      </trkpt>
      <trkpt lat="43.67618" lon="6.94326">
        <ele>535</ele>
        <time>2011-04-17T10:32:19Z</time>
      </trkpt>
      <trkpt lat="43.67615" lon="6.94319">
        <ele>535</ele>
        <time>2011-04-17T10:32:25Z</time>
      </trkpt>
      <trkpt lat="43.67612" lon="6.94315">
        <ele>536</ele>
        <time>2011-04-17T10:32:29Z</time>
      </trkpt>
      <trkpt lat="43.67607" lon="6.94312">
        <ele>534</ele>
        <time>2011-04-17T10:32:34Z</time>
      </trkpt>
      <trkpt lat="43.67603" lon="6.94308">
        <ele>535</ele>
        <time>2011-04-17T10:32:37Z</time>
      </trkpt>
      <trkpt lat="43.67598" lon="6.94305">
        <ele>533</ele>
        <time>2011-04-17T10:32:41Z</time>
      </trkpt>
      <trkpt lat="43.67594" lon="6.94299">
        <ele>533</ele>
        <time>2011-04-17T10:32:49Z</time>
      </trkpt>
      <trkpt lat="43.67594" lon="6.94299">
        <ele>533</ele>
        <time>2011-04-17T10:32:49Z</time>
      </trkpt>
      <trkpt lat="43.67594" lon="6.94299">
        <ele>533</ele>
        <time>2011-04-17T10:32:50Z</time>
      </trkpt>
      <trkpt lat="43.6759" lon="6.94292">
        <ele>533</ele>
        <time>2011-04-17T10:32:54Z</time>
      </trkpt>
      <trkpt lat="43.6759" lon="6.94285">
        <ele>533</ele>
        <time>2011-04-17T10:32:59Z</time>
      </trkpt>
      <trkpt lat="43.67587" lon="6.94277">
        <ele>533</ele>
        <time>2011-04-17T10:33:05Z</time>
      </trkpt>
      <trkpt lat="43.67585" lon="6.94272">
        <ele>534</ele>
        <time>2011-04-17T10:33:10Z</time>
      </trkpt>
      <trkpt lat="43.6758" lon="6.94271">
        <ele>535</ele>
        <time>2011-04-17T10:33:14Z</time>
      </trkpt>
      <trkpt lat="43.67577" lon="6.94266">
        <ele>535</ele>
        <time>2011-04-17T10:33:18Z</time>
      </trkpt>
      <trkpt lat="43.67573" lon="6.9426">
        <ele>536</ele>
        <time>2011-04-17T10:33:23Z</time>
      </trkpt>
      <trkpt lat="43.6757" lon="6.94253">
        <ele>536</ele>
        <time>2011-04-17T10:33:28Z</time>
      </trkpt>
      <trkpt lat="43.67564" lon="6.9425">
        <ele>535</ele>
        <time>2011-04-17T10:33:31Z</time>
      </trkpt>
      <trkpt lat="43.67561" lon="6.94242">
        <ele>536</ele>
        <time>2011-04-17T10:33:36Z</time>
      </trkpt>
      <trkpt lat="43.67559" lon="6.94235">
        <ele>534</ele>
        <time>2011-04-17T10:33:39Z</time>
      </trkpt>
      <trkpt lat="43.67558" lon="6.94228">
        <ele>534</ele>
        <time>2011-04-17T10:33:42Z</time>
      </trkpt>
      <trkpt lat="43.67556" lon="6.94222">
        <ele>533</ele>
        <time>2011-04-17T10:33:45Z</time>
      </trkpt>
      <trkpt lat="43.67554" lon="6.94216">
        <ele>532</ele>
        <time>2011-04-17T10:33:50Z</time>
      </trkpt>
      <trkpt lat="43.67552" lon="6.94209">
        <ele>533</ele>
        <time>2011-04-17T10:33:55Z</time>
      </trkpt>
      <trkpt lat="43.67551" lon="6.94202">
        <ele>538</ele>
        <time>2011-04-17T10:34:01Z</time>
      </trkpt>
      <trkpt lat="43.6755" lon="6.94196">
        <ele>538</ele>
        <time>2011-04-17T10:34:04Z</time>
      </trkpt>
      <trkpt lat="43.67548" lon="6.9419">
        <ele>538</ele>
        <time>2011-04-17T10:34:09Z</time>
      </trkpt>
      <trkpt lat="43.67549" lon="6.94183">
        <ele>540</ele>
        <time>2011-04-17T10:34:16Z</time>
      </trkpt>
      <trkpt lat="43.67548" lon="6.94176">
        <ele>540</ele>
        <time>2011-04-17T10:34:20Z</time>
      </trkpt>
      <trkpt lat="43.67548" lon="6.94168">
        <ele>541</ele>
        <time>2011-04-17T10:34:23Z</time>
      </trkpt>
      <trkpt lat="43.67547" lon="6.94162">
        <ele>541</ele>
        <time>2011-04-17T10:34:26Z</time>
      </trkpt>
      <trkpt lat="43.67547" lon="6.94156">
        <ele>539</ele>
        <time>2011-04-17T10:34:29Z</time>
      </trkpt>
      <trkpt lat="43.67546" lon="6.94149">
        <ele>540</ele>
        <time>2011-04-17T10:34:34Z</time>
      </trkpt>
      <trkpt lat="43.67544" lon="6.94143">
        <ele>539</ele>
        <time>2011-04-17T10:34:38Z</time>
      </trkpt>
      <trkpt lat="43.67544" lon="6.94135">
        <ele>539</ele>
        <time>2011-04-17T10:34:42Z</time>
      </trkpt>
      <trkpt lat="43.67544" lon="6.94129">
        <ele>540</ele>
        <time>2011-04-17T10:34:47Z</time>
      </trkpt>
      <trkpt lat="43.67542" lon="6.94123">
        <ele>539</ele>
        <time>2011-04-17T10:34:52Z</time>
      </trkpt>
      <trkpt lat="43.67538" lon="6.94119">
        <ele>541</ele>
        <time>2011-04-17T10:35:04Z</time>
      </trkpt>
      <trkpt lat="43.67534" lon="6.94115">
        <ele>540</ele>
        <time>2011-04-17T10:35:10Z</time>
      </trkpt>
      <trkpt lat="43.67529" lon="6.94113">
        <ele>542</ele>
        <time>2011-04-17T10:35:15Z</time>
      </trkpt>
      <trkpt lat="43.67525" lon="6.9411">
        <ele>544</ele>
        <time>2011-04-17T10:35:22Z</time>
      </trkpt>
      <trkpt lat="43.6752" lon="6.94111">
        <ele>544</ele>
        <time>2011-04-17T10:35:26Z</time>
      </trkpt>
      <trkpt lat="43.67514" lon="6.94111">
        <ele>542</ele>
        <time>2011-04-17T10:35:35Z</time>
      </trkpt>
      <trkpt lat="43.67509" lon="6.94108">
        <ele>542</ele>
        <time>2011-04-17T10:35:41Z</time>
      </trkpt>
      <trkpt lat="43.67504" lon="6.94107">
        <ele>541</ele>
        <time>2011-04-17T10:35:44Z</time>
      </trkpt>
      <trkpt lat="43.67498" lon="6.94106">
        <ele>543</ele>
        <time>2011-04-17T10:35:48Z</time>
      </trkpt>
      <trkpt lat="43.67492" lon="6.94106">
        <ele>543</ele>
        <time>2011-04-17T10:35:53Z</time>
      </trkpt>
      <trkpt lat="43.67488" lon="6.94103">
        <ele>541</ele>
        <time>2011-04-17T10:35:59Z</time>
      </trkpt>
      <trkpt lat="43.67483" lon="6.94103">
        <ele>541</ele>
        <time>2011-04-17T10:36:03Z</time>
      </trkpt>
      <trkpt lat="43.67477" lon="6.94102">
        <ele>542</ele>
        <time>2011-04-17T10:36:07Z</time>
      </trkpt>
      <trkpt lat="43.67473" lon="6.941">
        <ele>540</ele>
        <time>2011-04-17T10:36:10Z</time>
      </trkpt>
      <trkpt lat="43.67469" lon="6.94097">
        <ele>541</ele>
        <time>2011-04-17T10:36:14Z</time>
      </trkpt>
      <trkpt lat="43.67464" lon="6.94092">
        <ele>540</ele>
        <time>2011-04-17T10:36:19Z</time>
      </trkpt>
      <trkpt lat="43.67464" lon="6.94086">
        <ele>537</ele>
        <time>2011-04-17T10:36:44Z</time>
      </trkpt>
      <trkpt lat="43.67464" lon="6.94086">
        <ele>537</ele>
        <time>2011-04-17T10:36:44Z</time>
      </trkpt>
      <trkpt lat="43.67464" lon="6.94086">
        <ele>537</ele>
        <time>2011-04-17T10:36:45Z</time>
      </trkpt>
      <trkpt lat="43.67459" lon="6.94086">
        <ele>536</ele>
        <time>2011-04-17T10:36:52Z</time>
      </trkpt>
      <trkpt lat="43.67455" lon="6.94082">
        <ele>536</ele>
        <time>2011-04-17T10:36:55Z</time>
      </trkpt>
      <trkpt lat="43.67452" lon="6.94076">
        <ele>536</ele>
        <time>2011-04-17T10:37:00Z</time>
      </trkpt>
      <trkpt lat="43.6745" lon="6.9407">
        <ele>534</ele>
        <time>2011-04-17T10:37:25Z</time>
      </trkpt>
      <trkpt lat="43.67445" lon="6.94067">
        <ele>534</ele>
        <time>2011-04-17T10:37:29Z</time>
      </trkpt>
      <trkpt lat="43.67442" lon="6.9406">
        <ele>533</ele>
        <time>2011-04-17T10:37:33Z</time>
      </trkpt>
      <trkpt lat="43.67438" lon="6.94058">
        <ele>532</ele>
        <time>2011-04-17T10:37:36Z</time>
      </trkpt>
      <trkpt lat="43.67432" lon="6.94057">
        <ele>533</ele>
        <time>2011-04-17T10:37:41Z</time>
      </trkpt>
      <trkpt lat="43.67427" lon="6.94056">
        <ele>533</ele>
        <time>2011-04-17T10:37:45Z</time>
      </trkpt>
      <trkpt lat="43.67426" lon="6.94049">
        <ele>534</ele>
        <time>2011-04-17T10:37:53Z</time>
      </trkpt>
      <trkpt lat="43.67426" lon="6.94049">
        <ele>534</ele>
        <time>2011-04-17T10:37:53Z</time>
      </trkpt>
      <trkpt lat="43.67426" lon="6.94049">
        <ele>534</ele>
        <time>2011-04-17T10:37:54Z</time>
      </trkpt>
      <trkpt lat="43.6742" lon="6.94046">
        <ele>533</ele>
        <time>2011-04-17T10:37:57Z</time>
      </trkpt>
      <trkpt lat="43.67417" lon="6.94041">
        <ele>532</ele>
        <time>2011-04-17T10:38:00Z</time>
      </trkpt>
      <trkpt lat="43.67415" lon="6.94033">
        <ele>531</ele>
        <time>2011-04-17T10:38:02Z</time>
      </trkpt>
      <trkpt lat="43.6741" lon="6.94031">
        <ele>531</ele>
        <time>2011-04-17T10:38:07Z</time>
      </trkpt>
      <trkpt lat="43.67407" lon="6.94024">
        <ele>531</ele>
        <time>2011-04-17T10:38:10Z</time>
      </trkpt>
      <trkpt lat="43.67404" lon="6.9403">
        <ele>532</ele>
        <time>2011-04-17T10:38:12Z</time>
      </trkpt>
      <trkpt lat="43.674" lon="6.94025">
        <ele>533</ele>
        <time>2011-04-17T10:38:17Z</time>
      </trkpt>
      <trkpt lat="43.67396" lon="6.94021">
        <ele>532</ele>
        <time>2011-04-17T10:38:21Z</time>
      </trkpt>
      <trkpt lat="43.6739" lon="6.94018">
        <ele>533</ele>
        <time>2011-04-17T10:38:26Z</time>
      </trkpt>
      <trkpt lat="43.67388" lon="6.94011">
        <ele>533</ele>
        <time>2011-04-17T10:38:29Z</time>
      </trkpt>
      <trkpt lat="43.67386" lon="6.94004">
        <ele>533</ele>
        <time>2011-04-17T10:38:32Z</time>
      </trkpt>
      <trkpt lat="43.67381" lon="6.94002">
        <ele>534</ele>
        <time>2011-04-17T10:38:35Z</time>
      </trkpt>
      <trkpt lat="43.67378" lon="6.93995">
        <ele>534</ele>
        <time>2011-04-17T10:38:40Z</time>
      </trkpt>
      <trkpt lat="43.67373" lon="6.93991">
        <ele>534</ele>
        <time>2011-04-17T10:38:43Z</time>
      </trkpt>
      <trkpt lat="43.6737" lon="6.93986">
        <ele>533</ele>
        <time>2011-04-17T10:38:47Z</time>
      </trkpt>
      <trkpt lat="43.67365" lon="6.93981">
        <ele>533</ele>
        <time>2011-04-17T10:38:52Z</time>
      </trkpt>
      <trkpt lat="43.67361" lon="6.93973">
        <ele>530</ele>
        <time>2011-04-17T10:38:58Z</time>
      </trkpt>
      <trkpt lat="43.67356" lon="6.93973">
        <ele>533</ele>
        <time>2011-04-17T10:39:02Z</time>
      </trkpt>
      <trkpt lat="43.67351" lon="6.9397">
        <ele>531</ele>
        <time>2011-04-17T10:39:07Z</time>
      </trkpt>
      <trkpt lat="43.67347" lon="6.93965">
        <ele>531</ele>
        <time>2011-04-17T10:39:11Z</time>
      </trkpt>
      <trkpt lat="43.67342" lon="6.93966">
        <ele>532</ele>
        <time>2011-04-17T10:39:16Z</time>
      </trkpt>
      <trkpt lat="43.67337" lon="6.9396">
        <ele>532</ele>
        <time>2011-04-17T10:39:20Z</time>
      </trkpt>
      <trkpt lat="43.67332" lon="6.93959">
        <ele>532</ele>
        <time>2011-04-17T10:39:25Z</time>
      </trkpt>
      <trkpt lat="43.67328" lon="6.93962">
        <ele>535</ele>
        <time>2011-04-17T10:39:29Z</time>
      </trkpt>
      <trkpt lat="43.67324" lon="6.93958">
        <ele>535</ele>
        <time>2011-04-17T10:39:34Z</time>
      </trkpt>
      <trkpt lat="43.67319" lon="6.93958">
        <ele>535</ele>
        <time>2011-04-17T10:39:39Z</time>
      </trkpt>
      <trkpt lat="43.67314" lon="6.93956">
        <ele>536</ele>
        <time>2011-04-17T10:39:43Z</time>
      </trkpt>
      <trkpt lat="43.67307" lon="6.93957">
        <ele>536</ele>
        <time>2011-04-17T10:39:48Z</time>
      </trkpt>
      <trkpt lat="43.67302" lon="6.9396">
        <ele>536</ele>
        <time>2011-04-17T10:39:52Z</time>
      </trkpt>
      <trkpt lat="43.67297" lon="6.9396">
        <ele>536</ele>
        <time>2011-04-17T10:39:56Z</time>
      </trkpt>
      <trkpt lat="43.67292" lon="6.93964">
        <ele>537</ele>
        <time>2011-04-17T10:39:59Z</time>
      </trkpt>
      <trkpt lat="43.67287" lon="6.93964">
        <ele>537</ele>
        <time>2011-04-17T10:40:02Z</time>
      </trkpt>
      <trkpt lat="43.67282" lon="6.93963">
        <ele>536</ele>
        <time>2011-04-17T10:40:05Z</time>
      </trkpt>
      <trkpt lat="43.67277" lon="6.93959">
        <ele>537</ele>
        <time>2011-04-17T10:40:09Z</time>
      </trkpt>
      <trkpt lat="43.67272" lon="6.93958">
        <ele>536</ele>
        <time>2011-04-17T10:40:13Z</time>
      </trkpt>
      <trkpt lat="43.67266" lon="6.93956">
        <ele>537</ele>
        <time>2011-04-17T10:40:19Z</time>
      </trkpt>
      <trkpt lat="43.67262" lon="6.93953">
        <ele>538</ele>
        <time>2011-04-17T10:40:22Z</time>
      </trkpt>
      <trkpt lat="43.67257" lon="6.9395">
        <ele>538</ele>
        <time>2011-04-17T10:40:26Z</time>
      </trkpt>
      <trkpt lat="43.67253" lon="6.93946">
        <ele>536</ele>
        <time>2011-04-17T10:40:31Z</time>
      </trkpt>
      <trkpt lat="43.67251" lon="6.9394">
        <ele>535</ele>
        <time>2011-04-17T10:40:35Z</time>
      </trkpt>
      <trkpt lat="43.67249" lon="6.93934">
        <ele>535</ele>
        <time>2011-04-17T10:40:39Z</time>
      </trkpt>
      <trkpt lat="43.67248" lon="6.93928">
        <ele>534</ele>
        <time>2011-04-17T10:40:42Z</time>
      </trkpt>
      <trkpt lat="43.67244" lon="6.93923">
        <ele>533</ele>
        <time>2011-04-17T10:40:54Z</time>
      </trkpt>
      <trkpt lat="43.67242" lon="6.93916">
        <ele>533</ele>
        <time>2011-04-17T10:40:59Z</time>
      </trkpt>
      <trkpt lat="43.67241" lon="6.9391">
        <ele>533</ele>
        <time>2011-04-17T10:41:04Z</time>
      </trkpt>
      <trkpt lat="43.67239" lon="6.93902">
        <ele>534</ele>
        <time>2011-04-17T10:41:08Z</time>
      </trkpt>
      <trkpt lat="43.67235" lon="6.93896">
        <ele>536</ele>
        <time>2011-04-17T10:41:12Z</time>
      </trkpt>
      <trkpt lat="43.67232" lon="6.93889">
        <ele>535</ele>
        <time>2011-04-17T10:41:17Z</time>
      </trkpt>
      <trkpt lat="43.67231" lon="6.93882">
        <ele>535</ele>
        <time>2011-04-17T10:41:21Z</time>
      </trkpt>
      <trkpt lat="43.67231" lon="6.93882">
        <ele>535</ele>
        <time>2011-04-17T10:41:21Z</time>
      </trkpt>
      <trkpt lat="43.67231" lon="6.93882">
        <ele>536</ele>
        <time>2011-04-17T10:41:22Z</time>
      </trkpt>
      <trkpt lat="43.6723" lon="6.93875">
        <ele>536</ele>
        <time>2011-04-17T10:41:27Z</time>
      </trkpt>
      <trkpt lat="43.67228" lon="6.93868">
        <ele>535</ele>
        <time>2011-04-17T10:41:31Z</time>
      </trkpt>
      <trkpt lat="43.67226" lon="6.93861">
        <ele>536</ele>
        <time>2011-04-17T10:41:35Z</time>
      </trkpt>
      <trkpt lat="43.67224" lon="6.93854">
        <ele>537</ele>
        <time>2011-04-17T10:41:38Z</time>
      </trkpt>
      <trkpt lat="43.67226" lon="6.93848">
        <ele>537</ele>
        <time>2011-04-17T10:41:44Z</time>
      </trkpt>
      <trkpt lat="43.67227" lon="6.9384">
        <ele>535</ele>
        <time>2011-04-17T10:41:47Z</time>
      </trkpt>
      <trkpt lat="43.67226" lon="6.93833">
        <ele>535</ele>
        <time>2011-04-17T10:41:50Z</time>
      </trkpt>
      <trkpt lat="43.67227" lon="6.93826">
        <ele>536</ele>
        <time>2011-04-17T10:42:03Z</time>
      </trkpt>
      <trkpt lat="43.67227" lon="6.93826">
        <ele>536</ele>
        <time>2011-04-17T10:42:03Z</time>
      </trkpt>
      <trkpt lat="43.67227" lon="6.93826">
        <ele>535</ele>
        <time>2011-04-17T10:43:03Z</time>
      </trkpt>
      <trkpt lat="43.67226" lon="6.9382">
        <ele>533</ele>
        <time>2011-04-17T10:43:30Z</time>
      </trkpt>
      <trkpt lat="43.67226" lon="6.9382">
        <ele>533</ele>
        <time>2011-04-17T10:43:30Z</time>
      </trkpt>
      <trkpt lat="43.67226" lon="6.9382">
        <ele>533</ele>
        <time>2011-04-17T10:43:39Z</time>
      </trkpt>
      <trkpt lat="43.67224" lon="6.93813">
        <ele>536</ele>
        <time>2011-04-17T10:43:44Z</time>
      </trkpt>
      <trkpt lat="43.67222" lon="6.93806">
        <ele>538</ele>
        <time>2011-04-17T10:43:50Z</time>
      </trkpt>
      <trkpt lat="43.67218" lon="6.938">
        <ele>539</ele>
        <time>2011-04-17T10:43:56Z</time>
      </trkpt>
      <trkpt lat="43.67213" lon="6.93797">
        <ele>537</ele>
        <time>2011-04-17T10:44:02Z</time>
      </trkpt>
      <trkpt lat="43.67209" lon="6.93797">
        <ele>537</ele>
        <time>2011-04-17T10:44:05Z</time>
      </trkpt>
      <trkpt lat="43.67203" lon="6.93798">
        <ele>538</ele>
        <time>2011-04-17T10:44:16Z</time>
      </trkpt>
      <trkpt lat="43.67198" lon="6.93803">
        <ele>538</ele>
        <time>2011-04-17T10:44:20Z</time>
      </trkpt>
      <trkpt lat="43.67194" lon="6.9381">
        <ele>538</ele>
        <time>2011-04-17T10:44:25Z</time>
      </trkpt>
      <trkpt lat="43.67189" lon="6.93813">
        <ele>538</ele>
        <time>2011-04-17T10:44:29Z</time>
      </trkpt>
      <trkpt lat="43.67187" lon="6.93819">
        <ele>539</ele>
        <time>2011-04-17T10:44:33Z</time>
      </trkpt>
      <trkpt lat="43.67182" lon="6.93823">
        <ele>539</ele>
        <time>2011-04-17T10:44:38Z</time>
      </trkpt>
      <trkpt lat="43.67178" lon="6.9383">
        <ele>543</ele>
        <time>2011-04-17T10:45:11Z</time>
      </trkpt>
      <trkpt lat="43.67174" lon="6.93833">
        <ele>542</ele>
        <time>2011-04-17T10:45:14Z</time>
      </trkpt>
      <trkpt lat="43.6717" lon="6.93839">
        <ele>540</ele>
        <time>2011-04-17T10:45:18Z</time>
      </trkpt>
      <trkpt lat="43.67166" lon="6.93845">
        <ele>538</ele>
        <time>2011-04-17T10:45:24Z</time>
      </trkpt>
      <trkpt lat="43.67162" lon="6.93848">
        <ele>538</ele>
        <time>2011-04-17T10:45:29Z</time>
      </trkpt>
      <trkpt lat="43.67157" lon="6.93851">
        <ele>537</ele>
        <time>2011-04-17T10:45:32Z</time>
      </trkpt>
      <trkpt lat="43.67153" lon="6.93853">
        <ele>537</ele>
        <time>2011-04-17T10:45:34Z</time>
      </trkpt>
      <trkpt lat="43.67148" lon="6.93854">
        <ele>536</ele>
        <time>2011-04-17T10:45:38Z</time>
      </trkpt>
      <trkpt lat="43.67143" lon="6.93855">
        <ele>536</ele>
        <time>2011-04-17T10:45:40Z</time>
      </trkpt>
      <trkpt lat="43.67137" lon="6.93854">
        <ele>535</ele>
        <time>2011-04-17T10:45:43Z</time>
      </trkpt>
      <trkpt lat="43.67131" lon="6.93853">
        <ele>534</ele>
        <time>2011-04-17T10:45:48Z</time>
      </trkpt>
      <trkpt lat="43.67127" lon="6.93847">
        <ele>534</ele>
        <time>2011-04-17T10:45:52Z</time>
      </trkpt>
      <trkpt lat="43.67122" lon="6.93843">
        <ele>534</ele>
        <time>2011-04-17T10:45:55Z</time>
      </trkpt>
      <trkpt lat="43.67117" lon="6.9384">
        <ele>531</ele>
        <time>2011-04-17T10:46:00Z</time>
      </trkpt>
      <trkpt lat="43.67113" lon="6.93838">
        <ele>530</ele>
        <time>2011-04-17T10:46:03Z</time>
      </trkpt>
      <trkpt lat="43.67108" lon="6.93834">
        <ele>529</ele>
        <time>2011-04-17T10:46:07Z</time>
      </trkpt>
      <trkpt lat="43.67106" lon="6.93828">
        <ele>530</ele>
        <time>2011-04-17T10:46:11Z</time>
      </trkpt>
      <trkpt lat="43.67106" lon="6.93819">
        <ele>530</ele>
        <time>2011-04-17T10:46:16Z</time>
      </trkpt>
      <trkpt lat="43.67104" lon="6.93813">
        <ele>529</ele>
        <time>2011-04-17T10:46:19Z</time>
      </trkpt>
      <trkpt lat="43.67101" lon="6.93808">
        <ele>529</ele>
        <time>2011-04-17T10:46:23Z</time>
      </trkpt>
      <trkpt lat="43.67098" lon="6.93803">
        <ele>529</ele>
        <time>2011-04-17T10:46:28Z</time>
      </trkpt>
      <trkpt lat="43.67098" lon="6.93803">
        <ele>529</ele>
        <time>2011-04-17T10:46:28Z</time>
      </trkpt>
      <trkpt lat="43.67098" lon="6.93803">
        <ele>530</ele>
        <time>2011-04-17T10:46:29Z</time>
      </trkpt>
      <trkpt lat="43.67093" lon="6.938">
        <ele>531</ele>
        <time>2011-04-17T10:46:33Z</time>
      </trkpt>
      <trkpt lat="43.67091" lon="6.93792">
        <ele>531</ele>
        <time>2011-04-17T10:46:38Z</time>
      </trkpt>
      <trkpt lat="43.67089" lon="6.93784">
        <ele>530</ele>
        <time>2011-04-17T10:46:43Z</time>
      </trkpt>
      <trkpt lat="43.67085" lon="6.93778">
        <ele>531</ele>
        <time>2011-04-17T10:46:48Z</time>
      </trkpt>
      <trkpt lat="43.67081" lon="6.93773">
        <ele>531</ele>
        <time>2011-04-17T10:46:54Z</time>
      </trkpt>
      <trkpt lat="43.67074" lon="6.93777">
        <ele>532</ele>
        <time>2011-04-17T10:46:58Z</time>
      </trkpt>
      <trkpt lat="43.6707" lon="6.93778">
        <ele>535</ele>
        <time>2011-04-17T10:47:05Z</time>
      </trkpt>
      <trkpt lat="43.67063" lon="6.93781">
        <ele>534</ele>
        <time>2011-04-17T10:47:10Z</time>
      </trkpt>
      <trkpt lat="43.67063" lon="6.93781">
        <ele>534</ele>
        <time>2011-04-17T10:47:10Z</time>
      </trkpt>
      <trkpt lat="43.67063" lon="6.93781">
        <ele>534</ele>
        <time>2011-04-17T10:47:13Z</time>
      </trkpt>
      <trkpt lat="43.67057" lon="6.9378">
        <ele>533</ele>
        <time>2011-04-17T10:47:15Z</time>
      </trkpt>
      <trkpt lat="43.67052" lon="6.9378">
        <ele>533</ele>
        <time>2011-04-17T10:47:18Z</time>
      </trkpt>
      <trkpt lat="43.67047" lon="6.9378">
        <ele>533</ele>
        <time>2011-04-17T10:47:21Z</time>
      </trkpt>
      <trkpt lat="43.67042" lon="6.9378">
        <ele>533</ele>
        <time>2011-04-17T10:47:25Z</time>
      </trkpt>
      <trkpt lat="43.67037" lon="6.93778">
        <ele>532</ele>
        <time>2011-04-17T10:47:29Z</time>
      </trkpt>
      <trkpt lat="43.67032" lon="6.93775">
        <ele>532</ele>
        <time>2011-04-17T10:47:33Z</time>
      </trkpt>
      <trkpt lat="43.67027" lon="6.93774">
        <ele>532</ele>
        <time>2011-04-17T10:48:51Z</time>
      </trkpt>
      <trkpt lat="43.67024" lon="6.9377">
        <ele>531</ele>
        <time>2011-04-17T10:48:53Z</time>
      </trkpt>
      <trkpt lat="43.67019" lon="6.9377">
        <ele>529</ele>
        <time>2011-04-17T10:48:56Z</time>
      </trkpt>
      <trkpt lat="43.67013" lon="6.93769">
        <ele>530</ele>
        <time>2011-04-17T10:49:00Z</time>
      </trkpt>
      <trkpt lat="43.67009" lon="6.93766">
        <ele>532</ele>
        <time>2011-04-17T10:49:03Z</time>
      </trkpt>
      <trkpt lat="43.66953" lon="6.93694">
        <ele>530</ele>
        <time>2011-04-17T10:51:12Z</time>
      </trkpt>
      <trkpt lat="43.66955" lon="6.93688">
        <ele>532</ele>
        <time>2011-04-17T10:51:14Z</time>
      </trkpt>
      <trkpt lat="43.66952" lon="6.93682">
        <ele>529</ele>
        <time>2011-04-17T10:51:17Z</time>
      </trkpt>
      <trkpt lat="43.66948" lon="6.93677">
        <ele>532</ele>
        <time>2011-04-17T10:51:23Z</time>
      </trkpt>
      <trkpt lat="43.66944" lon="6.93673">
        <ele>531</ele>
        <time>2011-04-17T10:51:49Z</time>
      </trkpt>
      <trkpt lat="43.66944" lon="6.93666">
        <ele>531</ele>
        <time>2011-04-17T10:51:53Z</time>
      </trkpt>
      <trkpt lat="43.66943" lon="6.9366">
        <ele>530</ele>
        <time>2011-04-17T10:51:57Z</time>
      </trkpt>
      <trkpt lat="43.6694" lon="6.93654">
        <ele>531</ele>
        <time>2011-04-17T10:52:01Z</time>
      </trkpt>
      <trkpt lat="43.66938" lon="6.93647">
        <ele>532</ele>
        <time>2011-04-17T10:52:06Z</time>
      </trkpt>
      <trkpt lat="43.66937" lon="6.93641">
        <ele>533</ele>
        <time>2011-04-17T10:52:10Z</time>
      </trkpt>
      <trkpt lat="43.66933" lon="6.93635">
        <ele>532</ele>
        <time>2011-04-17T10:52:14Z</time>
      </trkpt>
      <trkpt lat="43.66932" lon="6.93628">
        <ele>533</ele>
        <time>2011-04-17T10:52:18Z</time>
      </trkpt>
      <trkpt lat="43.66931" lon="6.93619">
        <ele>532</ele>
        <time>2011-04-17T10:52:22Z</time>
      </trkpt>
      <trkpt lat="43.66932" lon="6.93611">
        <ele>532</ele>
        <time>2011-04-17T10:52:25Z</time>
      </trkpt>
      <trkpt lat="43.6693" lon="6.93604">
        <ele>533</ele>
        <time>2011-04-17T10:52:30Z</time>
      </trkpt>
      <trkpt lat="43.66931" lon="6.93597">
        <ele>532</ele>
        <time>2011-04-17T10:52:34Z</time>
      </trkpt>
      <trkpt lat="43.66931" lon="6.93587">
        <ele>532</ele>
        <time>2011-04-17T10:52:38Z</time>
      </trkpt>
      <trkpt lat="43.66931" lon="6.9358">
        <ele>531</ele>
        <time>2011-04-17T10:52:43Z</time>
      </trkpt>
      <trkpt lat="43.66945" lon="6.93479">
        <ele>532</ele>
        <time>2011-04-17T10:54:17Z</time>
      </trkpt>
      <trkpt lat="43.66948" lon="6.93487">
        <ele>532</ele>
        <time>2011-04-17T10:54:18Z</time>
      </trkpt>
      <trkpt lat="43.66946" lon="6.9348">
        <ele>529</ele>
        <time>2011-04-17T10:54:26Z</time>
      </trkpt>
      <trkpt lat="43.66946" lon="6.93473">
        <ele>529</ele>
        <time>2011-04-17T10:54:31Z</time>
      </trkpt>
      <trkpt lat="43.66945" lon="6.93465">
        <ele>527</ele>
        <time>2011-04-17T10:54:48Z</time>
      </trkpt>
      <trkpt lat="43.6695" lon="6.93467">
        <ele>532</ele>
        <time>2011-04-17T10:54:56Z</time>
      </trkpt>
      <trkpt lat="43.66954" lon="6.93464">
        <ele>534</ele>
        <time>2011-04-17T10:55:01Z</time>
      </trkpt>
      <trkpt lat="43.66959" lon="6.93458">
        <ele>534</ele>
        <time>2011-04-17T10:55:05Z</time>
      </trkpt>
      <trkpt lat="43.66964" lon="6.93452">
        <ele>534</ele>
        <time>2011-04-17T10:55:09Z</time>
      </trkpt>
      <trkpt lat="43.66965" lon="6.93444">
        <ele>534</ele>
        <time>2011-04-17T10:55:13Z</time>
      </trkpt>
      <trkpt lat="43.66967" lon="6.93436">
        <ele>533</ele>
        <time>2011-04-17T10:55:18Z</time>
      </trkpt>
      <trkpt lat="43.66969" lon="6.9343">
        <ele>533</ele>
        <time>2011-04-17T10:55:25Z</time>
      </trkpt>
      <trkpt lat="43.6697" lon="6.93423">
        <ele>531</ele>
        <time>2011-04-17T10:55:28Z</time>
      </trkpt>
      <trkpt lat="43.66973" lon="6.93417">
        <ele>531</ele>
        <time>2011-04-17T10:55:31Z</time>
      </trkpt>
      <trkpt lat="43.66973" lon="6.9341">
        <ele>531</ele>
        <time>2011-04-17T10:55:35Z</time>
      </trkpt>
      <trkpt lat="43.66973" lon="6.93403">
        <ele>532</ele>
        <time>2011-04-17T10:55:39Z</time>
      </trkpt>
      <trkpt lat="43.6697" lon="6.93397">
        <ele>534</ele>
        <time>2011-04-17T10:55:43Z</time>
      </trkpt>
      <trkpt lat="43.66967" lon="6.93393">
        <ele>535</ele>
        <time>2011-04-17T10:55:51Z</time>
      </trkpt>
      <trkpt lat="43.66961" lon="6.93395">
        <ele>537</ele>
        <time>2011-04-17T10:55:57Z</time>
      </trkpt>
      <trkpt lat="43.66956" lon="6.93394">
        <ele>536</ele>
        <time>2011-04-17T10:56:02Z</time>
      </trkpt>
      <trkpt lat="43.66952" lon="6.93392">
        <ele>535</ele>
        <time>2011-04-17T10:56:05Z</time>
      </trkpt>
      <trkpt lat="43.66947" lon="6.93393">
        <ele>536</ele>
        <time>2011-04-17T10:56:09Z</time>
      </trkpt>
      <trkpt lat="43.66947" lon="6.93393">
        <ele>536</ele>
        <time>2011-04-17T10:56:09Z</time>
      </trkpt>
      <trkpt lat="43.66947" lon="6.93393">
        <ele>535</ele>
        <time>2011-04-17T10:56:12Z</time>
      </trkpt>
      <trkpt lat="43.66942" lon="6.93397">
        <ele>534</ele>
        <time>2011-04-17T10:56:23Z</time>
      </trkpt>
      <trkpt lat="43.66937" lon="6.93399">
        <ele>533</ele>
        <time>2011-04-17T10:56:50Z</time>
      </trkpt>
      <trkpt lat="43.66937" lon="6.93399">
        <ele>533</ele>
        <time>2011-04-17T10:56:50Z</time>
      </trkpt>
      <trkpt lat="43.66937" lon="6.93399">
        <ele>532</ele>
        <time>2011-04-17T10:56:52Z</time>
      </trkpt>
      <trkpt lat="43.66933" lon="6.93394">
        <ele>531</ele>
        <time>2011-04-17T10:56:54Z</time>
      </trkpt>
      <trkpt lat="43.66928" lon="6.93393">
        <ele>530</ele>
        <time>2011-04-17T10:56:58Z</time>
      </trkpt>
      <trkpt lat="43.66922" lon="6.9339">
        <ele>529</ele>
        <time>2011-04-17T10:57:03Z</time>
      </trkpt>
      <trkpt lat="43.66916" lon="6.93388">
        <ele>529</ele>
        <time>2011-04-17T10:57:06Z</time>
      </trkpt>
      <trkpt lat="43.6691" lon="6.93385">
        <ele>532</ele>
        <time>2011-04-17T10:57:11Z</time>
      </trkpt>
      <trkpt lat="43.66905" lon="6.93385">
        <ele>532</ele>
        <time>2011-04-17T10:57:16Z</time>
      </trkpt>
      <trkpt lat="43.669" lon="6.93384">
        <ele>532</ele>
        <time>2011-04-17T10:57:20Z</time>
      </trkpt>
      <trkpt lat="43.66898" lon="6.93378">
        <ele>530</ele>
        <time>2011-04-17T10:57:25Z</time>
      </trkpt>
      <trkpt lat="43.66894" lon="6.93373">
        <ele>530</ele>
        <time>2011-04-17T10:57:29Z</time>
      </trkpt>
      <trkpt lat="43.66889" lon="6.9337">
        <ele>529</ele>
        <time>2011-04-17T10:57:33Z</time>
      </trkpt>
      <trkpt lat="43.66885" lon="6.93366">
        <ele>529</ele>
        <time>2011-04-17T10:57:36Z</time>
      </trkpt>
      <trkpt lat="43.66881" lon="6.93362">
        <ele>530</ele>
        <time>2011-04-17T10:57:39Z</time>
      </trkpt>
      <trkpt lat="43.66878" lon="6.93357">
        <ele>530</ele>
        <time>2011-04-17T10:57:43Z</time>
      </trkpt>
      <trkpt lat="43.66874" lon="6.93353">
        <ele>528</ele>
        <time>2011-04-17T10:57:47Z</time>
      </trkpt>
      <trkpt lat="43.66869" lon="6.93349">
        <ele>528</ele>
        <time>2011-04-17T10:57:51Z</time>
      </trkpt>
      <trkpt lat="43.66864" lon="6.93347">
        <ele>528</ele>
        <time>2011-04-17T10:57:55Z</time>
      </trkpt>
      <trkpt lat="43.6686" lon="6.93344">
        <ele>527</ele>
        <time>2011-04-17T10:58:00Z</time>
      </trkpt>
      <trkpt lat="43.66856" lon="6.93339">
        <ele>528</ele>
        <time>2011-04-17T10:58:05Z</time>
      </trkpt>
      <trkpt lat="43.66852" lon="6.93334">
        <ele>528</ele>
        <time>2011-04-17T10:58:08Z</time>
      </trkpt>
      <trkpt lat="43.66849" lon="6.93329">
        <ele>529</ele>
        <time>2011-04-17T10:58:12Z</time>
      </trkpt>
      <trkpt lat="43.66845" lon="6.93324">
        <ele>530</ele>
        <time>2011-04-17T10:58:17Z</time>
      </trkpt>
      <trkpt lat="43.66842" lon="6.93317">
        <ele>530</ele>
        <time>2011-04-17T10:58:21Z</time>
      </trkpt>
      <trkpt lat="43.66837" lon="6.93314">
        <ele>530</ele>
        <time>2011-04-17T10:58:24Z</time>
      </trkpt>
      <trkpt lat="43.66834" lon="6.9331">
        <ele>529</ele>
        <time>2011-04-17T10:58:28Z</time>
      </trkpt>
      <trkpt lat="43.66829" lon="6.93305">
        <ele>529</ele>
        <time>2011-04-17T10:58:33Z</time>
      </trkpt>
      <trkpt lat="43.66826" lon="6.933">
        <ele>530</ele>
        <time>2011-04-17T10:58:37Z</time>
      </trkpt>
      <trkpt lat="43.66823" lon="6.93292">
        <ele>531</ele>
        <time>2011-04-17T10:58:41Z</time>
      </trkpt>
      <trkpt lat="43.66819" lon="6.93286">
        <ele>530</ele>
        <time>2011-04-17T10:58:46Z</time>
      </trkpt>
      <trkpt lat="43.66814" lon="6.9328">
        <ele>530</ele>
        <time>2011-04-17T10:58:50Z</time>
      </trkpt>
      <trkpt lat="43.6681" lon="6.93276">
        <ele>529</ele>
        <time>2011-04-17T10:58:55Z</time>
      </trkpt>
      <trkpt lat="43.66807" lon="6.93271">
        <ele>528</ele>
        <time>2011-04-17T10:58:59Z</time>
      </trkpt>
      <trkpt lat="43.66802" lon="6.93267">
        <ele>524</ele>
        <time>2011-04-17T10:59:03Z</time>
      </trkpt>
      <trkpt lat="43.66799" lon="6.93263">
        <ele>523</ele>
        <time>2011-04-17T10:59:17Z</time>
      </trkpt>
      <trkpt lat="43.66796" lon="6.93258">
        <ele>524</ele>
        <time>2011-04-17T10:59:21Z</time>
      </trkpt>
      <trkpt lat="43.66793" lon="6.93251">
        <ele>524</ele>
        <time>2011-04-17T10:59:27Z</time>
      </trkpt>
      <trkpt lat="43.6679" lon="6.93246">
        <ele>523</ele>
        <time>2011-04-17T10:59:30Z</time>
      </trkpt>
      <trkpt lat="43.66785" lon="6.93243">
        <ele>525</ele>
        <time>2011-04-17T10:59:34Z</time>
      </trkpt>
      <trkpt lat="43.6678" lon="6.93243">
        <ele>525</ele>
        <time>2011-04-17T10:59:38Z</time>
      </trkpt>
      <trkpt lat="43.66775" lon="6.9324">
        <ele>527</ele>
        <time>2011-04-17T10:59:44Z</time>
      </trkpt>
      <trkpt lat="43.66774" lon="6.93233">
        <ele>528</ele>
        <time>2011-04-17T10:59:49Z</time>
      </trkpt>
      <trkpt lat="43.66769" lon="6.93231">
        <ele>528</ele>
        <time>2011-04-17T10:59:53Z</time>
      </trkpt>
      <trkpt lat="43.66764" lon="6.93229">
        <ele>527</ele>
        <time>2011-04-17T10:59:57Z</time>
      </trkpt>
      <trkpt lat="43.66759" lon="6.93226">
        <ele>529</ele>
        <time>2011-04-17T11:00:03Z</time>
      </trkpt>
      <trkpt lat="43.66753" lon="6.93224">
        <ele>528</ele>
        <time>2011-04-17T11:00:07Z</time>
      </trkpt>
      <trkpt lat="43.66748" lon="6.93222">
        <ele>529</ele>
        <time>2011-04-17T11:00:10Z</time>
      </trkpt>
      <trkpt lat="43.66744" lon="6.9322">
        <ele>529</ele>
        <time>2011-04-17T11:00:14Z</time>
      </trkpt>
      <trkpt lat="43.66736" lon="6.9322">
        <ele>528</ele>
        <time>2011-04-17T11:00:18Z</time>
      </trkpt>
      <trkpt lat="43.66731" lon="6.93216">
        <ele>528</ele>
        <time>2011-04-17T11:00:22Z</time>
      </trkpt>
      <trkpt lat="43.66725" lon="6.93213">
        <ele>528</ele>
        <time>2011-04-17T11:00:27Z</time>
      </trkpt>
      <trkpt lat="43.66718" lon="6.93211">
        <ele>529</ele>
        <time>2011-04-17T11:00:32Z</time>
      </trkpt>
      <trkpt lat="43.66712" lon="6.93209">
        <ele>528</ele>
        <time>2011-04-17T11:00:35Z</time>
      </trkpt>
      <trkpt lat="43.66708" lon="6.93207">
        <ele>528</ele>
        <time>2011-04-17T11:00:38Z</time>
      </trkpt>
      <trkpt lat="43.66703" lon="6.93204">
        <ele>526</ele>
        <time>2011-04-17T11:00:43Z</time>
      </trkpt>
      <trkpt lat="43.66698" lon="6.93202">
        <ele>525</ele>
        <time>2011-04-17T11:00:48Z</time>
      </trkpt>
      <trkpt lat="43.66693" lon="6.93199">
        <ele>527</ele>
        <time>2011-04-17T11:00:54Z</time>
      </trkpt>
      <trkpt lat="43.66689" lon="6.93196">
        <ele>528</ele>
        <time>2011-04-17T11:00:58Z</time>
      </trkpt>
      <trkpt lat="43.66688" lon="6.9319">
        <ele>528</ele>
        <time>2011-04-17T11:01:02Z</time>
      </trkpt>
      <trkpt lat="43.66684" lon="6.93186">
        <ele>528</ele>
        <time>2011-04-17T11:01:07Z</time>
      </trkpt>
      <trkpt lat="43.66683" lon="6.93179">
        <ele>528</ele>
        <time>2011-04-17T11:01:11Z</time>
      </trkpt>
      <trkpt lat="43.66682" lon="6.9317">
        <ele>528</ele>
        <time>2011-04-17T11:01:16Z</time>
      </trkpt>
      <trkpt lat="43.6668" lon="6.93164">
        <ele>528</ele>
        <time>2011-04-17T11:01:19Z</time>
      </trkpt>
      <trkpt lat="43.66679" lon="6.93157">
        <ele>529</ele>
        <time>2011-04-17T11:01:23Z</time>
      </trkpt>
      <trkpt lat="43.66675" lon="6.93153">
        <ele>530</ele>
        <time>2011-04-17T11:01:26Z</time>
      </trkpt>
      <trkpt lat="43.66675" lon="6.93144">
        <ele>529</ele>
        <time>2011-04-17T11:01:29Z</time>
      </trkpt>
      <trkpt lat="43.66673" lon="6.93138">
        <ele>531</ele>
        <time>2011-04-17T11:01:34Z</time>
      </trkpt>
      <trkpt lat="43.66673" lon="6.93131">
        <ele>531</ele>
        <time>2011-04-17T11:01:38Z</time>
      </trkpt>
      <trkpt lat="43.66674" lon="6.93124">
        <ele>531</ele>
        <time>2011-04-17T11:01:41Z</time>
      </trkpt>
      <trkpt lat="43.66674" lon="6.93117">
        <ele>531</ele>
        <time>2011-04-17T11:01:44Z</time>
      </trkpt>
      <trkpt lat="43.66675" lon="6.93109">
        <ele>531</ele>
        <time>2011-04-17T11:01:49Z</time>
      </trkpt>
      <trkpt lat="43.66675" lon="6.93101">
        <ele>531</ele>
        <time>2011-04-17T11:01:54Z</time>
      </trkpt>
      <trkpt lat="43.66676" lon="6.93094">
        <ele>530</ele>
        <time>2011-04-17T11:02:01Z</time>
      </trkpt>
      <trkpt lat="43.6668" lon="6.93088">
        <ele>533</ele>
        <time>2011-04-17T11:02:07Z</time>
      </trkpt>
      <trkpt lat="43.66685" lon="6.93088">
        <ele>533</ele>
        <time>2011-04-17T11:02:13Z</time>
      </trkpt>
      <trkpt lat="43.66689" lon="6.9309">
        <ele>532</ele>
        <time>2011-04-17T11:02:19Z</time>
      </trkpt>
      <trkpt lat="43.66694" lon="6.93092">
        <ele>531</ele>
        <time>2011-04-17T11:02:41Z</time>
      </trkpt>
      <trkpt lat="43.66698" lon="6.9309">
        <ele>531</ele>
        <time>2011-04-17T11:02:45Z</time>
      </trkpt>
      <trkpt lat="43.66702" lon="6.93096">
        <ele>533</ele>
        <time>2011-04-17T11:02:51Z</time>
      </trkpt>
      <trkpt lat="43.66706" lon="6.93099">
        <ele>535</ele>
        <time>2011-04-17T11:02:55Z</time>
      </trkpt>
      <trkpt lat="43.66712" lon="6.93097">
        <ele>535</ele>
        <time>2011-04-17T11:03:00Z</time>
      </trkpt>
      <trkpt lat="43.66716" lon="6.93094">
        <ele>537</ele>
        <time>2011-04-17T11:03:05Z</time>
      </trkpt>
      <trkpt lat="43.66718" lon="6.93088">
        <ele>538</ele>
        <time>2011-04-17T11:03:09Z</time>
      </trkpt>
      <trkpt lat="43.6672" lon="6.93082">
        <ele>538</ele>
        <time>2011-04-17T11:03:11Z</time>
      </trkpt>
      <trkpt lat="43.6672" lon="6.93076">
        <ele>536</ele>
        <time>2011-04-17T11:03:16Z</time>
      </trkpt>
      <trkpt lat="43.66723" lon="6.93069">
        <ele>536</ele>
        <time>2011-04-17T11:03:20Z</time>
      </trkpt>
      <trkpt lat="43.66725" lon="6.93063">
        <ele>538</ele>
        <time>2011-04-17T11:03:23Z</time>
      </trkpt>
      <trkpt lat="43.66727" lon="6.93057">
        <ele>537</ele>
        <time>2011-04-17T11:03:26Z</time>
      </trkpt>
      <trkpt lat="43.66729" lon="6.9305">
        <ele>536</ele>
        <time>2011-04-17T11:03:29Z</time>
      </trkpt>
      <trkpt lat="43.66731" lon="6.93056">
        <ele>537</ele>
        <time>2011-04-17T11:03:42Z</time>
      </trkpt>
      <trkpt lat="43.6673" lon="6.93063">
        <ele>539</ele>
        <time>2011-04-17T11:03:49Z</time>
      </trkpt>
      <trkpt lat="43.66732" lon="6.93069">
        <ele>539</ele>
        <time>2011-04-17T11:03:54Z</time>
      </trkpt>
      <trkpt lat="43.66731" lon="6.93075">
        <ele>539</ele>
        <time>2011-04-17T11:03:57Z</time>
      </trkpt>
      <trkpt lat="43.66733" lon="6.93082">
        <ele>539</ele>
        <time>2011-04-17T11:04:00Z</time>
      </trkpt>
      <trkpt lat="43.66736" lon="6.93088">
        <ele>538</ele>
        <time>2011-04-17T11:04:03Z</time>
      </trkpt>
      <trkpt lat="43.66738" lon="6.93094">
        <ele>538</ele>
        <time>2011-04-17T11:04:10Z</time>
      </trkpt>
      <trkpt lat="43.66742" lon="6.93103">
        <ele>536</ele>
        <time>2011-04-17T11:04:14Z</time>
      </trkpt>
      <trkpt lat="43.66746" lon="6.93108">
        <ele>536</ele>
        <time>2011-04-17T11:04:17Z</time>
      </trkpt>
      <trkpt lat="43.66749" lon="6.93114">
        <ele>535</ele>
        <time>2011-04-17T11:04:20Z</time>
      </trkpt>
      <trkpt lat="43.66753" lon="6.93117">
        <ele>535</ele>
        <time>2011-04-17T11:04:23Z</time>
      </trkpt>
      <trkpt lat="43.66754" lon="6.93125">
        <ele>535</ele>
        <time>2011-04-17T11:04:27Z</time>
      </trkpt>
      <trkpt lat="43.66751" lon="6.93131">
        <ele>538</ele>
        <time>2011-04-17T11:04:32Z</time>
      </trkpt>
      <trkpt lat="43.66749" lon="6.93138">
        <ele>540</ele>
        <time>2011-04-17T11:04:35Z</time>
      </trkpt>
      <trkpt lat="43.66747" lon="6.93146">
        <ele>542</ele>
        <time>2011-04-17T11:04:40Z</time>
      </trkpt>
      <trkpt lat="43.66745" lon="6.93152">
        <ele>543</ele>
        <time>2011-04-17T11:04:48Z</time>
      </trkpt>
      <trkpt lat="43.66741" lon="6.93155">
        <ele>545</ele>
        <time>2011-04-17T11:04:58Z</time>
      </trkpt>
      <trkpt lat="43.66741" lon="6.93155">
        <ele>545</ele>
        <time>2011-04-17T11:04:58Z</time>
      </trkpt>
    </trkseg>
  </trk>
</gpx>